Time,TemperatureF,DewpointF,PressureIn,WindDirection,WindDirectionDegrees,WindSpeedMPH,WindSpeedGustMPH,Humidity,HourlyPrecipIn,Conditions,Clouds,dailyrainin,SolarRadiationWatts/m^2,SoftwareType,DateUTC
2013-11-02 00:00:00,44.8,43.5,29.60,SW,225,2.0,3.0,95,0.00,,,0.00,0,MyOwnSoftware,2013-11-02 00:00:00,
2013-11-02 00:01:00,44.8,43.5,29.60,WSW,248,2.0,3.0,95,0.00,,,0.00,0,MyOwnSoftware,2013-11-02 00:01:00,
2013-11-02 00:02:00,44.8,43.5,29.60,WNW,292,1.0,3.0,95,0.00,,,0.00,0,MyOwnSoftware,2013-11-02 00:02:00,
2013-11-02 00:03:00,44.8,43.5,29.60,SSW,202,1.0,2.0,95,0.00,,,0.00,0,MyOwnSoftware,2013-11-02 00:03:00,
2013-11-02 00:04:00,44.8,43.5,29.60,SSW,202,1.0,3.0,95,0.00,,,0.00,0,MyOwnSoftware,2013-11-02 00:04:00,
2013-11-02 00:05:00,44.8,43.5,29.60,NNW,338,2.0,4.0,95,0.00,,,0.00,0,MyOwnSoftware,2013-11-02 00:05:00,
2013-11-02 00:06:00,44.8,44.0,29.60,SW,220,3.0,-999.0,95,-99.99,,,0.00,0,weatherlink.com 1.10,2013-11-02 00:06:00,
2013-11-02 00:07:00,44.8,43.5,29.60,WSW,248,2.0,3.0,95,0.00,,,0.00,0,MyOwnSoftware,2013-11-02 00:07:00,
2013-11-02 00:08:00,44.8,43.5,29.60,NW,315,2.0,3.0,95,0.00,,,0.00,0,MyOwnSoftware,2013-11-02 00:08:00,
2013-11-02 00:09:00,44.6,43.3,29.60,NW,315,2.0,6.0,95,0.00,,,0.00,0,MyOwnSoftware,2013-11-02 00:09:00,
2013-11-02 00:10:00,44.6,43.3,29.60,SSW,202,2.0,6.0,95,0.00,,,0.00,0,MyOwnSoftware,2013-11-02 00:10:00,
2013-11-02 00:11:00,44.6,43.5,29.60,West,270,2.0,3.0,96,0.00,,,0.00,0,MyOwnSoftware,2013-11-02 00:11:00,
2013-11-02 00:12:00,44.6,43.5,29.60,West,270,2.0,3.0,96,0.00,,,0.00,0,MyOwnSoftware,2013-11-02 00:12:00,
2013-11-02 00:13:00,44.6,43.5,29.60,WSW,248,2.0,3.0,96,0.00,,,0.00,0,MyOwnSoftware,2013-11-02 00:13:00,
2013-11-02 00:14:00,44.6,43.5,29.60,WSW,248,1.0,2.0,96,0.00,,,0.00,0,MyOwnSoftware,2013-11-02 00:14:00,
2013-11-02 00:15:00,44.6,43.5,29.60,SSW,202,2.0,4.0,96,0.00,,,0.00,0,MyOwnSoftware,2013-11-02 00:15:00,
2013-11-02 00:16:00,44.6,43.5,29.60,NW,315,2.0,5.0,96,0.00,,,0.00,0,MyOwnSoftware,2013-11-02 00:16:00,
2013-11-02 00:17:00,44.6,43.5,29.60,West,270,2.0,2.0,96,0.00,,,0.00,0,MyOwnSoftware,2013-11-02 00:17:00,
2013-11-02 00:18:00,44.6,43.5,29.60,NNW,338,2.0,6.0,96,0.00,,,0.00,0,MyOwnSoftware,2013-11-02 00:18:00,
2013-11-02 00:19:00,44.6,43.5,29.60,SW,225,2.0,4.0,96,0.00,,,0.00,0,MyOwnSoftware,2013-11-02 00:19:00,
2013-11-02 00:20:00,44.6,43.5,29.60,SSE,158,2.0,3.0,96,0.00,,,0.00,0,MyOwnSoftware,2013-11-02 00:20:00,
2013-11-02 00:21:00,44.6,44.0,29.60,ESE,103,0.0,-999.0,96,-99.99,,,0.00,0,weatherlink.com 1.10,2013-11-02 00:21:00,
2013-11-02 00:22:00,44.6,43.5,29.60,ESE,112,2.0,5.0,96,0.00,,,0.00,0,MyOwnSoftware,2013-11-02 00:22:00,
2013-11-02 00:23:00,44.6,43.5,29.60,SSW,202,2.0,4.0,96,0.00,,,0.00,0,MyOwnSoftware,2013-11-02 00:23:00,
2013-11-02 00:24:00,44.6,43.5,29.60,NW,315,2.0,3.0,96,0.00,,,0.00,0,MyOwnSoftware,2013-11-02 00:24:00,
2013-11-02 00:25:00,44.6,43.5,29.60,ENE,68,2.0,3.0,96,0.00,,,0.00,0,MyOwnSoftware,2013-11-02 00:25:00,
2013-11-02 00:26:00,44.6,43.5,29.60,WSW,248,3.0,7.0,96,0.00,,,0.00,0,MyOwnSoftware,2013-11-02 00:26:00,
2013-11-02 00:27:00,44.6,43.5,29.60,North,0,2.0,4.0,96,0.00,,,0.00,0,MyOwnSoftware,2013-11-02 00:27:00,
2013-11-02 00:28:00,44.6,43.8,29.60,NNW,338,2.0,4.0,97,0.00,,,0.00,0,MyOwnSoftware,2013-11-02 00:28:00,
2013-11-02 00:29:00,44.6,43.5,29.60,SSW,202,2.0,5.0,96,0.00,,,0.00,0,MyOwnSoftware,2013-11-02 00:29:00,
2013-11-02 00:30:00,44.6,43.8,29.60,South,180,2.0,3.0,97,0.00,,,0.00,0,MyOwnSoftware,2013-11-02 00:30:00,
2013-11-02 00:31:00,44.6,43.8,29.60,SSW,202,1.0,2.0,97,0.00,,,0.00,0,MyOwnSoftware,2013-11-02 00:31:00,
2013-11-02 00:32:00,44.6,43.5,29.60,SSW,202,1.0,3.0,96,0.00,,,0.00,0,MyOwnSoftware,2013-11-02 00:32:00,
2013-11-02 00:33:00,44.6,43.8,29.60,SSW,202,1.0,2.0,97,0.00,,,0.00,0,MyOwnSoftware,2013-11-02 00:33:00,
2013-11-02 00:34:00,44.6,43.8,29.60,SSW,202,0.0,1.0,97,0.00,,,0.00,0,MyOwnSoftware,2013-11-02 00:34:00,
2013-11-02 00:35:00,44.6,43.5,29.60,SSW,202,1.0,2.0,96,0.00,,,0.00,0,MyOwnSoftware,2013-11-02 00:35:00,
2013-11-02 00:36:00,44.6,44.0,29.60,SW,220,1.0,-999.0,97,-99.99,,,0.00,0,weatherlink.com 1.10,2013-11-02 00:36:00,
2013-11-02 00:37:00,44.6,43.5,29.60,SW,225,1.0,2.0,96,0.00,,,0.00,0,MyOwnSoftware,2013-11-02 00:37:00,
2013-11-02 00:38:00,44.6,43.8,29.60,NE,45,1.0,2.0,97,0.00,,,0.00,0,MyOwnSoftware,2013-11-02 00:38:00,
2013-11-02 00:39:00,44.6,43.5,29.60,NNE,22,0.0,1.0,96,0.00,,,0.00,0,MyOwnSoftware,2013-11-02 00:39:00,
2013-11-02 00:40:00,44.6,43.5,29.60,SE,135,2.0,6.0,96,0.00,,,0.00,0,MyOwnSoftware,2013-11-02 00:40:00,
2013-11-02 00:41:00,44.6,43.8,29.60,North,0,1.0,3.0,97,0.00,,,0.00,0,MyOwnSoftware,2013-11-02 00:41:00,
2013-11-02 00:42:00,44.5,43.7,29.60,North,0,1.0,3.0,97,0.00,,,0.00,0,MyOwnSoftware,2013-11-02 00:42:00,
2013-11-02 00:43:00,44.5,43.7,29.60,SW,225,1.0,3.0,97,0.00,,,0.00,0,MyOwnSoftware,2013-11-02 00:43:00,
2013-11-02 00:44:00,44.5,43.7,29.60,NNW,338,2.0,3.0,97,0.00,,,0.00,0,MyOwnSoftware,2013-11-02 00:44:00,
2013-11-02 00:45:00,44.5,43.7,29.59,SW,225,2.0,4.0,97,0.00,,,0.00,0,MyOwnSoftware,2013-11-02 00:45:00,
2013-11-02 00:46:00,44.5,43.7,29.59,SW,225,1.0,2.0,97,0.00,,,0.00,0,MyOwnSoftware,2013-11-02 00:46:00,
2013-11-02 00:47:00,44.5,43.7,29.59,SSW,202,0.0,1.0,97,0.00,,,0.00,0,MyOwnSoftware,2013-11-02 00:47:00,
2013-11-02 00:48:00,44.5,43.7,29.59,West,270,1.0,2.0,97,0.00,,,0.00,0,MyOwnSoftware,2013-11-02 00:48:00,
2013-11-02 00:49:00,44.5,43.7,29.59,SSW,202,1.0,2.0,97,0.00,,,0.00,0,MyOwnSoftware,2013-11-02 00:49:00,
2013-11-02 00:50:00,44.5,43.7,29.59,North,0,2.0,3.0,97,0.00,,,0.00,0,MyOwnSoftware,2013-11-02 00:50:00,
2013-11-02 00:51:00,44.5,44.0,29.59,NNW,343,3.0,-999.0,97,-99.99,,,0.00,0,weatherlink.com 1.10,2013-11-02 00:51:00,
2013-11-02 00:52:00,44.5,43.7,29.59,WSW,248,2.0,5.0,97,0.00,,,0.00,0,MyOwnSoftware,2013-11-02 00:52:00,
2013-11-02 00:53:00,44.5,43.7,29.59,SW,225,1.0,2.0,97,0.00,,,0.00,0,MyOwnSoftware,2013-11-02 00:53:00,
2013-11-02 00:54:00,44.5,43.7,29.59,SW,225,2.0,6.0,97,0.00,,,0.00,0,MyOwnSoftware,2013-11-02 00:54:00,
2013-11-02 00:55:00,44.5,43.7,29.59,NW,315,1.0,2.0,97,0.00,,,0.00,0,MyOwnSoftware,2013-11-02 00:55:00,
2013-11-02 00:56:00,44.5,43.7,29.59,WSW,248,2.0,5.0,97,0.00,,,0.00,0,MyOwnSoftware,2013-11-02 00:56:00,
2013-11-02 00:57:00,44.5,43.7,29.59,SW,225,2.0,5.0,97,0.00,,,0.00,0,MyOwnSoftware,2013-11-02 00:57:00,
2013-11-02 00:58:00,44.5,43.7,29.59,SSE,158,2.0,3.0,97,0.00,,,0.00,0,MyOwnSoftware,2013-11-02 00:58:00,
2013-11-02 00:59:00,44.5,43.7,29.59,WNW,292,2.0,5.0,97,0.00,,,0.00,0,MyOwnSoftware,2013-11-02 00:59:00,
2013-11-02 01:00:00,44.5,43.7,29.59,SSW,202,3.0,6.0,97,0.00,,,0.00,0,MyOwnSoftware,2013-11-02 01:00:00,
2013-11-02 01:01:00,44.5,43.4,29.59,SSE,158,1.0,3.0,96,0.00,,,0.00,0,MyOwnSoftware,2013-11-02 01:01:00,
2013-11-02 01:02:00,44.5,43.4,29.59,SSE,158,2.0,3.0,96,0.00,,,0.00,0,MyOwnSoftware,2013-11-02 01:02:00,
2013-11-02 01:03:00,44.5,43.4,29.59,WNW,292,1.0,3.0,96,0.00,,,0.00,0,MyOwnSoftware,2013-11-02 01:03:00,
2013-11-02 01:04:00,44.5,43.4,29.59,SSW,202,1.0,2.0,96,0.00,,,0.00,0,MyOwnSoftware,2013-11-02 01:04:00,
2013-11-02 01:05:00,44.5,43.4,29.59,West,270,1.0,3.0,96,0.00,,,0.00,0,MyOwnSoftware,2013-11-02 01:05:00,
2013-11-02 01:06:00,44.5,44.0,29.59,SE,141,2.0,-999.0,96,-99.99,,,0.00,0,weatherlink.com 1.10,2013-11-02 01:06:00,
2013-11-02 01:07:00,44.5,43.4,29.59,SE,135,2.0,3.0,96,0.00,,,0.00,0,MyOwnSoftware,2013-11-02 01:07:00,
2013-11-02 01:08:00,44.5,43.4,29.59,SE,135,3.0,7.0,96,0.00,,,0.00,0,MyOwnSoftware,2013-11-02 01:08:00,
2013-11-02 01:09:00,44.5,43.4,29.59,WSW,248,2.0,3.0,96,0.00,,,0.00,0,MyOwnSoftware,2013-11-02 01:09:00,
2013-11-02 01:10:00,44.5,43.4,29.59,NW,315,2.0,3.0,96,0.00,,,0.00,0,MyOwnSoftware,2013-11-02 01:10:00,
2013-11-02 01:11:00,44.5,43.4,29.59,SW,225,2.0,3.0,96,0.00,,,0.00,0,MyOwnSoftware,2013-11-02 01:11:00,
2013-11-02 01:12:00,44.5,43.4,29.59,WSW,248,2.0,5.0,96,0.00,,,0.00,0,MyOwnSoftware,2013-11-02 01:12:00,
2013-11-02 01:13:00,44.5,43.4,29.59,WSW,248,1.0,2.0,96,0.00,,,0.00,0,MyOwnSoftware,2013-11-02 01:13:00,
2013-11-02 01:14:00,44.5,43.4,29.59,WSW,248,2.0,2.0,96,0.00,,,0.00,0,MyOwnSoftware,2013-11-02 01:14:00,
2013-11-02 01:15:00,44.5,43.4,29.59,WSW,248,1.0,3.0,96,0.00,,,0.00,0,MyOwnSoftware,2013-11-02 01:15:00,
2013-11-02 01:16:00,44.5,43.4,29.59,SSW,202,2.0,6.0,96,0.00,,,0.00,0,MyOwnSoftware,2013-11-02 01:16:00,
2013-11-02 01:17:00,44.5,43.4,29.59,West,270,1.0,2.0,96,0.00,,,0.00,0,MyOwnSoftware,2013-11-02 01:17:00,
2013-11-02 01:18:00,44.5,43.4,29.59,WSW,248,1.0,3.0,96,0.00,,,0.00,0,MyOwnSoftware,2013-11-02 01:18:00,
2013-11-02 01:19:00,44.5,43.4,29.59,SW,225,1.0,2.0,96,0.00,,,0.00,0,MyOwnSoftware,2013-11-02 01:19:00,
2013-11-02 01:20:00,44.5,43.4,29.59,South,180,0.0,2.0,96,0.00,,,0.00,0,MyOwnSoftware,2013-11-02 01:20:00,
2013-11-02 01:21:00,44.5,44.0,29.59,SE,131,2.0,-999.0,96,-99.99,,,0.00,0,weatherlink.com 1.10,2013-11-02 01:21:00,
2013-11-02 01:22:00,44.5,43.4,29.59,SE,135,2.0,3.0,96,0.00,,,0.00,0,MyOwnSoftware,2013-11-02 01:22:00,
2013-11-02 01:23:00,44.5,43.4,29.59,NW,315,1.0,2.0,96,0.00,,,0.00,0,MyOwnSoftware,2013-11-02 01:23:00,
2013-11-02 01:24:00,44.5,43.4,29.59,WSW,248,1.0,5.0,96,0.00,,,0.00,0,MyOwnSoftware,2013-11-02 01:24:00,
2013-11-02 01:25:00,44.3,43.2,29.59,SSW,202,1.0,4.0,96,0.00,,,0.00,0,MyOwnSoftware,2013-11-02 01:25:00,
2013-11-02 01:26:00,44.3,43.2,29.59,WSW,248,1.0,3.0,96,0.00,,,0.00,0,MyOwnSoftware,2013-11-02 01:26:00,
2013-11-02 01:27:00,44.3,43.2,29.59,WSW,248,1.0,1.0,96,0.00,,,0.00,0,MyOwnSoftware,2013-11-02 01:27:00,
2013-11-02 01:28:00,44.3,43.2,29.59,WSW,248,0.0,2.0,96,0.00,,,0.00,0,MyOwnSoftware,2013-11-02 01:28:00,
2013-11-02 01:29:00,44.3,43.2,29.59,SW,225,1.0,2.0,96,0.00,,,0.00,0,MyOwnSoftware,2013-11-02 01:29:00,
2013-11-02 01:30:00,44.3,43.2,29.60,West,270,2.0,3.0,96,0.00,,,0.00,0,MyOwnSoftware,2013-11-02 01:30:00,
2013-11-02 01:31:00,44.3,43.0,29.60,WNW,292,0.0,2.0,95,0.00,,,0.00,0,MyOwnSoftware,2013-11-02 01:31:00,
2013-11-02 01:32:00,44.2,42.9,29.60,WNW,292,1.0,2.0,95,0.00,,,0.00,0,MyOwnSoftware,2013-11-02 01:32:00,
2013-11-02 01:33:00,44.2,42.9,29.60,SW,225,0.0,2.0,95,0.00,,,0.00,0,MyOwnSoftware,2013-11-02 01:33:00,
2013-11-02 01:34:00,44.2,42.9,29.60,South,180,1.0,2.0,95,0.00,,,0.00,0,MyOwnSoftware,2013-11-02 01:34:00,
2013-11-02 01:35:00,44.2,42.9,29.60,SSW,202,0.0,2.0,95,0.00,,,0.00,0,MyOwnSoftware,2013-11-02 01:35:00,
2013-11-02 01:36:00,44.2,43.0,29.60,SW,234,0.0,-999.0,95,-99.99,,,0.00,0,weatherlink.com 1.10,2013-11-02 01:36:00,
2013-11-02 01:37:00,44.2,42.9,29.60,SW,225,1.0,2.0,95,0.00,,,0.00,0,MyOwnSoftware,2013-11-02 01:37:00,
2013-11-02 01:38:00,44.2,42.9,29.60,SSW,202,2.0,3.0,95,0.00,,,0.00,0,MyOwnSoftware,2013-11-02 01:38:00,
2013-11-02 01:39:00,44.1,42.8,29.60,SW,225,2.0,3.0,95,0.00,,,0.00,0,MyOwnSoftware,2013-11-02 01:39:00,
2013-11-02 01:40:00,44.1,42.8,29.60,SW,225,1.0,2.0,95,0.00,,,0.00,0,MyOwnSoftware,2013-11-02 01:40:00,
2013-11-02 01:41:00,44.1,42.8,29.60,SSW,202,1.0,2.0,95,0.00,,,0.00,0,MyOwnSoftware,2013-11-02 01:41:00,
2013-11-02 01:42:00,44.1,42.8,29.60,SSW,202,2.0,3.0,95,0.00,,,0.00,0,MyOwnSoftware,2013-11-02 01:42:00,
2013-11-02 01:43:00,44.1,42.8,29.60,SSW,202,1.0,2.0,95,0.00,,,0.00,0,MyOwnSoftware,2013-11-02 01:43:00,
2013-11-02 01:44:00,44.1,42.8,29.60,South,180,0.0,2.0,95,0.00,,,0.00,0,MyOwnSoftware,2013-11-02 01:44:00,
2013-11-02 01:45:00,44.1,42.8,29.59,SW,225,0.0,2.0,95,0.00,,,0.00,0,MyOwnSoftware,2013-11-02 01:45:00,
2013-11-02 01:46:00,44.1,42.8,29.59,SW,225,1.0,2.0,95,0.00,,,0.00,0,MyOwnSoftware,2013-11-02 01:46:00,
2013-11-02 01:47:00,43.9,42.6,29.59,SW,225,1.0,4.0,95,0.00,,,0.00,0,MyOwnSoftware,2013-11-02 01:47:00,
2013-11-02 01:48:00,43.9,42.6,29.59,WSW,248,0.0,2.0,95,0.00,,,0.00,0,MyOwnSoftware,2013-11-02 01:48:00,
2013-11-02 01:49:00,43.9,42.6,29.59,SW,225,1.0,2.0,95,0.00,,,0.00,0,MyOwnSoftware,2013-11-02 01:49:00,
2013-11-02 01:50:00,43.9,42.6,29.59,West,270,1.0,2.0,95,0.00,,,0.00,0,MyOwnSoftware,2013-11-02 01:50:00,
2013-11-02 01:51:00,43.9,43.0,29.59,West,268,0.0,-999.0,95,-99.99,,,0.00,0,weatherlink.com 1.10,2013-11-02 01:51:00,
2013-11-02 01:52:00,43.9,42.6,29.59,SW,225,0.0,1.0,95,0.00,,,0.00,0,MyOwnSoftware,2013-11-02 01:52:00,
2013-11-02 01:53:00,43.9,42.6,29.59,WSW,248,1.0,2.0,95,0.00,,,0.00,0,MyOwnSoftware,2013-11-02 01:53:00,
2013-11-02 01:54:00,43.8,42.5,29.59,North,0,0.0,0.0,95,0.00,,,0.00,0,MyOwnSoftware,2013-11-02 01:54:00,
2013-11-02 01:55:00,43.8,42.5,29.59,WSW,248,0.0,2.0,95,0.00,,,0.00,0,MyOwnSoftware,2013-11-02 01:55:00,
2013-11-02 01:56:00,43.8,42.5,29.59,North,0,0.0,0.0,95,0.00,,,0.00,0,MyOwnSoftware,2013-11-02 01:56:00,
2013-11-02 01:57:00,43.8,42.5,29.59,SW,225,1.0,2.0,95,0.00,,,0.00,0,MyOwnSoftware,2013-11-02 01:57:00,
2013-11-02 01:58:00,43.8,42.5,29.59,SW,225,0.0,2.0,95,0.00,,,0.00,0,MyOwnSoftware,2013-11-02 01:58:00,
2013-11-02 01:59:00,43.8,42.5,29.59,SW,225,0.0,1.0,95,0.00,,,0.00,0,MyOwnSoftware,2013-11-02 01:59:00,
2013-11-02 02:00:00,43.8,42.5,29.59,SW,225,0.0,2.0,95,0.00,,,0.00,0,MyOwnSoftware,2013-11-02 02:00:00,
2013-11-02 02:01:00,43.8,42.5,29.59,WSW,248,1.0,2.0,95,0.00,,,0.00,0,MyOwnSoftware,2013-11-02 02:01:00,
2013-11-02 02:02:00,43.6,42.3,29.59,SW,225,0.0,1.0,95,0.00,,,0.00,0,MyOwnSoftware,2013-11-02 02:02:00,
2013-11-02 02:03:00,43.6,42.3,29.59,South,180,1.0,2.0,95,0.00,,,0.00,0,MyOwnSoftware,2013-11-02 02:03:00,
2013-11-02 02:04:00,43.6,42.3,29.59,South,180,0.0,1.0,95,0.00,,,0.00,0,MyOwnSoftware,2013-11-02 02:04:00,
2013-11-02 02:05:00,43.6,42.3,29.59,North,0,0.0,0.0,95,0.00,,,0.00,0,MyOwnSoftware,2013-11-02 02:05:00,
2013-11-02 02:06:00,43.6,42.0,29.59,South,181,1.0,-999.0,95,-99.99,,,0.00,0,weatherlink.com 1.10,2013-11-02 02:06:00,
2013-11-02 02:07:00,43.6,42.3,29.59,South,180,0.0,1.0,95,0.00,,,0.00,0,MyOwnSoftware,2013-11-02 02:07:00,
2013-11-02 02:08:00,43.6,42.3,29.59,South,180,0.0,1.0,95,0.00,,,0.00,0,MyOwnSoftware,2013-11-02 02:08:00,
2013-11-02 02:09:00,43.6,42.3,29.59,North,0,0.0,0.0,95,0.00,,,0.00,0,MyOwnSoftware,2013-11-02 02:09:00,
2013-11-02 02:10:00,43.5,42.4,29.59,North,0,0.0,0.0,96,0.00,,,0.00,0,MyOwnSoftware,2013-11-02 02:10:00,
2013-11-02 02:11:00,43.5,42.4,29.59,North,0,0.0,0.0,96,0.00,,,0.00,0,MyOwnSoftware,2013-11-02 02:11:00,
2013-11-02 02:12:00,43.5,42.4,29.59,North,0,0.0,0.0,96,0.00,,,0.00,0,MyOwnSoftware,2013-11-02 02:12:00,
2013-11-02 02:13:00,43.5,42.4,29.59,North,0,0.0,0.0,96,0.00,,,0.00,0,MyOwnSoftware,2013-11-02 02:13:00,
2013-11-02 02:14:00,43.5,42.4,29.59,North,0,0.0,0.0,96,0.00,,,0.00,0,MyOwnSoftware,2013-11-02 02:14:00,
2013-11-02 02:15:00,43.5,42.4,29.58,North,0,0.0,0.0,96,0.00,,,0.00,0,MyOwnSoftware,2013-11-02 02:15:00,
2013-11-02 02:16:00,43.5,42.4,29.58,North,0,0.0,0.0,96,0.00,,,0.00,0,MyOwnSoftware,2013-11-02 02:16:00,
2013-11-02 02:17:00,43.5,42.4,29.58,North,0,0.0,0.0,96,0.00,,,0.00,0,MyOwnSoftware,2013-11-02 02:17:00,
2013-11-02 02:18:00,43.5,42.4,29.58,North,0,0.0,0.0,96,0.00,,,0.00,0,MyOwnSoftware,2013-11-02 02:18:00,
2013-11-02 02:19:00,43.5,42.4,29.58,North,0,0.0,0.0,96,0.00,,,0.00,0,MyOwnSoftware,2013-11-02 02:19:00,
2013-11-02 02:20:00,43.3,42.2,29.58,North,0,0.0,0.0,96,0.00,,,0.00,0,MyOwnSoftware,2013-11-02 02:20:00,
2013-11-02 02:21:00,43.3,42.0,29.58,South,181,0.0,-999.0,96,-99.99,,,0.00,0,weatherlink.com 1.10,2013-11-02 02:21:00,
2013-11-02 02:22:00,43.3,42.2,29.58,North,0,0.0,0.0,96,0.00,,,0.00,0,MyOwnSoftware,2013-11-02 02:22:00,
2013-11-02 02:23:00,43.3,42.2,29.58,North,0,0.0,0.0,96,0.00,,,0.00,0,MyOwnSoftware,2013-11-02 02:23:00,
2013-11-02 02:24:00,43.3,42.2,29.58,North,0,0.0,0.0,96,0.00,,,0.00,0,MyOwnSoftware,2013-11-02 02:24:00,
2013-11-02 02:25:00,43.3,42.2,29.58,North,0,0.0,0.0,96,0.00,,,0.00,0,MyOwnSoftware,2013-11-02 02:25:00,
2013-11-02 02:26:00,43.3,42.2,29.58,North,0,0.0,0.0,96,0.00,,,0.00,0,MyOwnSoftware,2013-11-02 02:26:00,
2013-11-02 02:27:00,43.3,42.2,29.58,North,0,0.0,0.0,96,0.00,,,0.00,0,MyOwnSoftware,2013-11-02 02:27:00,
2013-11-02 02:28:00,43.2,42.1,29.58,North,0,0.0,0.0,96,0.00,,,0.00,0,MyOwnSoftware,2013-11-02 02:28:00,
2013-11-02 02:29:00,43.2,42.1,29.58,North,0,0.0,0.0,96,0.00,,,0.00,0,MyOwnSoftware,2013-11-02 02:29:00,
2013-11-02 02:30:00,43.2,42.1,29.57,South,180,1.0,2.0,96,0.00,,,0.00,0,MyOwnSoftware,2013-11-02 02:30:00,
2013-11-02 02:31:00,43.2,42.1,29.57,South,180,1.0,2.0,96,0.00,,,0.00,0,MyOwnSoftware,2013-11-02 02:31:00,
2013-11-02 02:32:00,43.2,42.1,29.57,South,180,1.0,3.0,96,0.00,,,0.00,0,MyOwnSoftware,2013-11-02 02:32:00,
2013-11-02 02:33:00,43.2,42.1,29.57,South,180,1.0,2.0,96,0.00,,,0.00,0,MyOwnSoftware,2013-11-02 02:33:00,
2013-11-02 02:34:00,43.2,42.1,29.57,South,180,1.0,2.0,96,0.00,,,0.00,0,MyOwnSoftware,2013-11-02 02:34:00,
2013-11-02 02:35:00,43.2,42.1,29.57,South,180,0.0,1.0,96,0.00,,,0.00,0,MyOwnSoftware,2013-11-02 02:35:00,
2013-11-02 02:36:00,43.1,42.0,29.57,South,174,0.0,-999.0,96,-99.99,,,0.00,0,weatherlink.com 1.10,2013-11-02 02:36:00,
2013-11-02 02:37:00,43.1,42.0,29.57,South,180,0.0,1.0,96,0.00,,,0.00,0,MyOwnSoftware,2013-11-02 02:37:00,
2013-11-02 02:38:00,43.1,42.0,29.57,South,180,0.0,1.0,96,0.00,,,0.00,0,MyOwnSoftware,2013-11-02 02:38:00,
2013-11-02 02:39:00,43.1,42.0,29.57,North,0,0.0,0.0,96,0.00,,,0.00,0,MyOwnSoftware,2013-11-02 02:39:00,
2013-11-02 02:40:00,43.1,42.0,29.57,North,0,0.0,0.0,96,0.00,,,0.00,0,MyOwnSoftware,2013-11-02 02:40:00,
2013-11-02 02:41:00,43.1,42.0,29.57,North,0,0.0,0.0,96,0.00,,,0.00,0,MyOwnSoftware,2013-11-02 02:41:00,
2013-11-02 02:42:00,43.1,42.0,29.57,North,0,0.0,0.0,96,0.00,,,0.00,0,MyOwnSoftware,2013-11-02 02:42:00,
2013-11-02 02:43:00,42.9,41.8,29.57,North,0,0.0,0.0,96,0.00,,,0.00,0,MyOwnSoftware,2013-11-02 02:43:00,
2013-11-02 02:44:00,42.9,41.8,29.57,North,0,0.0,0.0,96,0.00,,,0.00,0,MyOwnSoftware,2013-11-02 02:44:00,
2013-11-02 02:45:00,42.9,41.8,29.57,North,0,0.0,0.0,96,0.00,,,0.00,0,MyOwnSoftware,2013-11-02 02:45:00,
2013-11-02 02:46:00,42.9,41.8,29.57,North,0,0.0,0.0,96,0.00,,,0.00,0,MyOwnSoftware,2013-11-02 02:46:00,
2013-11-02 02:47:00,42.9,41.8,29.57,North,0,0.0,0.0,96,0.00,,,0.00,0,MyOwnSoftware,2013-11-02 02:47:00,
2013-11-02 02:48:00,42.8,41.7,29.57,North,0,0.0,0.0,96,0.00,,,0.00,0,MyOwnSoftware,2013-11-02 02:48:00,
2013-11-02 02:49:00,42.8,42.0,29.57,North,0,0.0,0.0,97,0.00,,,0.00,0,MyOwnSoftware,2013-11-02 02:49:00,
2013-11-02 02:50:00,42.8,42.0,29.57,North,0,0.0,0.0,97,0.00,,,0.00,0,MyOwnSoftware,2013-11-02 02:50:00,
2013-11-02 02:51:00,42.8,42.0,29.57,South,174,0.0,-999.0,97,-99.99,,,0.00,0,weatherlink.com 1.10,2013-11-02 02:51:00,
2013-11-02 02:52:00,42.8,42.0,29.57,North,0,0.0,0.0,97,0.00,,,0.00,0,MyOwnSoftware,2013-11-02 02:52:00,
2013-11-02 02:53:00,42.6,41.8,29.57,North,0,0.0,0.0,97,0.00,,,0.00,0,MyOwnSoftware,2013-11-02 02:53:00,
2013-11-02 02:54:00,42.6,41.8,29.57,North,0,0.0,0.0,97,0.00,,,0.00,0,MyOwnSoftware,2013-11-02 02:54:00,
2013-11-02 02:55:00,42.6,41.8,29.57,North,0,0.0,0.0,97,0.00,,,0.00,0,MyOwnSoftware,2013-11-02 02:55:00,
2013-11-02 02:56:00,42.6,41.8,29.57,North,0,0.0,0.0,97,0.00,,,0.00,0,MyOwnSoftware,2013-11-02 02:56:00,
2013-11-02 02:57:00,42.5,41.7,29.57,North,0,0.0,0.0,97,0.00,,,0.00,0,MyOwnSoftware,2013-11-02 02:57:00,
2013-11-02 02:58:00,42.5,41.7,29.57,North,0,0.0,0.0,97,0.00,,,0.00,0,MyOwnSoftware,2013-11-02 02:58:00,
2013-11-02 02:59:00,42.5,41.7,29.57,North,0,0.0,0.0,97,0.00,,,0.00,0,MyOwnSoftware,2013-11-02 02:59:00,
2013-11-02 03:00:00,42.5,41.7,29.57,North,0,0.0,0.0,97,0.00,,,0.00,0,MyOwnSoftware,2013-11-02 03:00:00,
2013-11-02 03:01:00,42.3,41.8,29.57,North,0,0.0,0.0,98,0.00,,,0.00,0,MyOwnSoftware,2013-11-02 03:01:00,
2013-11-02 03:02:00,42.3,41.8,29.57,North,0,0.0,0.0,98,0.00,,,0.00,0,MyOwnSoftware,2013-11-02 03:02:00,
2013-11-02 03:03:00,42.3,41.8,29.57,North,0,0.0,0.0,98,0.00,,,0.00,0,MyOwnSoftware,2013-11-02 03:03:00,
2013-11-02 03:04:00,42.3,41.8,29.57,North,0,0.0,0.0,98,0.00,,,0.00,0,MyOwnSoftware,2013-11-02 03:04:00,
2013-11-02 03:05:00,42.3,41.8,29.57,North,0,0.0,0.0,98,0.00,,,0.00,0,MyOwnSoftware,2013-11-02 03:05:00,
2013-11-02 03:06:00,42.3,42.0,29.57,South,174,0.0,-999.0,98,-99.99,,,0.00,0,weatherlink.com 1.10,2013-11-02 03:06:00,
2013-11-02 03:07:00,42.3,41.8,29.57,North,0,0.0,0.0,98,0.00,,,0.00,0,MyOwnSoftware,2013-11-02 03:07:00,
2013-11-02 03:08:00,42.3,41.8,29.57,South,180,1.0,2.0,98,0.00,,,0.00,0,MyOwnSoftware,2013-11-02 03:08:00,
2013-11-02 03:09:00,42.3,41.8,29.57,South,180,1.0,2.0,98,0.00,,,0.00,0,MyOwnSoftware,2013-11-02 03:09:00,
2013-11-02 03:10:00,42.2,41.7,29.57,South,180,1.0,2.0,98,0.00,,,0.00,0,MyOwnSoftware,2013-11-02 03:10:00,
2013-11-02 03:11:00,42.2,41.9,29.57,South,180,1.0,3.0,99,0.00,,,0.00,0,MyOwnSoftware,2013-11-02 03:11:00,
2013-11-02 03:12:00,42.2,41.9,29.57,East,90,2.0,3.0,99,0.00,,,0.00,0,MyOwnSoftware,2013-11-02 03:12:00,
2013-11-02 03:13:00,42.1,41.8,29.57,East,90,0.0,1.0,99,0.00,,,0.00,0,MyOwnSoftware,2013-11-02 03:13:00,
2013-11-02 03:14:00,42.1,41.8,29.57,North,0,0.0,0.0,99,0.00,,,0.00,0,MyOwnSoftware,2013-11-02 03:14:00,
2013-11-02 03:15:00,42.1,41.8,29.56,North,0,0.0,0.0,99,0.00,,,0.00,0,MyOwnSoftware,2013-11-02 03:15:00,
2013-11-02 03:16:00,42.1,41.8,29.56,North,0,0.0,0.0,99,0.00,,,0.00,0,MyOwnSoftware,2013-11-02 03:16:00,
2013-11-02 03:17:00,41.9,41.6,29.56,North,0,0.0,0.0,99,0.00,,,0.00,0,MyOwnSoftware,2013-11-02 03:17:00,
2013-11-02 03:18:00,41.9,41.6,29.56,North,0,0.0,0.0,99,0.00,,,0.00,0,MyOwnSoftware,2013-11-02 03:18:00,
2013-11-02 03:19:00,41.9,41.6,29.56,North,0,0.0,0.0,99,0.00,,,0.00,0,MyOwnSoftware,2013-11-02 03:19:00,
2013-11-02 03:20:00,41.9,41.6,29.56,North,0,0.0,0.0,99,0.00,,,0.00,0,MyOwnSoftware,2013-11-02 03:20:00,
2013-11-02 03:21:00,41.8,42.0,29.56,East,83,0.0,-999.0,99,-99.99,,,0.00,0,weatherlink.com 1.10,2013-11-02 03:21:00,
2013-11-02 03:22:00,41.8,41.5,29.56,North,0,0.0,0.0,99,0.00,,,0.00,0,MyOwnSoftware,2013-11-02 03:22:00,
2013-11-02 03:23:00,41.8,41.5,29.56,North,0,0.0,0.0,99,0.00,,,0.00,0,MyOwnSoftware,2013-11-02 03:23:00,
2013-11-02 03:24:00,41.8,41.5,29.56,North,0,0.0,0.0,99,0.00,,,0.00,0,MyOwnSoftware,2013-11-02 03:24:00,
2013-11-02 03:25:00,41.8,41.5,29.56,North,0,0.0,0.0,99,0.00,,,0.00,0,MyOwnSoftware,2013-11-02 03:25:00,
2013-11-02 03:26:00,41.8,41.5,29.56,North,0,0.0,0.0,99,0.00,,,0.00,0,MyOwnSoftware,2013-11-02 03:26:00,
2013-11-02 03:27:00,41.6,41.3,29.56,North,0,0.0,0.0,99,0.00,,,0.00,0,MyOwnSoftware,2013-11-02 03:27:00,
2013-11-02 03:28:00,41.6,41.3,29.56,North,0,0.0,0.0,99,0.00,,,0.00,0,MyOwnSoftware,2013-11-02 03:28:00,
2013-11-02 03:29:00,41.6,41.3,29.56,North,0,0.0,0.0,99,0.00,,,0.00,0,MyOwnSoftware,2013-11-02 03:29:00,
2013-11-02 03:30:00,41.6,41.3,29.55,North,0,0.0,0.0,99,0.00,,,0.00,0,MyOwnSoftware,2013-11-02 03:30:00,
2013-11-02 03:31:00,41.6,41.3,29.55,North,0,0.0,0.0,99,0.00,,,0.00,0,MyOwnSoftware,2013-11-02 03:31:00,
2013-11-02 03:32:00,41.6,41.3,29.55,North,0,0.0,0.0,99,0.00,,,0.00,0,MyOwnSoftware,2013-11-02 03:32:00,
2013-11-02 03:33:00,41.5,41.2,29.55,North,0,0.0,0.0,99,0.00,,,0.00,0,MyOwnSoftware,2013-11-02 03:33:00,
2013-11-02 03:34:00,41.5,41.2,29.55,North,0,0.0,0.0,99,0.00,,,0.00,0,MyOwnSoftware,2013-11-02 03:34:00,
2013-11-02 03:35:00,41.5,41.2,29.55,North,0,0.0,0.0,99,0.00,,,0.00,0,MyOwnSoftware,2013-11-02 03:35:00,
2013-11-02 03:36:00,41.3,41.0,29.55,East,83,0.0,-999.0,99,-99.99,,,0.00,0,weatherlink.com 1.10,2013-11-02 03:36:00,
2013-11-02 03:37:00,41.3,41.3,29.55,North,0,0.0,0.0,100,0.00,,,0.00,0,MyOwnSoftware,2013-11-02 03:37:00,
2013-11-02 03:38:00,41.3,41.3,29.55,North,0,0.0,0.0,100,0.00,,,0.00,0,MyOwnSoftware,2013-11-02 03:38:00,
2013-11-02 03:39:00,41.3,41.3,29.55,North,0,0.0,0.0,100,0.00,,,0.00,0,MyOwnSoftware,2013-11-02 03:39:00,
2013-11-02 03:40:00,41.3,41.3,29.55,North,0,0.0,0.0,100,0.00,,,0.00,0,MyOwnSoftware,2013-11-02 03:40:00,
2013-11-02 03:41:00,41.2,41.2,29.55,North,0,0.0,0.0,100,0.00,,,0.00,0,MyOwnSoftware,2013-11-02 03:41:00,
2013-11-02 03:42:00,41.2,41.2,29.55,North,0,0.0,0.0,100,0.00,,,0.00,0,MyOwnSoftware,2013-11-02 03:42:00,
2013-11-02 03:43:00,41.2,41.2,29.55,North,0,0.0,0.0,100,0.00,,,0.00,0,MyOwnSoftware,2013-11-02 03:43:00,
2013-11-02 03:44:00,41.2,41.2,29.55,North,0,0.0,0.0,100,0.00,,,0.00,0,MyOwnSoftware,2013-11-02 03:44:00,
2013-11-02 03:45:00,41.1,41.1,29.56,North,0,0.0,0.0,100,0.00,,,0.00,0,MyOwnSoftware,2013-11-02 03:45:00,
2013-11-02 03:46:00,41.1,41.1,29.56,North,0,0.0,0.0,100,0.00,,,0.00,0,MyOwnSoftware,2013-11-02 03:46:00,
2013-11-02 03:47:00,41.1,41.1,29.56,North,0,0.0,0.0,100,0.00,,,0.00,0,MyOwnSoftware,2013-11-02 03:47:00,
2013-11-02 03:48:00,41.1,41.1,29.56,North,0,0.0,0.0,100,0.00,,,0.00,0,MyOwnSoftware,2013-11-02 03:48:00,
2013-11-02 03:49:00,41.1,41.1,29.56,North,0,0.0,0.0,100,0.00,,,0.00,0,MyOwnSoftware,2013-11-02 03:49:00,
2013-11-02 03:50:00,41.1,41.1,29.56,North,0,0.0,0.0,100,0.00,,,0.00,0,MyOwnSoftware,2013-11-02 03:50:00,
2013-11-02 03:51:00,41.1,41.0,29.56,East,83,0.0,-999.0,100,-99.99,,,0.00,0,weatherlink.com 1.10,2013-11-02 03:51:00,
2013-11-02 03:52:00,41.1,41.1,29.56,North,0,0.0,0.0,100,0.00,,,0.00,0,MyOwnSoftware,2013-11-02 03:52:00,
2013-11-02 03:53:00,40.9,40.9,29.56,North,0,0.0,0.0,100,0.00,,,0.00,0,MyOwnSoftware,2013-11-02 03:53:00,
2013-11-02 03:54:00,40.9,40.9,29.56,North,0,0.0,0.0,100,0.00,,,0.00,0,MyOwnSoftware,2013-11-02 03:54:00,
2013-11-02 03:55:00,40.9,40.9,29.56,North,0,0.0,0.0,100,0.00,,,0.00,0,MyOwnSoftware,2013-11-02 03:55:00,
2013-11-02 03:56:00,40.9,40.9,29.56,North,0,0.0,0.0,100,0.00,,,0.00,0,MyOwnSoftware,2013-11-02 03:56:00,
2013-11-02 03:57:00,40.9,40.9,29.56,North,0,0.0,0.0,100,0.00,,,0.00,0,MyOwnSoftware,2013-11-02 03:57:00,
2013-11-02 03:58:00,40.8,40.8,29.56,North,0,0.0,0.0,100,0.00,,,0.00,0,MyOwnSoftware,2013-11-02 03:58:00,
2013-11-02 03:59:00,40.8,40.8,29.56,North,0,0.0,0.0,100,0.00,,,0.00,0,MyOwnSoftware,2013-11-02 03:59:00,
2013-11-02 04:00:00,40.8,40.8,29.55,North,0,0.0,0.0,100,0.00,,,0.00,0,MyOwnSoftware,2013-11-02 04:00:00,
2013-11-02 04:01:00,40.8,40.8,29.55,North,0,0.0,0.0,100,0.00,,,0.00,0,MyOwnSoftware,2013-11-02 04:01:00,
2013-11-02 04:02:00,40.8,40.8,29.55,North,0,0.0,0.0,100,0.00,,,0.00,0,MyOwnSoftware,2013-11-02 04:02:00,
2013-11-02 04:03:00,40.6,40.6,29.55,North,0,0.0,0.0,100,0.00,,,0.00,0,MyOwnSoftware,2013-11-02 04:03:00,
2013-11-02 04:04:00,40.6,40.6,29.55,North,0,0.0,0.0,100,0.00,,,0.00,0,MyOwnSoftware,2013-11-02 04:04:00,
2013-11-02 04:05:00,40.6,40.6,29.55,North,0,0.0,0.0,100,0.00,,,0.00,0,MyOwnSoftware,2013-11-02 04:05:00,
2013-11-02 04:06:00,40.6,41.0,29.55,East,83,0.0,-999.0,100,-99.99,,,0.00,0,weatherlink.com 1.10,2013-11-02 04:06:00,
2013-11-02 04:07:00,40.6,40.6,29.55,North,0,0.0,0.0,100,0.00,,,0.00,0,MyOwnSoftware,2013-11-02 04:07:00,
2013-11-02 04:08:00,40.5,40.5,29.55,North,0,0.0,0.0,100,0.00,,,0.00,0,MyOwnSoftware,2013-11-02 04:08:00,
2013-11-02 04:09:00,40.5,40.5,29.55,North,0,0.0,0.0,100,0.00,,,0.00,0,MyOwnSoftware,2013-11-02 04:09:00,
2013-11-02 04:10:00,40.5,40.5,29.55,North,0,0.0,0.0,100,0.00,,,0.00,0,MyOwnSoftware,2013-11-02 04:10:00,
2013-11-02 04:11:00,40.5,40.5,29.55,North,0,0.0,0.0,100,0.00,,,0.00,0,MyOwnSoftware,2013-11-02 04:11:00,
2013-11-02 04:12:00,40.5,40.5,29.55,North,0,0.0,0.0,100,0.00,,,0.00,0,MyOwnSoftware,2013-11-02 04:12:00,
2013-11-02 04:13:00,40.5,40.5,29.55,North,0,0.0,0.0,100,0.00,,,0.00,0,MyOwnSoftware,2013-11-02 04:13:00,
2013-11-02 04:14:00,40.3,40.3,29.55,North,0,0.0,0.0,100,0.00,,,0.00,0,MyOwnSoftware,2013-11-02 04:14:00,
2013-11-02 04:15:00,40.3,40.3,29.55,North,0,0.0,0.0,100,0.00,,,0.00,0,MyOwnSoftware,2013-11-02 04:15:00,
2013-11-02 04:16:00,40.3,40.3,29.55,North,0,0.0,0.0,100,0.00,,,0.00,0,MyOwnSoftware,2013-11-02 04:16:00,
2013-11-02 04:17:00,40.3,40.3,29.55,East,90,1.0,2.0,100,0.00,,,0.00,0,MyOwnSoftware,2013-11-02 04:17:00,
2013-11-02 04:18:00,40.3,40.3,29.55,East,90,1.0,2.0,100,0.00,,,0.00,0,MyOwnSoftware,2013-11-02 04:18:00,
2013-11-02 04:19:00,40.3,40.3,29.55,East,90,1.0,3.0,100,0.00,,,0.00,0,MyOwnSoftware,2013-11-02 04:19:00,
2013-11-02 04:20:00,40.2,40.2,29.55,East,90,1.0,2.0,100,0.00,,,0.00,0,MyOwnSoftware,2013-11-02 04:20:00,
2013-11-02 04:21:00,40.2,40.0,29.55,East,83,2.0,-999.0,100,-99.99,,,0.00,0,weatherlink.com 1.10,2013-11-02 04:21:00,
2013-11-02 04:22:00,40.2,40.2,29.55,East,90,2.0,2.0,100,0.00,,,0.00,0,MyOwnSoftware,2013-11-02 04:22:00,
2013-11-02 04:23:00,40.2,40.2,29.55,East,90,0.0,1.0,100,0.00,,,0.00,0,MyOwnSoftware,2013-11-02 04:23:00,
2013-11-02 04:24:00,40.2,40.2,29.55,North,0,0.0,0.0,100,0.00,,,0.00,0,MyOwnSoftware,2013-11-02 04:24:00,
2013-11-02 04:25:00,40.2,40.2,29.55,North,0,0.0,0.0,100,0.00,,,0.00,0,MyOwnSoftware,2013-11-02 04:25:00,
2013-11-02 04:26:00,40.2,40.2,29.55,North,0,0.0,0.0,100,0.00,,,0.00,0,MyOwnSoftware,2013-11-02 04:26:00,
2013-11-02 04:27:00,40.1,40.1,29.55,North,0,0.0,0.0,100,0.00,,,0.00,0,MyOwnSoftware,2013-11-02 04:27:00,
2013-11-02 04:28:00,40.1,40.1,29.55,North,0,0.0,0.0,100,0.00,,,0.00,0,MyOwnSoftware,2013-11-02 04:28:00,
2013-11-02 04:29:00,40.1,40.1,29.55,North,0,0.0,0.0,100,0.00,,,0.00,0,MyOwnSoftware,2013-11-02 04:29:00,
2013-11-02 04:30:00,40.1,40.1,29.55,North,0,0.0,0.0,100,0.00,,,0.00,0,MyOwnSoftware,2013-11-02 04:30:00,
2013-11-02 04:31:00,40.1,40.1,29.55,North,0,0.0,0.0,100,0.00,,,0.00,0,MyOwnSoftware,2013-11-02 04:31:00,
2013-11-02 04:32:00,40.1,40.1,29.55,North,0,0.0,0.0,100,0.00,,,0.00,0,MyOwnSoftware,2013-11-02 04:32:00,
2013-11-02 04:33:00,40.1,40.1,29.55,North,0,0.0,0.0,100,0.00,,,0.00,0,MyOwnSoftware,2013-11-02 04:33:00,
2013-11-02 04:34:00,40.1,40.1,29.55,North,0,0.0,0.0,100,0.00,,,0.00,0,MyOwnSoftware,2013-11-02 04:34:00,
2013-11-02 04:35:00,40.1,40.1,29.55,North,0,0.0,0.0,100,0.00,,,0.00,0,MyOwnSoftware,2013-11-02 04:35:00,
2013-11-02 04:36:00,39.9,40.0,29.55,East,83,0.0,-999.0,100,-99.99,,,0.00,0,weatherlink.com 1.10,2013-11-02 04:36:00,
2013-11-02 04:37:00,39.9,39.9,29.55,East,90,0.0,1.0,100,0.00,,,0.00,0,MyOwnSoftware,2013-11-02 04:37:00,
2013-11-02 04:38:00,39.9,39.9,29.55,North,0,0.0,0.0,100,0.00,,,0.00,0,MyOwnSoftware,2013-11-02 04:38:00,
2013-11-02 04:39:00,39.9,39.9,29.55,North,0,0.0,0.0,100,0.00,,,0.00,0,MyOwnSoftware,2013-11-02 04:39:00,
2013-11-02 04:40:00,39.9,39.9,29.55,North,0,0.0,0.0,100,0.00,,,0.00,0,MyOwnSoftware,2013-11-02 04:40:00,
2013-11-02 04:41:00,39.9,39.9,29.55,North,0,0.0,0.0,100,0.00,,,0.00,0,MyOwnSoftware,2013-11-02 04:41:00,
2013-11-02 04:42:00,39.9,39.9,29.55,North,0,0.0,0.0,100,0.00,,,0.00,0,MyOwnSoftware,2013-11-02 04:42:00,
2013-11-02 04:43:00,39.9,39.9,29.55,North,0,0.0,0.0,100,0.00,,,0.00,0,MyOwnSoftware,2013-11-02 04:43:00,
2013-11-02 04:44:00,39.9,39.9,29.55,North,0,0.0,0.0,100,0.00,,,0.00,0,MyOwnSoftware,2013-11-02 04:44:00,
2013-11-02 04:45:00,39.9,39.9,29.54,North,0,0.0,0.0,100,0.00,,,0.00,0,MyOwnSoftware,2013-11-02 04:45:00,
2013-11-02 04:46:00,39.9,39.9,29.54,North,0,0.0,0.0,100,0.00,,,0.00,0,MyOwnSoftware,2013-11-02 04:46:00,
2013-11-02 04:47:00,39.9,39.9,29.54,North,0,0.0,0.0,100,0.00,,,0.00,0,MyOwnSoftware,2013-11-02 04:47:00,
2013-11-02 04:48:00,39.8,39.8,29.54,North,0,0.0,0.0,100,0.00,,,0.00,0,MyOwnSoftware,2013-11-02 04:48:00,
2013-11-02 04:49:00,39.8,39.8,29.54,North,0,0.0,0.0,100,0.00,,,0.00,0,MyOwnSoftware,2013-11-02 04:49:00,
2013-11-02 04:50:00,39.8,39.8,29.54,North,0,0.0,0.0,100,0.00,,,0.00,0,MyOwnSoftware,2013-11-02 04:50:00,
2013-11-02 04:51:00,39.8,40.0,29.54,East,83,0.0,-999.0,100,-99.99,,,0.00,0,weatherlink.com 1.10,2013-11-02 04:51:00,
2013-11-02 04:52:00,39.8,39.8,29.54,North,0,0.0,0.0,100,0.00,,,0.00,0,MyOwnSoftware,2013-11-02 04:52:00,
2013-11-02 04:53:00,39.8,39.8,29.54,North,0,0.0,0.0,100,0.00,,,0.00,0,MyOwnSoftware,2013-11-02 04:53:00,
2013-11-02 04:54:00,39.8,39.8,29.54,North,0,0.0,0.0,100,0.00,,,0.00,0,MyOwnSoftware,2013-11-02 04:54:00,
2013-11-02 04:55:00,39.8,39.8,29.54,North,0,0.0,0.0,100,0.00,,,0.00,0,MyOwnSoftware,2013-11-02 04:55:00,
2013-11-02 04:56:00,39.8,39.8,29.54,North,0,0.0,0.0,100,0.00,,,0.00,0,MyOwnSoftware,2013-11-02 04:56:00,
2013-11-02 04:57:00,39.8,39.8,29.54,North,0,0.0,0.0,100,0.00,,,0.00,0,MyOwnSoftware,2013-11-02 04:57:00,
2013-11-02 04:58:00,39.8,39.8,29.54,North,0,0.0,0.0,100,0.00,,,0.00,0,MyOwnSoftware,2013-11-02 04:58:00,
2013-11-02 04:59:00,39.8,39.8,29.54,North,0,0.0,0.0,100,0.00,,,0.00,0,MyOwnSoftware,2013-11-02 04:59:00,
2013-11-02 05:00:00,39.8,39.8,29.54,North,0,0.0,0.0,100,0.00,,,0.00,0,MyOwnSoftware,2013-11-02 05:00:00,
2013-11-02 05:01:00,39.8,39.8,29.54,North,0,0.0,0.0,100,0.00,,,0.00,0,MyOwnSoftware,2013-11-02 05:01:00,
2013-11-02 05:02:00,39.8,39.8,29.54,North,0,0.0,0.0,100,0.00,,,0.00,0,MyOwnSoftware,2013-11-02 05:02:00,
2013-11-02 05:03:00,39.6,39.6,29.54,North,0,0.0,0.0,100,0.00,,,0.00,0,MyOwnSoftware,2013-11-02 05:03:00,
2013-11-02 05:04:00,39.6,39.6,29.54,North,0,0.0,0.0,100,0.00,,,0.00,0,MyOwnSoftware,2013-11-02 05:04:00,
2013-11-02 05:05:00,39.6,39.6,29.54,North,0,0.0,0.0,100,0.00,,,0.00,0,MyOwnSoftware,2013-11-02 05:05:00,
2013-11-02 05:06:00,39.6,40.0,29.54,East,83,0.0,-999.0,100,-99.99,,,0.00,0,weatherlink.com 1.10,2013-11-02 05:06:00,
2013-11-02 05:07:00,39.6,39.6,29.54,North,0,0.0,0.0,100,0.00,,,0.00,0,MyOwnSoftware,2013-11-02 05:07:00,
2013-11-02 05:08:00,39.6,39.6,29.54,North,0,0.0,0.0,100,0.00,,,0.00,0,MyOwnSoftware,2013-11-02 05:08:00,
2013-11-02 05:09:00,39.6,39.6,29.54,North,0,0.0,0.0,100,0.00,,,0.00,0,MyOwnSoftware,2013-11-02 05:09:00,
2013-11-02 05:10:00,39.6,39.6,29.54,North,0,0.0,0.0,100,0.00,,,0.00,0,MyOwnSoftware,2013-11-02 05:10:00,
2013-11-02 05:11:00,39.6,39.6,29.54,North,0,0.0,0.0,100,0.00,,,0.00,0,MyOwnSoftware,2013-11-02 05:11:00,
2013-11-02 05:12:00,39.6,39.6,29.54,North,0,0.0,0.0,100,0.00,,,0.00,0,MyOwnSoftware,2013-11-02 05:12:00,
2013-11-02 05:13:00,39.6,39.6,29.54,North,0,0.0,0.0,100,0.00,,,0.00,0,MyOwnSoftware,2013-11-02 05:13:00,
2013-11-02 05:14:00,39.6,39.6,29.54,North,0,0.0,0.0,100,0.00,,,0.00,0,MyOwnSoftware,2013-11-02 05:14:00,
2013-11-02 05:15:00,39.6,39.6,29.53,North,0,0.0,0.0,100,0.00,,,0.00,0,MyOwnSoftware,2013-11-02 05:15:00,
2013-11-02 05:16:00,39.6,39.6,29.53,North,0,0.0,0.0,100,0.00,,,0.00,0,MyOwnSoftware,2013-11-02 05:16:00,
2013-11-02 05:17:00,39.6,39.6,29.53,North,0,0.0,0.0,100,0.00,,,0.00,0,MyOwnSoftware,2013-11-02 05:17:00,
2013-11-02 05:18:00,39.6,39.6,29.53,North,0,0.0,0.0,100,0.00,,,0.00,0,MyOwnSoftware,2013-11-02 05:18:00,
2013-11-02 05:19:00,39.5,39.5,29.53,North,0,0.0,0.0,100,0.00,,,0.00,0,MyOwnSoftware,2013-11-02 05:19:00,
2013-11-02 05:20:00,39.5,39.5,29.53,North,0,0.0,0.0,100,0.00,,,0.00,0,MyOwnSoftware,2013-11-02 05:20:00,
2013-11-02 05:21:00,39.5,39.5,29.53,North,0,0.0,0.0,100,0.00,,,0.00,0,MyOwnSoftware,2013-11-02 05:21:00,
2013-11-02 05:22:00,39.5,40.0,29.53,East,83,0.0,-999.0,100,-99.99,,,0.00,0,weatherlink.com 1.10,2013-11-02 05:22:00,
2013-11-02 05:23:00,39.5,39.5,29.53,North,0,0.0,0.0,100,0.00,,,0.00,0,MyOwnSoftware,2013-11-02 05:23:00,
2013-11-02 05:24:00,39.5,39.5,29.53,North,0,0.0,0.0,100,0.00,,,0.00,0,MyOwnSoftware,2013-11-02 05:24:00,
2013-11-02 05:25:00,39.5,39.5,29.53,North,0,0.0,0.0,100,0.00,,,0.00,0,MyOwnSoftware,2013-11-02 05:25:00,
2013-11-02 05:26:00,39.5,39.5,29.53,North,0,0.0,0.0,100,0.00,,,0.00,0,MyOwnSoftware,2013-11-02 05:26:00,
2013-11-02 05:27:00,39.5,39.5,29.53,North,0,0.0,0.0,100,0.00,,,0.00,0,MyOwnSoftware,2013-11-02 05:27:00,
2013-11-02 05:28:00,39.3,39.3,29.53,North,0,0.0,0.0,100,0.00,,,0.00,0,MyOwnSoftware,2013-11-02 05:28:00,
2013-11-02 05:29:00,39.3,39.3,29.53,North,0,0.0,0.0,100,0.00,,,0.00,0,MyOwnSoftware,2013-11-02 05:29:00,
2013-11-02 05:30:00,39.3,39.3,29.53,North,0,0.0,0.0,100,0.00,,,0.00,0,MyOwnSoftware,2013-11-02 05:30:00,
2013-11-02 05:31:00,39.3,39.3,29.53,North,0,0.0,0.0,100,0.00,,,0.00,0,MyOwnSoftware,2013-11-02 05:31:00,
2013-11-02 05:32:00,39.3,39.3,29.53,East,90,2.0,3.0,100,0.00,,,0.00,0,MyOwnSoftware,2013-11-02 05:32:00,
2013-11-02 05:33:00,39.3,39.3,29.53,East,90,1.0,2.0,100,0.00,,,0.00,0,MyOwnSoftware,2013-11-02 05:33:00,
2013-11-02 05:34:00,39.3,39.3,29.53,East,90,1.0,2.0,100,0.00,,,0.00,0,MyOwnSoftware,2013-11-02 05:34:00,
2013-11-02 05:35:00,39.2,39.2,29.53,North,0,0.0,0.0,100,0.00,,,0.00,0,MyOwnSoftware,2013-11-02 05:35:00,
2013-11-02 05:36:00,39.2,39.2,29.53,North,0,0.0,0.0,100,0.00,,,0.00,0,MyOwnSoftware,2013-11-02 05:36:00,
2013-11-02 05:37:00,39.2,39.0,29.53,East,83,0.0,-999.0,100,-99.99,,,0.00,0,weatherlink.com 1.10,2013-11-02 05:37:00,
2013-11-02 05:38:00,39.2,39.2,29.53,North,0,0.0,0.0,100,0.00,,,0.00,0,MyOwnSoftware,2013-11-02 05:38:00,
2013-11-02 05:39:00,39.2,39.2,29.53,North,0,0.0,0.0,100,0.00,,,0.00,0,MyOwnSoftware,2013-11-02 05:39:00,
2013-11-02 05:40:00,39.1,39.1,29.53,North,0,0.0,0.0,100,0.00,,,0.00,0,MyOwnSoftware,2013-11-02 05:40:00,
2013-11-02 05:41:00,39.1,39.1,29.53,North,0,0.0,0.0,100,0.00,,,0.00,0,MyOwnSoftware,2013-11-02 05:41:00,
2013-11-02 05:42:00,39.1,39.1,29.53,North,0,0.0,0.0,100,0.00,,,0.00,0,MyOwnSoftware,2013-11-02 05:42:00,
2013-11-02 05:43:00,39.1,39.1,29.53,North,0,0.0,0.0,100,0.00,,,0.00,0,MyOwnSoftware,2013-11-02 05:43:00,
2013-11-02 05:44:00,39.1,39.1,29.53,North,0,0.0,0.0,100,0.00,,,0.00,0,MyOwnSoftware,2013-11-02 05:44:00,
2013-11-02 05:45:00,39.1,39.1,29.52,North,0,0.0,0.0,100,0.00,,,0.00,0,MyOwnSoftware,2013-11-02 05:45:00,
2013-11-02 05:46:00,38.9,38.9,29.52,North,0,0.0,0.0,100,0.00,,,0.00,0,MyOwnSoftware,2013-11-02 05:46:00,
2013-11-02 05:47:00,38.9,38.9,29.52,North,0,0.0,0.0,100,0.00,,,0.00,0,MyOwnSoftware,2013-11-02 05:47:00,
2013-11-02 05:48:00,38.9,38.9,29.52,North,0,0.0,0.0,100,0.00,,,0.00,0,MyOwnSoftware,2013-11-02 05:48:00,
2013-11-02 05:49:00,38.9,38.9,29.52,North,0,0.0,0.0,100,0.00,,,0.00,0,MyOwnSoftware,2013-11-02 05:49:00,
2013-11-02 05:50:00,38.9,38.9,29.52,North,0,0.0,0.0,100,0.00,,,0.00,0,MyOwnSoftware,2013-11-02 05:50:00,
2013-11-02 05:51:00,38.9,38.9,29.52,North,0,0.0,0.0,100,0.00,,,0.00,0,MyOwnSoftware,2013-11-02 05:51:00,
2013-11-02 05:52:00,38.9,39.0,29.52,East,83,0.0,-999.0,100,-99.99,,,0.00,0,weatherlink.com 1.10,2013-11-02 05:52:00,
2013-11-02 05:53:00,38.9,38.9,29.52,North,0,0.0,0.0,100,0.00,,,0.00,0,MyOwnSoftware,2013-11-02 05:53:00,
2013-11-02 05:54:00,38.9,38.9,29.52,North,0,0.0,0.0,100,0.00,,,0.00,0,MyOwnSoftware,2013-11-02 05:54:00,
2013-11-02 05:55:00,38.9,38.9,29.52,North,0,0.0,0.0,100,0.00,,,0.00,0,MyOwnSoftware,2013-11-02 05:55:00,
2013-11-02 05:56:00,38.9,38.9,29.52,North,0,0.0,0.0,100,0.00,,,0.00,0,MyOwnSoftware,2013-11-02 05:56:00,
2013-11-02 05:57:00,38.9,38.9,29.52,North,0,0.0,0.0,100,0.00,,,0.00,0,MyOwnSoftware,2013-11-02 05:57:00,
2013-11-02 05:58:00,39.1,39.1,29.52,North,0,0.0,0.0,100,0.00,,,0.00,0,MyOwnSoftware,2013-11-02 05:58:00,
2013-11-02 05:59:00,39.1,39.1,29.52,North,0,0.0,0.0,100,0.00,,,0.00,0,MyOwnSoftware,2013-11-02 05:59:00,
2013-11-02 06:00:00,39.1,39.1,29.52,North,0,0.0,0.0,100,0.00,,,0.00,0,MyOwnSoftware,2013-11-02 06:00:00,
2013-11-02 06:01:00,39.2,39.2,29.52,East,90,0.0,1.0,100,0.00,,,0.00,0,MyOwnSoftware,2013-11-02 06:01:00,
2013-11-02 06:02:00,39.2,39.2,29.52,East,90,0.0,1.0,100,0.00,,,0.00,0,MyOwnSoftware,2013-11-02 06:02:00,
2013-11-02 06:03:00,39.2,39.2,29.52,East,90,0.0,1.0,100,0.00,,,0.00,0,MyOwnSoftware,2013-11-02 06:03:00,
2013-11-02 06:04:00,39.3,39.3,29.52,North,0,0.0,0.0,100,0.00,,,0.00,0,MyOwnSoftware,2013-11-02 06:04:00,
2013-11-02 06:05:00,39.3,39.3,29.52,East,90,0.0,1.0,100,0.00,,,0.00,0,MyOwnSoftware,2013-11-02 06:05:00,
2013-11-02 06:06:00,39.3,39.3,29.52,East,90,1.0,2.0,100,0.00,,,0.00,0,MyOwnSoftware,2013-11-02 06:06:00,
2013-11-02 06:07:00,39.3,39.0,29.52,East,83,0.0,-999.0,100,-99.99,,,0.00,0,weatherlink.com 1.10,2013-11-02 06:07:00,
2013-11-02 06:08:00,39.3,39.3,29.52,North,0,0.0,0.0,100,0.00,,,0.00,0,MyOwnSoftware,2013-11-02 06:08:00,
2013-11-02 06:09:00,39.3,39.3,29.52,North,0,0.0,0.0,100,0.00,,,0.00,0,MyOwnSoftware,2013-11-02 06:09:00,
2013-11-02 06:10:00,39.3,39.3,29.52,North,0,0.0,0.0,100,0.00,,,0.00,0,MyOwnSoftware,2013-11-02 06:10:00,
2013-11-02 06:11:00,39.3,39.3,29.52,North,0,0.0,0.0,100,0.00,,,0.00,0,MyOwnSoftware,2013-11-02 06:11:00,
2013-11-02 06:12:00,39.3,39.3,29.52,North,0,0.0,0.0,100,0.00,,,0.00,0,MyOwnSoftware,2013-11-02 06:12:00,
2013-11-02 06:13:00,39.3,39.3,29.52,North,0,0.0,0.0,100,0.00,,,0.00,0,MyOwnSoftware,2013-11-02 06:13:00,
2013-11-02 06:14:00,39.3,39.3,29.52,North,0,0.0,0.0,100,0.00,,,0.00,0,MyOwnSoftware,2013-11-02 06:14:00,
2013-11-02 06:15:00,39.3,39.3,29.51,North,0,0.0,0.0,100,0.00,,,0.00,0,MyOwnSoftware,2013-11-02 06:15:00,
2013-11-02 06:16:00,39.3,39.3,29.51,North,0,0.0,0.0,100,0.00,,,0.00,0,MyOwnSoftware,2013-11-02 06:16:00,
2013-11-02 06:17:00,39.3,39.3,29.51,North,0,0.0,0.0,100,0.00,,,0.00,0,MyOwnSoftware,2013-11-02 06:17:00,
2013-11-02 06:18:00,39.3,39.3,29.51,North,0,0.0,0.0,100,0.00,,,0.00,0,MyOwnSoftware,2013-11-02 06:18:00,
2013-11-02 06:19:00,39.3,39.3,29.51,North,0,0.0,0.0,100,0.00,,,0.00,0,MyOwnSoftware,2013-11-02 06:19:00,
2013-11-02 06:20:00,39.3,39.3,29.51,North,0,0.0,0.0,100,0.00,,,0.00,0,MyOwnSoftware,2013-11-02 06:20:00,
2013-11-02 06:21:00,39.3,39.3,29.51,North,0,0.0,0.0,100,0.00,,,0.00,0,MyOwnSoftware,2013-11-02 06:21:00,
2013-11-02 06:22:00,39.3,39.0,29.51,East,83,0.0,-999.0,100,-99.99,,,0.00,0,weatherlink.com 1.10,2013-11-02 06:22:00,
2013-11-02 06:23:00,39.3,39.3,29.51,North,0,0.0,0.0,100,0.00,,,0.00,0,MyOwnSoftware,2013-11-02 06:23:00,
2013-11-02 06:24:00,39.3,39.3,29.51,North,0,0.0,0.0,100,0.00,,,0.00,0,MyOwnSoftware,2013-11-02 06:24:00,
2013-11-02 06:25:00,39.2,39.2,29.51,North,0,0.0,0.0,100,0.00,,,0.00,0,MyOwnSoftware,2013-11-02 06:25:00,
2013-11-02 06:26:00,39.2,39.2,29.51,North,0,0.0,0.0,100,0.00,,,0.00,0,MyOwnSoftware,2013-11-02 06:26:00,
2013-11-02 06:27:00,39.2,39.2,29.51,North,0,0.0,0.0,100,0.00,,,0.00,0,MyOwnSoftware,2013-11-02 06:27:00,
2013-11-02 06:28:00,39.2,39.2,29.51,North,0,0.0,0.0,100,0.00,,,0.00,0,MyOwnSoftware,2013-11-02 06:28:00,
2013-11-02 06:29:00,39.2,39.2,29.51,North,0,0.0,0.0,100,0.00,,,0.00,0,MyOwnSoftware,2013-11-02 06:29:00,
2013-11-02 06:30:00,39.2,39.2,29.50,North,0,0.0,0.0,100,0.00,,,0.00,0,MyOwnSoftware,2013-11-02 06:30:00,
2013-11-02 06:31:00,39.2,39.2,29.50,North,0,0.0,0.0,100,0.00,,,0.00,0,MyOwnSoftware,2013-11-02 06:31:00,
2013-11-02 06:32:00,39.1,39.1,29.50,North,0,0.0,0.0,100,0.00,,,0.00,0,MyOwnSoftware,2013-11-02 06:32:00,
2013-11-02 06:33:00,39.1,39.1,29.50,North,0,0.0,0.0,100,0.00,,,0.00,0,MyOwnSoftware,2013-11-02 06:33:00,
2013-11-02 06:34:00,39.1,39.1,29.50,North,0,0.0,0.0,100,0.00,,,0.00,0,MyOwnSoftware,2013-11-02 06:34:00,
2013-11-02 06:35:00,39.1,39.1,29.50,North,0,0.0,0.0,100,0.00,,,0.00,0,MyOwnSoftware,2013-11-02 06:35:00,
2013-11-02 06:36:00,39.1,39.1,29.50,North,0,0.0,0.0,100,0.00,,,0.00,0,MyOwnSoftware,2013-11-02 06:36:00,
2013-11-02 06:37:00,39.1,39.0,29.50,East,83,0.0,-999.0,100,-99.99,,,0.00,0,weatherlink.com 1.10,2013-11-02 06:37:00,
2013-11-02 06:38:00,39.1,39.1,29.50,North,0,0.0,0.0,100,0.00,,,0.00,0,MyOwnSoftware,2013-11-02 06:38:00,
2013-11-02 06:39:00,38.9,38.9,29.50,North,0,0.0,0.0,100,0.00,,,0.00,0,MyOwnSoftware,2013-11-02 06:39:00,
2013-11-02 06:40:00,38.9,38.9,29.50,North,0,0.0,0.0,100,0.00,,,0.00,0,MyOwnSoftware,2013-11-02 06:40:00,
2013-11-02 06:41:00,38.9,38.9,29.50,North,0,0.0,0.0,100,0.00,,,0.00,0,MyOwnSoftware,2013-11-02 06:41:00,
2013-11-02 06:42:00,38.9,38.9,29.50,North,0,0.0,0.0,100,0.00,,,0.00,0,MyOwnSoftware,2013-11-02 06:42:00,
2013-11-02 06:43:00,38.9,38.9,29.50,North,0,0.0,0.0,100,0.00,,,0.00,0,MyOwnSoftware,2013-11-02 06:43:00,
2013-11-02 06:44:00,38.9,38.9,29.50,North,0,0.0,0.0,100,0.00,,,0.00,0,MyOwnSoftware,2013-11-02 06:44:00,
2013-11-02 06:45:00,38.9,38.9,29.50,North,0,0.0,0.0,100,0.00,,,0.00,0,MyOwnSoftware,2013-11-02 06:45:00,
2013-11-02 06:46:00,38.9,38.9,29.50,North,0,0.0,0.0,100,0.00,,,0.00,0,MyOwnSoftware,2013-11-02 06:46:00,
2013-11-02 06:47:00,38.9,38.9,29.50,North,0,0.0,0.0,100,0.00,,,0.00,0,MyOwnSoftware,2013-11-02 06:47:00,
2013-11-02 06:48:00,38.9,38.9,29.50,North,0,0.0,0.0,100,0.00,,,0.00,0,MyOwnSoftware,2013-11-02 06:48:00,
2013-11-02 06:49:00,38.8,38.8,29.50,North,0,0.0,0.0,100,0.00,,,0.00,0,MyOwnSoftware,2013-11-02 06:49:00,
2013-11-02 06:50:00,38.8,38.8,29.50,North,0,0.0,0.0,100,0.00,,,0.00,0,MyOwnSoftware,2013-11-02 06:50:00,
2013-11-02 06:51:00,38.8,38.8,29.50,North,0,0.0,0.0,100,0.00,,,0.00,0,MyOwnSoftware,2013-11-02 06:51:00,
2013-11-02 06:52:00,38.8,39.0,29.50,East,83,0.0,-999.0,100,-99.99,,,0.00,0,weatherlink.com 1.10,2013-11-02 06:52:00,
2013-11-02 06:53:00,38.8,38.8,29.50,East,90,1.0,3.0,100,0.00,,,0.00,0,MyOwnSoftware,2013-11-02 06:53:00,
2013-11-02 06:54:00,38.8,38.8,29.50,ENE,68,2.0,3.0,100,0.00,,,0.00,0,MyOwnSoftware,2013-11-02 06:54:00,
2013-11-02 06:55:00,38.8,38.8,29.50,ESE,112,3.0,6.0,100,0.00,,,0.00,0,MyOwnSoftware,2013-11-02 06:55:00,
2013-11-02 06:56:00,38.8,38.8,29.50,East,90,1.0,3.0,100,0.00,,,0.00,0,MyOwnSoftware,2013-11-02 06:56:00,
2013-11-02 06:57:00,38.8,38.8,29.50,East,90,0.0,1.0,100,0.00,,,0.00,0,MyOwnSoftware,2013-11-02 06:57:00,
2013-11-02 06:58:00,38.8,38.8,29.50,East,90,0.0,2.0,100,0.00,,,0.00,0,MyOwnSoftware,2013-11-02 06:58:00,
2013-11-02 06:59:00,38.8,38.8,29.50,North,0,0.0,0.0,100,0.00,,,0.00,0,MyOwnSoftware,2013-11-02 06:59:00,
2013-11-02 07:00:00,38.8,38.8,29.50,East,90,1.0,2.0,100,0.00,,,0.00,0,MyOwnSoftware,2013-11-02 07:00:00,
2013-11-02 07:01:00,38.8,38.8,29.50,East,90,1.0,3.0,100,0.00,,,0.00,0,MyOwnSoftware,2013-11-02 07:01:00,
2013-11-02 07:02:00,38.8,38.8,29.50,SSE,158,3.0,7.0,100,0.00,,,0.00,0,MyOwnSoftware,2013-11-02 07:02:00,
2013-11-02 07:03:00,38.8,38.8,29.50,SSE,158,2.0,6.0,100,0.00,,,0.00,0,MyOwnSoftware,2013-11-02 07:03:00,
2013-11-02 07:04:00,38.8,38.8,29.50,North,0,0.0,0.0,100,0.00,,,0.00,0,MyOwnSoftware,2013-11-02 07:04:00,
2013-11-02 07:05:00,38.8,38.8,29.50,SE,135,0.0,1.0,100,0.00,,,0.00,0,MyOwnSoftware,2013-11-02 07:05:00,
2013-11-02 07:06:00,38.8,38.8,29.50,North,0,0.0,0.0,100,0.00,,,0.00,0,MyOwnSoftware,2013-11-02 07:06:00,
2013-11-02 07:07:00,38.8,39.0,29.50,ENE,68,1.0,-999.0,100,-99.99,,,0.00,0,weatherlink.com 1.10,2013-11-02 07:07:00,
2013-11-02 07:08:00,38.8,38.8,29.50,ENE,68,0.0,1.0,100,0.00,,,0.00,5,MyOwnSoftware,2013-11-02 07:08:00,
2013-11-02 07:09:00,38.9,38.9,29.50,North,0,0.0,0.0,100,0.00,,,0.00,5,MyOwnSoftware,2013-11-02 07:09:00,
2013-11-02 07:10:00,38.9,38.9,29.50,ENE,68,0.0,1.0,100,0.00,,,0.00,5,MyOwnSoftware,2013-11-02 07:10:00,
2013-11-02 07:11:00,38.9,38.9,29.50,ENE,68,1.0,2.0,100,0.00,,,0.00,5,MyOwnSoftware,2013-11-02 07:11:00,
2013-11-02 07:12:00,38.9,38.9,29.50,ENE,68,1.0,2.0,100,0.00,,,0.00,8,MyOwnSoftware,2013-11-02 07:12:00,
2013-11-02 07:13:00,38.9,38.9,29.50,ENE,68,0.0,1.0,100,0.00,,,0.00,11,MyOwnSoftware,2013-11-02 07:13:00,
2013-11-02 07:14:00,38.9,38.9,29.50,ENE,68,1.0,2.0,100,0.00,,,0.00,11,MyOwnSoftware,2013-11-02 07:14:00,
2013-11-02 07:15:00,38.9,38.9,29.49,ESE,112,1.0,2.0,100,0.00,,,0.00,11,MyOwnSoftware,2013-11-02 07:15:00,
2013-11-02 07:16:00,38.9,38.9,29.49,ESE,112,0.0,1.0,100,0.00,,,0.00,11,MyOwnSoftware,2013-11-02 07:16:00,
2013-11-02 07:17:00,38.9,38.9,29.49,North,0,0.0,0.0,100,0.00,,,0.00,12,MyOwnSoftware,2013-11-02 07:17:00,
2013-11-02 07:18:00,38.9,38.9,29.49,North,0,0.0,0.0,100,0.00,,,0.00,12,MyOwnSoftware,2013-11-02 07:18:00,
2013-11-02 07:19:00,38.9,38.9,29.49,North,0,0.0,0.0,100,0.00,,,0.00,12,MyOwnSoftware,2013-11-02 07:19:00,
2013-11-02 07:20:00,38.9,38.9,29.49,North,0,0.0,0.0,100,0.00,,,0.00,12,MyOwnSoftware,2013-11-02 07:20:00,
2013-11-02 07:21:00,38.9,38.9,29.49,North,0,0.0,0.0,100,0.00,,,0.00,14,MyOwnSoftware,2013-11-02 07:21:00,
2013-11-02 07:22:00,39.1,39.0,29.49,ESE,104,0.0,-999.0,100,-99.99,,,0.00,14,weatherlink.com 1.10,2013-11-02 07:22:00,
2013-11-02 07:23:00,39.1,39.1,29.49,North,0,0.0,0.0,100,0.00,,,0.00,14,MyOwnSoftware,2013-11-02 07:23:00,
2013-11-02 07:24:00,39.1,39.1,29.49,North,0,0.0,0.0,100,0.00,,,0.00,14,MyOwnSoftware,2013-11-02 07:24:00,
2013-11-02 07:25:00,39.1,39.1,29.49,North,0,0.0,0.0,100,0.00,,,0.00,7,MyOwnSoftware,2013-11-02 07:25:00,
2013-11-02 07:26:00,39.1,39.1,29.49,North,0,0.0,0.0,100,0.00,,,0.00,7,MyOwnSoftware,2013-11-02 07:26:00,
2013-11-02 07:27:00,39.1,39.1,29.49,North,0,0.0,0.0,100,0.00,,,0.00,7,MyOwnSoftware,2013-11-02 07:27:00,
2013-11-02 07:28:00,39.2,39.2,29.49,North,0,0.0,0.0,100,0.00,,,0.00,7,MyOwnSoftware,2013-11-02 07:28:00,
2013-11-02 07:29:00,39.2,39.2,29.49,North,0,0.0,0.0,100,0.00,,,0.00,7,MyOwnSoftware,2013-11-02 07:29:00,
2013-11-02 07:30:00,39.2,39.2,29.49,ESE,112,0.0,1.0,100,0.00,,,0.00,7,MyOwnSoftware,2013-11-02 07:30:00,
2013-11-02 07:31:00,39.3,39.3,29.49,ESE,112,1.0,2.0,100,0.00,,,0.00,7,MyOwnSoftware,2013-11-02 07:31:00,
2013-11-02 07:32:00,39.3,39.3,29.49,ESE,112,2.0,3.0,100,0.00,,,0.00,7,MyOwnSoftware,2013-11-02 07:32:00,
2013-11-02 07:33:00,39.3,39.3,29.49,ESE,112,1.0,2.0,100,0.00,,,0.00,7,MyOwnSoftware,2013-11-02 07:33:00,
2013-11-02 07:34:00,39.3,39.3,29.49,East,90,1.0,2.0,100,0.00,,,0.00,7,MyOwnSoftware,2013-11-02 07:34:00,
2013-11-02 07:35:00,39.5,39.5,29.49,East,90,1.0,2.0,100,0.00,,,0.00,7,MyOwnSoftware,2013-11-02 07:35:00,
2013-11-02 07:36:00,39.5,39.5,29.49,North,0,0.0,0.0,100,0.00,,,0.00,7,MyOwnSoftware,2013-11-02 07:36:00,
2013-11-02 07:37:00,39.5,40.0,29.49,East,100,0.0,-999.0,100,-99.99,,,0.00,7,weatherlink.com 1.10,2013-11-02 07:37:00,
2013-11-02 07:38:00,39.5,39.5,29.49,East,90,0.0,1.0,100,0.00,,,0.00,7,MyOwnSoftware,2013-11-02 07:38:00,
2013-11-02 07:39:00,39.6,39.6,29.49,North,0,0.0,0.0,100,0.00,,,0.00,7,MyOwnSoftware,2013-11-02 07:39:00,
2013-11-02 07:40:00,39.6,39.3,29.49,North,0,0.0,0.0,99,0.00,,,0.00,7,MyOwnSoftware,2013-11-02 07:40:00,
2013-11-02 07:41:00,39.6,39.3,29.49,North,0,0.0,0.0,99,0.00,,,0.00,7,MyOwnSoftware,2013-11-02 07:41:00,
2013-11-02 07:42:00,39.6,39.3,29.49,East,90,1.0,2.0,99,0.00,,,0.00,9,MyOwnSoftware,2013-11-02 07:42:00,
2013-11-02 07:43:00,39.8,39.3,29.49,East,90,1.0,2.0,98,0.00,,,0.00,9,MyOwnSoftware,2013-11-02 07:43:00,
2013-11-02 07:44:00,39.8,39.3,29.49,North,0,0.0,0.0,98,0.00,,,0.00,9,MyOwnSoftware,2013-11-02 07:44:00,
2013-11-02 07:45:00,39.8,39.3,29.48,East,90,1.0,2.0,98,0.00,,,0.00,9,MyOwnSoftware,2013-11-02 07:45:00,
2013-11-02 07:46:00,39.8,39.0,29.48,East,90,1.0,2.0,97,0.00,,,0.00,11,MyOwnSoftware,2013-11-02 07:46:00,
2013-11-02 07:47:00,39.8,39.0,29.48,East,90,0.0,1.0,97,0.00,,,0.00,11,MyOwnSoftware,2013-11-02 07:47:00,
2013-11-02 07:48:00,39.9,39.1,29.48,East,90,1.0,2.0,97,0.00,,,0.00,11,MyOwnSoftware,2013-11-02 07:48:00,
2013-11-02 07:49:00,39.9,39.1,29.48,East,90,0.0,1.0,97,0.00,,,0.00,11,MyOwnSoftware,2013-11-02 07:49:00,
2013-11-02 07:50:00,39.9,39.1,29.48,East,90,1.0,2.0,97,0.00,,,0.00,12,MyOwnSoftware,2013-11-02 07:50:00,
2013-11-02 07:51:00,39.9,38.9,29.48,East,90,1.0,2.0,96,0.00,,,0.00,12,MyOwnSoftware,2013-11-02 07:51:00,
2013-11-02 07:52:00,40.1,39.0,29.48,East,90,0.0,-999.0,96,-99.99,,,0.00,12,weatherlink.com 1.10,2013-11-02 07:52:00,
2013-11-02 07:53:00,40.1,39.1,29.48,East,90,1.0,2.0,96,0.00,,,0.00,12,MyOwnSoftware,2013-11-02 07:53:00,
2013-11-02 07:54:00,40.1,38.8,29.48,East,90,0.0,2.0,95,0.00,,,0.00,16,MyOwnSoftware,2013-11-02 07:54:00,
2013-11-02 07:55:00,40.1,38.8,29.48,East,90,1.0,2.0,95,0.00,,,0.00,16,MyOwnSoftware,2013-11-02 07:55:00,
2013-11-02 07:56:00,40.2,38.9,29.48,East,90,1.0,2.0,95,0.00,,,0.00,16,MyOwnSoftware,2013-11-02 07:56:00,
2013-11-02 07:57:00,40.2,38.9,29.48,East,90,0.0,1.0,95,0.00,,,0.00,16,MyOwnSoftware,2013-11-02 07:57:00,
2013-11-02 07:58:00,40.2,38.9,29.48,East,90,0.0,1.0,95,0.00,,,0.00,18,MyOwnSoftware,2013-11-02 07:58:00,
2013-11-02 07:59:00,40.2,38.9,29.48,East,90,1.0,3.0,95,0.00,,,0.00,18,MyOwnSoftware,2013-11-02 07:59:00,
2013-11-02 08:00:00,40.2,38.6,29.47,East,90,1.0,2.0,94,0.00,,,0.00,18,MyOwnSoftware,2013-11-02 08:00:00,
2013-11-02 08:01:00,40.3,38.7,29.47,East,90,0.0,1.0,94,0.00,,,0.00,18,MyOwnSoftware,2013-11-02 08:01:00,
2013-11-02 08:02:00,40.3,38.7,29.47,East,90,0.0,1.0,94,0.00,,,0.00,19,MyOwnSoftware,2013-11-02 08:02:00,
2013-11-02 08:03:00,40.3,38.7,29.47,East,90,1.0,2.0,94,0.00,,,0.00,19,MyOwnSoftware,2013-11-02 08:03:00,
2013-11-02 08:04:00,40.3,38.7,29.47,North,0,0.0,0.0,94,0.00,,,0.00,19,MyOwnSoftware,2013-11-02 08:04:00,
2013-11-02 08:05:00,40.3,38.7,29.47,North,0,0.0,0.0,94,0.00,,,0.00,19,MyOwnSoftware,2013-11-02 08:05:00,
2013-11-02 08:06:00,40.3,38.7,29.47,NE,45,1.0,2.0,94,0.00,,,0.00,19,MyOwnSoftware,2013-11-02 08:06:00,
2013-11-02 08:07:00,40.5,39.0,29.47,NE,56,0.0,-999.0,94,-99.99,,,0.00,21,weatherlink.com 1.10,2013-11-02 08:07:00,
2013-11-02 08:08:00,40.5,38.6,29.47,NE,45,0.0,2.0,93,0.00,,,0.00,21,MyOwnSoftware,2013-11-02 08:08:00,
2013-11-02 08:09:00,40.5,38.6,29.47,NE,45,1.0,3.0,93,0.00,,,0.00,21,MyOwnSoftware,2013-11-02 08:09:00,
2013-11-02 08:10:00,40.5,38.6,29.47,SE,135,1.0,4.0,93,0.00,,,0.00,21,MyOwnSoftware,2013-11-02 08:10:00,
2013-11-02 08:11:00,40.5,38.6,29.47,North,0,0.0,0.0,93,0.00,,,0.00,23,MyOwnSoftware,2013-11-02 08:11:00,
2013-11-02 08:12:00,40.5,38.6,29.47,SE,135,0.0,2.0,93,0.00,,,0.00,23,MyOwnSoftware,2013-11-02 08:12:00,
2013-11-02 08:13:00,40.6,38.7,29.47,SE,135,1.0,2.0,93,0.00,,,0.00,23,MyOwnSoftware,2013-11-02 08:13:00,
2013-11-02 08:14:00,40.6,38.7,29.47,North,0,0.0,0.0,93,0.00,,,0.00,23,MyOwnSoftware,2013-11-02 08:14:00,
2013-11-02 08:15:00,40.6,38.7,29.47,North,0,0.0,1.0,93,0.00,,,0.00,23,MyOwnSoftware,2013-11-02 08:15:00,
2013-11-02 08:16:00,40.6,38.5,29.47,NNE,22,1.0,2.0,92,0.00,,,0.00,25,MyOwnSoftware,2013-11-02 08:16:00,
2013-11-02 08:17:00,40.6,38.5,29.47,NNE,22,0.0,2.0,92,0.00,,,0.00,25,MyOwnSoftware,2013-11-02 08:17:00,
2013-11-02 08:18:00,40.6,38.5,29.47,NNE,22,1.0,2.0,92,0.00,,,0.00,25,MyOwnSoftware,2013-11-02 08:18:00,
2013-11-02 08:19:00,40.8,38.7,29.47,NNE,22,1.0,2.0,92,0.00,,,0.00,26,MyOwnSoftware,2013-11-02 08:19:00,
2013-11-02 08:20:00,40.8,38.7,29.47,ENE,68,1.0,2.0,92,0.00,,,0.00,26,MyOwnSoftware,2013-11-02 08:20:00,
2013-11-02 08:21:00,40.8,38.7,29.47,ENE,68,2.0,4.0,92,0.00,,,0.00,26,MyOwnSoftware,2013-11-02 08:21:00,
2013-11-02 08:22:00,40.8,39.0,29.47,NE,44,3.0,-999.0,92,-99.99,,,0.00,26,weatherlink.com 1.10,2013-11-02 08:22:00,
2013-11-02 08:23:00,40.8,38.4,29.47,NE,45,2.0,3.0,91,0.00,,,0.00,26,MyOwnSoftware,2013-11-02 08:23:00,
2013-11-02 08:24:00,40.8,38.7,29.47,NE,45,2.0,5.0,92,0.00,,,0.00,26,MyOwnSoftware,2013-11-02 08:24:00,
2013-11-02 08:25:00,40.8,38.7,29.47,NE,45,2.0,3.0,92,0.00,,,0.00,26,MyOwnSoftware,2013-11-02 08:25:00,
2013-11-02 08:26:00,40.8,38.4,29.47,NNE,22,2.0,5.0,91,0.00,,,0.00,26,MyOwnSoftware,2013-11-02 08:26:00,
2013-11-02 08:27:00,40.8,38.4,29.47,North,0,0.0,0.0,91,0.00,,,0.00,26,MyOwnSoftware,2013-11-02 08:27:00,
2013-11-02 08:28:00,40.9,38.5,29.47,NNE,22,1.0,2.0,91,0.00,,,0.00,26,MyOwnSoftware,2013-11-02 08:28:00,
2013-11-02 08:29:00,40.9,38.5,29.47,NNE,22,0.0,1.0,91,0.00,,,0.00,26,MyOwnSoftware,2013-11-02 08:29:00,
2013-11-02 08:30:00,40.9,38.5,29.47,ESE,112,1.0,3.0,91,0.00,,,0.00,26,MyOwnSoftware,2013-11-02 08:30:00,
2013-11-02 08:31:00,40.9,38.5,29.47,ESE,112,1.0,3.0,91,0.00,,,0.00,26,MyOwnSoftware,2013-11-02 08:31:00,
2013-11-02 08:32:00,40.9,38.5,29.47,ESE,112,0.0,1.0,91,0.00,,,0.00,30,MyOwnSoftware,2013-11-02 08:32:00,
2013-11-02 08:33:00,40.9,38.5,29.47,ESE,112,2.0,4.0,91,0.00,,,0.00,30,MyOwnSoftware,2013-11-02 08:33:00,
2013-11-02 08:34:00,40.9,38.5,29.47,ESE,112,2.0,5.0,91,0.00,,,0.00,30,MyOwnSoftware,2013-11-02 08:34:00,
2013-11-02 08:35:00,40.9,38.5,29.47,ESE,112,1.0,4.0,91,0.00,,,0.00,30,MyOwnSoftware,2013-11-02 08:35:00,
2013-11-02 08:36:00,41.1,38.7,29.47,ESE,112,0.0,2.0,91,0.00,,,0.00,32,MyOwnSoftware,2013-11-02 08:36:00,
2013-11-02 08:37:00,41.1,39.0,29.47,ESE,109,3.0,-999.0,91,-99.99,,,0.00,32,weatherlink.com 1.10,2013-11-02 08:37:00,
2013-11-02 08:38:00,41.1,38.7,29.47,ESE,112,2.0,4.0,91,0.00,,,0.00,32,MyOwnSoftware,2013-11-02 08:38:00,
2013-11-02 08:39:00,41.1,38.7,29.47,ENE,68,1.0,3.0,91,0.00,,,0.00,32,MyOwnSoftware,2013-11-02 08:39:00,
2013-11-02 08:40:00,41.1,38.7,29.47,ENE,68,1.0,2.0,91,0.00,,,0.00,30,MyOwnSoftware,2013-11-02 08:40:00,
2013-11-02 08:41:00,41.1,38.7,29.47,ENE,68,0.0,3.0,91,0.00,,,0.00,30,MyOwnSoftware,2013-11-02 08:41:00,
2013-11-02 08:42:00,41.1,38.4,29.47,East,90,1.0,3.0,90,0.00,,,0.00,30,MyOwnSoftware,2013-11-02 08:42:00,
2013-11-02 08:43:00,41.1,38.7,29.47,East,90,1.0,2.0,91,0.00,,,0.00,30,MyOwnSoftware,2013-11-02 08:43:00,
2013-11-02 08:44:00,41.1,38.7,29.47,East,90,2.0,3.0,91,0.00,,,0.00,21,MyOwnSoftware,2013-11-02 08:44:00,
2013-11-02 08:45:00,41.2,38.5,29.46,North,0,2.0,5.0,90,0.00,,,0.00,21,MyOwnSoftware,2013-11-02 08:45:00,
2013-11-02 08:46:00,41.2,38.5,29.46,North,0,2.0,6.0,90,0.00,,,0.00,21,MyOwnSoftware,2013-11-02 08:46:00,
2013-11-02 08:47:00,41.2,38.8,29.46,North,0,2.0,3.0,91,0.00,,,0.00,21,MyOwnSoftware,2013-11-02 08:47:00,
2013-11-02 08:48:00,41.2,38.8,29.46,North,0,2.0,3.0,91,0.00,,,0.00,21,MyOwnSoftware,2013-11-02 08:48:00,
2013-11-02 08:49:00,41.2,38.5,29.46,North,0,2.0,3.0,90,0.00,,,0.00,18,MyOwnSoftware,2013-11-02 08:49:00,
2013-11-02 08:50:00,41.2,38.5,29.46,North,0,1.0,3.0,90,0.00,,,0.00,18,MyOwnSoftware,2013-11-02 08:50:00,
2013-11-02 08:51:00,41.3,38.9,29.46,North,0,2.0,3.0,91,0.00,,,0.00,18,MyOwnSoftware,2013-11-02 08:51:00,
2013-11-02 08:52:00,41.3,39.0,29.46,North,0,0.0,-999.0,91,-99.99,,,0.00,16,weatherlink.com 1.10,2013-11-02 08:52:00,
2013-11-02 08:53:00,41.3,38.9,29.46,North,0,1.0,3.0,91,0.00,,,0.00,16,MyOwnSoftware,2013-11-02 08:53:00,
2013-11-02 08:54:00,41.3,38.9,29.46,North,0,0.0,1.0,91,0.00,,,0.00,16,MyOwnSoftware,2013-11-02 08:54:00,
2013-11-02 08:55:00,41.3,38.9,29.46,North,0,0.0,1.0,91,0.00,,,0.00,16,MyOwnSoftware,2013-11-02 08:55:00,
2013-11-02 08:56:00,41.3,38.9,29.46,North,0,0.0,1.0,91,0.00,,,0.00,16,MyOwnSoftware,2013-11-02 08:56:00,
2013-11-02 08:57:00,41.3,38.9,29.46,North,0,1.0,2.0,91,0.00,,,0.00,21,MyOwnSoftware,2013-11-02 08:57:00,
2013-11-02 08:58:00,41.3,38.9,29.46,North,0,1.0,2.0,91,0.00,,,0.00,21,MyOwnSoftware,2013-11-02 08:58:00,
2013-11-02 08:59:00,41.3,38.9,29.46,North,0,0.0,0.0,91,0.00,,,0.00,21,MyOwnSoftware,2013-11-02 08:59:00,
2013-11-02 09:00:00,41.3,38.9,29.45,North,0,0.0,0.0,91,0.00,,,0.00,21,MyOwnSoftware,2013-11-02 09:00:00,
2013-11-02 09:01:00,41.3,38.9,29.45,North,0,0.0,0.0,91,0.00,,,0.00,21,MyOwnSoftware,2013-11-02 09:01:00,
2013-11-02 09:02:00,41.3,38.9,29.45,North,0,0.0,0.0,91,0.00,,,0.00,21,MyOwnSoftware,2013-11-02 09:02:00,
2013-11-02 09:03:00,41.3,38.9,29.45,North,0,0.0,0.0,91,0.00,,,0.00,21,MyOwnSoftware,2013-11-02 09:03:00,
2013-11-02 09:04:00,41.3,38.9,29.45,NE,45,2.0,3.0,91,0.00,,,0.00,21,MyOwnSoftware,2013-11-02 09:04:00,
2013-11-02 09:05:00,41.5,39.1,29.45,North,0,0.0,0.0,91,0.00,,,0.00,23,MyOwnSoftware,2013-11-02 09:05:00,
2013-11-02 09:06:00,41.5,39.4,29.45,North,0,0.0,0.0,92,0.00,,,0.00,23,MyOwnSoftware,2013-11-02 09:06:00,
2013-11-02 09:07:00,41.5,39.0,29.45,NE,55,0.0,-999.0,92,-99.99,,,0.00,23,weatherlink.com 1.10,2013-11-02 09:07:00,
2013-11-02 09:08:00,41.5,39.1,29.45,ENE,68,1.0,3.0,91,0.00,,,0.00,23,MyOwnSoftware,2013-11-02 09:08:00,
2013-11-02 09:09:00,41.5,39.1,29.45,East,90,0.0,2.0,91,0.00,,,0.00,23,MyOwnSoftware,2013-11-02 09:09:00,
2013-11-02 09:10:00,41.6,39.5,29.45,SSE,158,2.0,3.0,92,0.00,,,0.00,23,MyOwnSoftware,2013-11-02 09:10:00,
2013-11-02 09:11:00,41.6,39.2,29.45,ESE,112,0.0,2.0,91,0.00,,,0.00,23,MyOwnSoftware,2013-11-02 09:11:00,
2013-11-02 09:12:00,41.6,39.2,29.45,ESE,112,3.0,5.0,91,0.00,,,0.00,23,MyOwnSoftware,2013-11-02 09:12:00,
2013-11-02 09:13:00,41.6,39.2,29.45,ESE,112,2.0,4.0,91,0.00,,,0.00,21,MyOwnSoftware,2013-11-02 09:13:00,
2013-11-02 09:14:00,41.8,39.4,29.45,ESE,112,2.0,4.0,91,0.00,,,0.00,21,MyOwnSoftware,2013-11-02 09:14:00,
2013-11-02 09:15:00,41.8,39.4,29.45,East,90,1.0,2.0,91,0.00,,,0.00,21,MyOwnSoftware,2013-11-02 09:15:00,
2013-11-02 09:16:00,41.8,39.4,29.45,East,90,3.0,6.0,91,0.00,,,0.00,21,MyOwnSoftware,2013-11-02 09:16:00,
2013-11-02 09:17:00,41.8,39.4,29.45,ENE,68,2.0,6.0,91,0.00,,,0.00,20,MyOwnSoftware,2013-11-02 09:17:00,
2013-11-02 09:18:00,41.9,39.5,29.45,ESE,112,3.0,5.0,91,0.00,,,0.00,19,MyOwnSoftware,2013-11-02 09:18:00,
2013-11-02 09:19:00,41.9,39.5,29.45,SE,135,1.0,6.0,91,0.00,,,0.00,19,MyOwnSoftware,2013-11-02 09:19:00,
2013-11-02 09:20:00,41.9,39.5,29.45,SE,135,2.0,5.0,91,0.00,,,0.00,19,MyOwnSoftware,2013-11-02 09:20:00,
2013-11-02 09:21:00,41.9,39.5,29.45,SE,135,2.0,3.0,91,0.00,,,0.00,19,MyOwnSoftware,2013-11-02 09:21:00,
2013-11-02 09:22:00,42.1,40.0,29.45,NE,56,3.0,-999.0,91,-99.99,,,0.00,19,weatherlink.com 1.10,2013-11-02 09:22:00,
2013-11-02 09:23:00,42.1,39.4,29.45,ENE,68,2.0,5.0,90,0.00,,,0.00,19,MyOwnSoftware,2013-11-02 09:23:00,
2013-11-02 09:24:00,42.1,39.7,29.45,East,90,1.0,3.0,91,0.00,,,0.00,19,MyOwnSoftware,2013-11-02 09:24:00,
2013-11-02 09:25:00,42.2,39.5,29.45,East,90,1.0,2.0,90,0.00,,,0.00,19,MyOwnSoftware,2013-11-02 09:25:00,
2013-11-02 09:26:00,42.2,39.5,29.45,ENE,68,1.0,3.0,90,0.00,,,0.00,18,MyOwnSoftware,2013-11-02 09:26:00,
2013-11-02 09:27:00,42.2,39.5,29.45,ENE,68,2.0,2.0,90,0.00,,,0.00,18,MyOwnSoftware,2013-11-02 09:27:00,
2013-11-02 09:28:00,42.2,39.5,29.45,ENE,68,1.0,2.0,90,0.00,,,0.00,18,MyOwnSoftware,2013-11-02 09:28:00,
2013-11-02 09:29:00,42.3,39.6,29.45,SE,135,3.0,6.0,90,0.00,,,0.00,18,MyOwnSoftware,2013-11-02 09:29:00,
2013-11-02 09:30:00,42.3,39.6,29.44,East,90,3.0,5.0,90,0.00,,,0.00,23,MyOwnSoftware,2013-11-02 09:30:00,
2013-11-02 09:31:00,42.3,39.6,29.44,East,90,2.0,4.0,90,0.00,,,0.00,23,MyOwnSoftware,2013-11-02 09:31:00,
2013-11-02 09:32:00,42.3,39.6,29.44,East,90,3.0,5.0,90,0.00,,,0.00,23,MyOwnSoftware,2013-11-02 09:32:00,
2013-11-02 09:33:00,42.3,39.6,29.44,SE,135,2.0,5.0,90,0.00,,,0.00,23,MyOwnSoftware,2013-11-02 09:33:00,
2013-11-02 09:34:00,42.5,39.8,29.44,NE,45,3.0,6.0,90,0.00,,,0.00,26,MyOwnSoftware,2013-11-02 09:34:00,
2013-11-02 09:35:00,42.5,39.8,29.44,SE,135,3.0,6.0,90,0.00,,,0.00,26,MyOwnSoftware,2013-11-02 09:35:00,
2013-11-02 09:36:00,42.5,39.8,29.44,ESE,112,2.0,3.0,90,0.00,,,0.00,26,MyOwnSoftware,2013-11-02 09:36:00,
2013-11-02 09:37:00,42.5,40.0,29.44,ESE,121,1.0,-999.0,91,-99.99,,,0.00,26,weatherlink.com 1.10,2013-11-02 09:37:00,
2013-11-02 09:38:00,42.5,40.1,29.44,ESE,112,3.0,6.0,91,0.00,,,0.00,25,MyOwnSoftware,2013-11-02 09:38:00,
2013-11-02 09:39:00,42.5,40.1,29.44,ENE,68,2.0,3.0,91,0.00,,,0.00,25,MyOwnSoftware,2013-11-02 09:39:00,
2013-11-02 09:40:00,42.5,40.1,29.44,ENE,68,2.0,5.0,91,0.00,,,0.00,25,MyOwnSoftware,2013-11-02 09:40:00,
2013-11-02 09:41:00,42.5,40.1,29.44,ENE,68,4.0,7.0,91,0.00,,,0.00,25,MyOwnSoftware,2013-11-02 09:41:00,
2013-11-02 09:42:00,42.5,40.1,29.44,East,90,3.0,6.0,91,0.00,,,0.00,24,MyOwnSoftware,2013-11-02 09:42:00,
2013-11-02 09:43:00,42.5,40.1,29.44,East,90,2.0,4.0,91,0.00,,,0.00,23,MyOwnSoftware,2013-11-02 09:43:00,
2013-11-02 09:44:00,42.5,40.1,29.44,East,90,1.0,6.0,91,0.00,,,0.00,23,MyOwnSoftware,2013-11-02 09:44:00,
2013-11-02 09:45:00,42.5,40.1,29.43,East,90,4.0,7.0,91,0.00,,,0.00,23,MyOwnSoftware,2013-11-02 09:45:00,
2013-11-02 09:46:00,42.5,40.1,29.43,East,90,3.0,6.0,91,0.00,,,0.00,23,MyOwnSoftware,2013-11-02 09:46:00,
2013-11-02 09:47:00,42.5,40.1,29.43,North,0,4.0,7.0,91,0.00,,,0.00,28,MyOwnSoftware,2013-11-02 09:47:00,
2013-11-02 09:48:00,42.5,40.1,29.43,SE,135,3.0,6.0,91,0.00,,,0.00,28,MyOwnSoftware,2013-11-02 09:48:00,
2013-11-02 09:49:00,42.5,40.1,29.43,North,0,4.0,6.0,91,0.00,,,0.00,28,MyOwnSoftware,2013-11-02 09:49:00,
2013-11-02 09:50:00,42.5,40.1,29.43,North,0,3.0,7.0,91,0.00,,,0.00,28,MyOwnSoftware,2013-11-02 09:50:00,
2013-11-02 09:51:00,42.5,40.1,29.43,NNE,22,4.0,6.0,91,0.00,,,0.00,39,MyOwnSoftware,2013-11-02 09:51:00,
2013-11-02 09:52:00,42.5,40.0,29.43,NNE,32,8.0,-999.0,91,-99.99,,,0.00,39,weatherlink.com 1.10,2013-11-02 09:52:00,
2013-11-02 09:53:00,42.5,40.1,29.43,North,0,4.0,8.0,91,0.00,,,0.00,39,MyOwnSoftware,2013-11-02 09:53:00,
2013-11-02 09:54:00,42.5,40.1,29.43,North,0,3.0,5.0,91,0.00,,,0.00,39,MyOwnSoftware,2013-11-02 09:54:00,
2013-11-02 09:55:00,42.5,40.1,29.43,NNE,22,2.0,3.0,91,0.00,,,0.00,42,MyOwnSoftware,2013-11-02 09:55:00,
2013-11-02 09:56:00,42.5,40.3,29.43,NNE,22,3.0,7.0,92,0.00,,,0.00,42,MyOwnSoftware,2013-11-02 09:56:00,
2013-11-02 09:57:00,42.5,40.3,29.43,NE,45,2.0,3.0,92,0.00,,,0.00,42,MyOwnSoftware,2013-11-02 09:57:00,
2013-11-02 09:58:00,42.5,40.3,29.43,NNE,22,3.0,6.0,92,0.00,,,0.00,42,MyOwnSoftware,2013-11-02 09:58:00,
2013-11-02 09:59:00,42.5,40.3,29.43,East,90,3.0,5.0,92,0.00,,,0.00,35,MyOwnSoftware,2013-11-02 09:59:00,
2013-11-02 10:00:00,42.5,40.3,29.42,East,90,2.0,5.0,92,0.00,,,0.00,35,MyOwnSoftware,2013-11-02 10:00:00,
2013-11-02 10:01:00,42.5,40.3,29.42,ENE,68,2.0,3.0,92,0.00,,,0.00,35,MyOwnSoftware,2013-11-02 10:01:00,
2013-11-02 10:02:00,42.3,40.1,29.42,East,90,3.0,6.0,92,0.00,,,0.00,35,MyOwnSoftware,2013-11-02 10:02:00,
2013-11-02 10:03:00,42.3,40.4,29.42,ENE,68,2.0,6.0,93,0.00,,,0.00,26,MyOwnSoftware,2013-11-02 10:03:00,
2013-11-02 10:04:00,42.3,40.4,29.42,ENE,68,2.0,6.0,93,0.00,,,0.00,26,MyOwnSoftware,2013-11-02 10:04:00,
2013-11-02 10:05:00,42.3,40.4,29.42,ENE,68,2.0,3.0,93,0.00,,,0.00,26,MyOwnSoftware,2013-11-02 10:05:00,
2013-11-02 10:06:00,42.3,40.4,29.42,SE,135,3.0,6.0,93,0.00,,,0.00,26,MyOwnSoftware,2013-11-02 10:06:00,
2013-11-02 10:07:00,42.3,41.0,29.42,SE,130,5.0,-999.0,93,-99.99,,,0.00,23,weatherlink.com 1.10,2013-11-02 10:07:00,
2013-11-02 10:08:00,42.3,40.4,29.42,SE,135,2.0,5.0,93,0.00,,,0.00,23,MyOwnSoftware,2013-11-02 10:08:00,
2013-11-02 10:09:00,42.3,40.4,29.42,NE,45,3.0,7.0,93,0.00,,,0.00,23,MyOwnSoftware,2013-11-02 10:09:00,
2013-11-02 10:10:00,42.3,40.4,29.42,ENE,68,3.0,5.0,93,0.00,,,0.00,23,MyOwnSoftware,2013-11-02 10:10:00,
2013-11-02 10:11:00,42.3,40.7,29.42,East,90,2.0,5.0,94,0.00,,,0.00,23,MyOwnSoftware,2013-11-02 10:11:00,
2013-11-02 10:12:00,42.3,40.4,29.42,East,90,3.0,6.0,93,0.00,,,0.00,25,MyOwnSoftware,2013-11-02 10:12:00,
2013-11-02 10:13:00,42.5,40.9,29.42,East,90,2.0,4.0,94,0.00,,,0.00,25,MyOwnSoftware,2013-11-02 10:13:00,
2013-11-02 10:14:00,42.5,40.9,29.42,East,90,2.0,6.0,94,0.00,,,0.00,25,MyOwnSoftware,2013-11-02 10:14:00,
2013-11-02 10:15:00,42.5,40.9,29.41,ESE,112,3.0,5.0,94,0.00,,,0.00,25,MyOwnSoftware,2013-11-02 10:15:00,
2013-11-02 10:16:00,42.5,40.9,29.41,NE,45,1.0,3.0,94,0.00,,,0.00,25,MyOwnSoftware,2013-11-02 10:16:00,
2013-11-02 10:17:00,42.5,40.9,29.41,NNE,22,2.0,5.0,94,0.00,,,0.00,25,MyOwnSoftware,2013-11-02 10:17:00,
2013-11-02 10:18:00,42.5,40.9,29.41,North,0,3.0,6.0,94,0.00,,,0.00,25,MyOwnSoftware,2013-11-02 10:18:00,
2013-11-02 10:19:00,42.5,40.9,29.41,ENE,68,4.0,7.0,94,0.00,,,0.00,25,MyOwnSoftware,2013-11-02 10:19:00,
2013-11-02 10:20:00,42.5,40.9,29.41,East,90,4.0,6.0,94,0.00,,,0.00,21,MyOwnSoftware,2013-11-02 10:20:00,
2013-11-02 10:21:00,42.5,40.9,29.41,North,0,3.0,6.0,94,0.00,,,0.00,21,MyOwnSoftware,2013-11-02 10:21:00,
2013-11-02 10:22:00,42.5,41.0,29.41,North,354,2.0,-999.0,94,-99.99,,,0.00,21,weatherlink.com 1.10,2013-11-02 10:22:00,
2013-11-02 10:23:00,42.5,40.9,29.41,North,0,2.0,4.0,94,0.00,,,0.00,21,MyOwnSoftware,2013-11-02 10:23:00,
2013-11-02 10:24:00,42.5,40.9,29.41,NNE,22,2.0,4.0,94,0.00,,,0.00,18,MyOwnSoftware,2013-11-02 10:24:00,
2013-11-02 10:25:00,42.5,40.9,29.41,North,0,4.0,6.0,94,0.00,,,0.00,18,MyOwnSoftware,2013-11-02 10:25:00,
2013-11-02 10:26:00,42.5,40.9,29.41,NE,45,4.0,6.0,94,0.00,,,0.00,18,MyOwnSoftware,2013-11-02 10:26:00,
2013-11-02 10:27:00,42.5,40.9,29.41,North,0,5.0,6.0,94,0.00,,,0.00,18,MyOwnSoftware,2013-11-02 10:27:00,
2013-11-02 10:28:00,42.5,40.9,29.41,NNE,22,3.0,7.0,94,0.00,,,0.00,25,MyOwnSoftware,2013-11-02 10:28:00,
2013-11-02 10:29:00,42.5,40.9,29.41,NNE,22,5.0,7.0,94,0.00,,,0.00,25,MyOwnSoftware,2013-11-02 10:29:00,
2013-11-02 10:30:00,42.5,40.9,29.37,North,0,5.0,7.0,94,0.00,,,0.00,25,MyOwnSoftware,2013-11-02 10:30:00,
2013-11-02 10:31:00,42.5,40.9,29.37,ESE,112,4.0,7.0,94,0.00,,,0.00,25,MyOwnSoftware,2013-11-02 10:31:00,
2013-11-02 10:32:00,42.6,41.0,29.37,East,90,5.0,8.0,94,0.00,,,0.00,24,MyOwnSoftware,2013-11-02 10:32:00,
2013-11-02 10:33:00,42.6,41.0,29.37,NNE,22,4.0,7.0,94,0.00,,,0.00,23,MyOwnSoftware,2013-11-02 10:33:00,
2013-11-02 10:34:00,42.6,41.0,29.37,East,90,4.0,6.0,94,0.00,,,0.00,23,MyOwnSoftware,2013-11-02 10:34:00,
2013-11-02 10:35:00,42.6,41.0,29.37,ENE,68,4.0,7.0,94,0.00,,,0.00,23,MyOwnSoftware,2013-11-02 10:35:00,
2013-11-02 10:36:00,42.6,40.7,29.37,ENE,68,5.0,7.0,93,0.00,,,0.00,23,MyOwnSoftware,2013-11-02 10:36:00,
2013-11-02 10:37:00,42.6,41.0,29.37,North,8,5.0,-999.0,93,-99.99,,,0.00,23,weatherlink.com 1.10,2013-11-02 10:37:00,
2013-11-02 10:38:00,42.6,40.7,29.37,NNE,22,5.0,6.0,93,0.00,,,0.00,23,MyOwnSoftware,2013-11-02 10:38:00,
2013-11-02 10:39:00,42.6,40.7,29.37,NNE,22,4.0,6.0,93,0.00,,,0.00,23,MyOwnSoftware,2013-11-02 10:39:00,
2013-11-02 10:40:00,42.6,40.7,29.37,North,0,5.0,8.0,93,0.00,,,0.00,23,MyOwnSoftware,2013-11-02 10:40:00,
2013-11-02 10:41:00,42.8,40.9,29.37,North,0,4.0,7.0,93,0.00,,,0.00,21,MyOwnSoftware,2013-11-02 10:41:00,
2013-11-02 10:42:00,42.8,40.9,29.37,NNE,22,4.0,6.0,93,0.00,,,0.00,21,MyOwnSoftware,2013-11-02 10:42:00,
2013-11-02 10:43:00,42.8,40.9,29.37,ENE,68,3.0,5.0,93,0.00,,,0.00,21,MyOwnSoftware,2013-11-02 10:43:00,
2013-11-02 10:44:00,42.8,40.9,29.37,ENE,68,5.0,8.0,93,0.00,,,0.00,21,MyOwnSoftware,2013-11-02 10:44:00,
2013-11-02 10:45:00,42.8,40.9,29.36,North,0,5.0,8.0,93,0.00,,,0.00,18,MyOwnSoftware,2013-11-02 10:45:00,
2013-11-02 10:46:00,42.8,40.9,29.36,North,0,6.0,8.0,93,0.00,,,0.00,18,MyOwnSoftware,2013-11-02 10:46:00,
2013-11-02 10:47:00,42.8,40.9,29.36,North,0,4.0,10.0,93,0.00,,,0.00,18,MyOwnSoftware,2013-11-02 10:47:00,
2013-11-02 10:48:00,42.8,40.9,29.36,NNE,22,5.0,8.0,93,0.00,,,0.00,18,MyOwnSoftware,2013-11-02 10:48:00,
2013-11-02 10:49:00,42.8,40.6,29.36,SE,135,4.0,7.0,92,0.00,,,0.00,23,MyOwnSoftware,2013-11-02 10:49:00,
2013-11-02 10:50:00,42.8,40.6,29.36,NNW,338,4.0,10.0,92,0.00,,,0.00,23,MyOwnSoftware,2013-11-02 10:50:00,
2013-11-02 10:51:00,42.8,40.6,29.36,NNE,22,3.0,6.0,92,0.00,,,0.00,23,MyOwnSoftware,2013-11-02 10:51:00,
2013-11-02 10:52:00,42.9,41.0,29.36,NE,42,5.0,-999.0,92,-99.99,,,0.00,23,weatherlink.com 1.10,2013-11-02 10:52:00,
2013-11-02 10:53:00,42.9,40.7,29.36,NE,45,5.0,8.0,92,0.00,,,0.00,25,MyOwnSoftware,2013-11-02 10:53:00,
2013-11-02 10:54:00,42.9,40.7,29.36,ENE,68,3.0,5.0,92,0.00,,,0.00,25,MyOwnSoftware,2013-11-02 10:54:00,
2013-11-02 10:55:00,42.9,40.7,29.36,North,0,4.0,6.0,92,0.00,,,0.00,25,MyOwnSoftware,2013-11-02 10:55:00,
2013-11-02 10:56:00,42.9,40.7,29.36,NNE,22,4.0,7.0,92,0.00,,,0.00,25,MyOwnSoftware,2013-11-02 10:56:00,
2013-11-02 10:57:00,42.9,40.7,29.36,North,0,5.0,8.0,92,0.00,,,0.00,23,MyOwnSoftware,2013-11-02 10:57:00,
2013-11-02 10:58:00,42.9,40.7,29.36,NE,45,5.0,6.0,92,0.00,,,0.00,21,MyOwnSoftware,2013-11-02 10:58:00,
2013-11-02 10:59:00,42.9,40.7,29.36,NNE,22,6.0,10.0,92,0.00,,,0.00,21,MyOwnSoftware,2013-11-02 10:59:00,
2013-11-02 11:00:00,42.9,40.7,29.34,North,0,4.0,6.0,92,0.00,,,0.00,21,MyOwnSoftware,2013-11-02 11:00:00,
2013-11-02 11:01:00,42.9,40.7,29.34,North,0,4.0,11.0,92,0.00,,,0.00,21,MyOwnSoftware,2013-11-02 11:01:00,
2013-11-02 11:02:00,42.9,40.7,29.34,NNW,338,4.0,8.0,92,0.00,,,0.00,25,MyOwnSoftware,2013-11-02 11:02:00,
2013-11-02 11:03:00,42.9,40.7,29.34,North,0,3.0,6.0,92,0.00,,,0.00,25,MyOwnSoftware,2013-11-02 11:03:00,
2013-11-02 11:04:00,42.9,40.7,29.34,NE,45,4.0,6.0,92,0.00,,,0.00,25,MyOwnSoftware,2013-11-02 11:04:00,
2013-11-02 11:05:00,43.1,40.9,29.34,North,0,6.0,12.0,92,0.00,,,0.00,25,MyOwnSoftware,2013-11-02 11:05:00,
2013-11-02 11:06:00,43.1,40.9,29.34,ESE,112,5.0,9.0,92,0.00,,,0.00,19,MyOwnSoftware,2013-11-02 11:06:00,
2013-11-02 11:07:00,43.1,41.0,29.34,SE,131,1.0,-999.0,92,-99.99,,,0.00,19,weatherlink.com 1.10,2013-11-02 11:07:00,
2013-11-02 11:08:00,43.1,40.9,29.34,SE,135,3.0,6.0,92,0.00,,,0.00,19,MyOwnSoftware,2013-11-02 11:08:00,
2013-11-02 11:09:00,43.1,40.9,29.34,NNE,22,3.0,6.0,92,0.00,,,0.00,19,MyOwnSoftware,2013-11-02 11:09:00,
2013-11-02 11:10:00,43.1,40.9,29.34,ESE,112,5.0,8.0,92,0.00,,,0.00,14,MyOwnSoftware,2013-11-02 11:10:00,
2013-11-02 11:11:00,43.1,40.9,29.34,NE,45,5.0,10.0,92,0.00,,,0.00,14,MyOwnSoftware,2013-11-02 11:11:00,
2013-11-02 11:12:00,43.1,40.9,29.34,NNE,22,2.0,6.0,92,0.00,,,0.00,14,MyOwnSoftware,2013-11-02 11:12:00,
2013-11-02 11:13:00,43.1,40.9,29.34,ENE,68,4.0,6.0,92,0.00,,,0.00,14,MyOwnSoftware,2013-11-02 11:13:00,
2013-11-02 11:14:00,43.2,41.0,29.34,North,0,6.0,11.0,92,0.00,,,0.00,14,MyOwnSoftware,2013-11-02 11:14:00,
2013-11-02 11:15:00,43.2,41.0,29.33,NE,45,5.0,8.0,92,0.00,,,0.00,14,MyOwnSoftware,2013-11-02 11:15:00,
2013-11-02 11:16:00,43.2,40.8,29.33,NNE,22,4.0,6.0,91,0.00,,,0.00,14,MyOwnSoftware,2013-11-02 11:16:00,
2013-11-02 11:17:00,43.2,40.8,29.33,East,90,4.0,6.0,91,0.00,,,0.00,14,MyOwnSoftware,2013-11-02 11:17:00,
2013-11-02 11:18:00,43.2,40.8,29.33,North,0,5.0,7.0,91,0.00,,,0.00,11,MyOwnSoftware,2013-11-02 11:18:00,
2013-11-02 11:19:00,43.2,40.8,29.33,NNW,338,5.0,8.0,91,0.00,,,0.00,11,MyOwnSoftware,2013-11-02 11:19:00,
2013-11-02 11:20:00,43.2,40.8,29.33,NNE,22,5.0,8.0,91,0.00,,,0.00,11,MyOwnSoftware,2013-11-02 11:20:00,
2013-11-02 11:21:00,43.2,40.8,29.33,NE,45,5.0,8.0,91,0.00,,,0.00,11,MyOwnSoftware,2013-11-02 11:21:00,
2013-11-02 11:22:00,43.2,41.0,29.33,SE,128,3.0,-999.0,91,-99.99,,,0.00,11,weatherlink.com 1.10,2013-11-02 11:22:00,
2013-11-02 11:23:00,43.2,40.8,29.33,NNE,22,5.0,10.0,91,0.00,,,0.00,11,MyOwnSoftware,2013-11-02 11:23:00,
2013-11-02 11:24:00,43.2,40.8,29.33,North,0,5.0,8.0,91,0.00,,,0.00,11,MyOwnSoftware,2013-11-02 11:24:00,
2013-11-02 11:25:00,43.3,40.9,29.33,North,0,6.0,8.0,91,0.00,,,0.00,11,MyOwnSoftware,2013-11-02 11:25:00,
2013-11-02 11:26:00,43.3,40.9,29.33,ENE,68,5.0,7.0,91,0.00,,,0.00,11,MyOwnSoftware,2013-11-02 11:26:00,
2013-11-02 11:27:00,43.3,40.9,29.33,NNE,22,6.0,10.0,91,0.00,,,0.00,11,MyOwnSoftware,2013-11-02 11:27:00,
2013-11-02 11:28:00,43.3,40.9,29.33,North,0,5.0,8.0,91,0.00,,,0.00,11,MyOwnSoftware,2013-11-02 11:28:00,
2013-11-02 11:29:00,43.3,40.9,29.33,ENE,68,5.0,10.0,91,0.00,,,0.00,11,MyOwnSoftware,2013-11-02 11:29:00,
2013-11-02 11:30:00,43.3,40.9,29.30,North,0,5.0,8.0,91,0.00,,,0.00,11,MyOwnSoftware,2013-11-02 11:30:00,
2013-11-02 11:31:00,43.3,40.9,29.30,North,0,5.0,8.0,91,0.00,,,0.00,11,MyOwnSoftware,2013-11-02 11:31:00,
2013-11-02 11:32:00,43.3,40.9,29.30,NE,45,5.0,7.0,91,0.00,,,0.00,11,MyOwnSoftware,2013-11-02 11:32:00,
2013-11-02 11:33:00,43.5,41.0,29.30,North,0,6.0,10.0,91,0.00,,,0.00,11,MyOwnSoftware,2013-11-02 11:33:00,
2013-11-02 11:34:00,43.5,41.0,29.30,ENE,68,6.0,10.0,91,0.00,,,0.00,11,MyOwnSoftware,2013-11-02 11:34:00,
2013-11-02 11:35:00,43.5,41.0,29.30,NE,45,3.0,5.0,91,0.00,,,0.00,12,MyOwnSoftware,2013-11-02 11:35:00,
2013-11-02 11:36:00,43.5,41.0,29.30,ESE,112,5.0,8.0,91,0.00,,,0.00,12,MyOwnSoftware,2013-11-02 11:36:00,
2013-11-02 11:37:00,43.6,41.0,29.30,SE,126,2.0,-999.0,91,-99.99,,,0.00,12,weatherlink.com 1.10,2013-11-02 11:37:00,
2013-11-02 11:38:00,43.6,41.1,29.30,ESE,112,6.0,11.0,91,0.00,,,0.00,12,MyOwnSoftware,2013-11-02 11:38:00,
2013-11-02 11:39:00,43.6,41.1,29.30,ESE,112,3.0,11.0,91,0.00,,,0.00,14,MyOwnSoftware,2013-11-02 11:39:00,
2013-11-02 11:40:00,43.6,41.1,29.30,NE,45,1.0,3.0,91,0.00,,,0.00,14,MyOwnSoftware,2013-11-02 11:40:00,
2013-11-02 11:41:00,43.6,41.4,29.30,ENE,68,3.0,7.0,92,0.00,,,0.00,14,MyOwnSoftware,2013-11-02 11:41:00,
2013-11-02 11:42:00,43.6,41.4,29.30,ENE,68,3.0,6.0,92,0.00,,,0.00,14,MyOwnSoftware,2013-11-02 11:42:00,
2013-11-02 11:43:00,43.8,41.6,29.30,NE,45,4.0,7.0,92,0.00,,,0.00,16,MyOwnSoftware,2013-11-02 11:43:00,
2013-11-02 11:44:00,43.8,41.9,29.30,North,0,4.0,7.0,93,0.00,,,0.01,16,MyOwnSoftware,2013-11-02 11:44:00,
2013-11-02 11:45:00,43.6,41.7,29.29,NE,45,4.0,6.0,93,0.00,,,0.01,16,MyOwnSoftware,2013-11-02 11:45:00,
2013-11-02 11:46:00,43.6,41.7,29.29,East,90,4.0,7.0,93,0.00,,,0.01,16,MyOwnSoftware,2013-11-02 11:46:00,
2013-11-02 11:47:00,43.6,42.0,29.29,NNE,22,6.0,10.0,94,0.00,,,0.01,15,MyOwnSoftware,2013-11-02 11:47:00,
2013-11-02 11:48:00,43.6,42.0,29.29,NNE,22,3.0,6.0,94,0.00,,,0.01,14,MyOwnSoftware,2013-11-02 11:48:00,
2013-11-02 11:49:00,43.6,42.3,29.29,NNE,22,4.0,6.0,95,0.00,,,0.01,14,MyOwnSoftware,2013-11-02 11:49:00,
2013-11-02 11:50:00,43.6,42.3,29.29,North,0,4.0,7.0,95,0.11,,,0.02,14,MyOwnSoftware,2013-11-02 11:50:00,
2013-11-02 11:51:00,43.5,42.4,29.29,North,0,5.0,7.0,96,0.11,,,0.02,14,MyOwnSoftware,2013-11-02 11:51:00,
2013-11-02 11:52:00,43.5,43.0,29.29,North,7,3.0,-999.0,97,-99.99,,,0.02,14,weatherlink.com 1.10,2013-11-02 11:52:00,
2013-11-02 11:53:00,43.5,42.7,29.29,North,0,4.0,6.0,97,0.11,,,0.02,14,MyOwnSoftware,2013-11-02 11:53:00,
2013-11-02 11:54:00,43.5,42.7,29.29,NNE,22,4.0,6.0,97,0.11,,,0.02,14,MyOwnSoftware,2013-11-02 11:54:00,
2013-11-02 11:55:00,43.3,42.8,29.29,NE,45,5.0,8.0,98,0.11,,,0.02,14,MyOwnSoftware,2013-11-02 11:55:00,
2013-11-02 11:56:00,43.3,42.8,29.29,NNE,22,6.0,8.0,98,0.11,,,0.03,12,MyOwnSoftware,2013-11-02 11:56:00,
2013-11-02 11:57:00,43.3,42.8,29.29,NE,45,5.0,8.0,98,0.10,,,0.03,12,MyOwnSoftware,2013-11-02 11:57:00,
2013-11-02 11:58:00,43.2,42.9,29.29,NNE,22,5.0,6.0,99,0.10,,,0.03,12,MyOwnSoftware,2013-11-02 11:58:00,
2013-11-02 11:59:00,43.2,42.9,29.29,NNE,22,3.0,6.0,99,0.10,,,0.03,12,MyOwnSoftware,2013-11-02 11:59:00,
2013-11-02 12:00:00,43.2,42.9,29.26,NNE,22,6.0,8.0,99,0.10,,,0.00,12,MyOwnSoftware,2013-11-02 12:00:00,
2013-11-02 12:01:00,43.2,43.2,29.26,North,0,5.0,6.0,100,0.10,,,0.00,12,MyOwnSoftware,2013-11-02 12:01:00,
2013-11-02 12:02:00,43.2,43.2,29.26,NE,45,4.0,6.0,100,0.09,,,0.00,12,MyOwnSoftware,2013-11-02 12:02:00,
2013-11-02 12:03:00,43.1,43.1,29.26,NE,45,4.0,7.0,100,0.08,,,0.00,12,MyOwnSoftware,2013-11-02 12:03:00,
2013-11-02 12:04:00,43.1,43.1,29.26,NNE,22,4.0,8.0,100,0.07,,,0.00,18,MyOwnSoftware,2013-11-02 12:04:00,
2013-11-02 12:05:00,43.1,43.1,29.26,East,90,5.0,7.0,100,0.06,,,0.00,18,MyOwnSoftware,2013-11-02 12:05:00,
2013-11-02 12:06:00,43.1,43.1,29.26,NNE,22,5.0,9.0,100,0.06,,,0.00,18,MyOwnSoftware,2013-11-02 12:06:00,
2013-11-02 12:07:00,43.1,43.0,29.26,North,0,7.0,-999.0,100,-99.99,,,0.03,18,weatherlink.com 1.10,2013-11-02 12:07:00,
2013-11-02 12:08:00,43.1,43.1,29.26,North,0,5.0,7.0,100,0.05,,,0.00,19,MyOwnSoftware,2013-11-02 12:08:00,
2013-11-02 12:09:00,43.1,43.1,29.26,East,90,3.0,6.0,100,0.05,,,0.01,19,MyOwnSoftware,2013-11-02 12:09:00,
2013-11-02 12:10:00,43.1,43.1,29.26,NE,45,3.0,6.0,100,0.05,,,0.01,19,MyOwnSoftware,2013-11-02 12:10:00,
2013-11-02 12:11:00,43.1,43.1,29.26,NNE,22,4.0,10.0,100,0.05,,,0.01,19,MyOwnSoftware,2013-11-02 12:11:00,
2013-11-02 12:12:00,43.1,43.1,29.26,NNE,22,4.0,7.0,100,0.05,,,0.01,20,MyOwnSoftware,2013-11-02 12:12:00,
2013-11-02 12:13:00,43.1,43.1,29.26,NE,45,2.0,4.0,100,0.05,,,0.01,21,MyOwnSoftware,2013-11-02 12:13:00,
2013-11-02 12:14:00,43.1,43.1,29.26,North,0,3.0,7.0,100,0.12,,,0.02,21,MyOwnSoftware,2013-11-02 12:14:00,
2013-11-02 12:15:00,43.1,43.1,29.25,East,90,3.0,5.0,100,0.12,,,0.02,21,MyOwnSoftware,2013-11-02 12:15:00,
2013-11-02 12:16:00,43.1,43.1,29.25,East,90,3.0,5.0,100,0.12,,,0.02,21,MyOwnSoftware,2013-11-02 12:16:00,
2013-11-02 12:17:00,43.2,43.2,29.25,NE,45,2.0,4.0,100,0.12,,,0.02,21,MyOwnSoftware,2013-11-02 12:17:00,
2013-11-02 12:18:00,43.2,43.2,29.25,NE,45,4.0,7.0,100,0.12,,,0.02,21,MyOwnSoftware,2013-11-02 12:18:00,
2013-11-02 12:19:00,43.2,43.2,29.25,NE,45,3.0,5.0,100,0.11,,,0.02,21,MyOwnSoftware,2013-11-02 12:19:00,
2013-11-02 12:20:00,43.2,43.2,29.25,North,0,5.0,7.0,100,0.11,,,0.03,21,MyOwnSoftware,2013-11-02 12:20:00,
2013-11-02 12:21:00,43.2,43.2,29.25,NE,45,3.0,6.0,100,0.10,,,0.03,23,MyOwnSoftware,2013-11-02 12:21:00,
2013-11-02 12:22:00,43.2,43.0,29.25,ESE,103,8.0,-999.0,100,-99.99,,,0.06,23,weatherlink.com 1.10,2013-11-02 12:22:00,
2013-11-02 12:23:00,43.2,43.2,29.25,East,90,6.0,8.0,100,0.10,,,0.03,23,MyOwnSoftware,2013-11-02 12:23:00,
2013-11-02 12:24:00,43.2,43.2,29.25,NE,45,4.0,7.0,100,0.10,,,0.03,23,MyOwnSoftware,2013-11-02 12:24:00,
2013-11-02 12:25:00,43.2,43.2,29.25,ENE,68,4.0,6.0,100,0.10,,,0.03,19,MyOwnSoftware,2013-11-02 12:25:00,
2013-11-02 12:26:00,43.2,43.2,29.25,North,0,7.0,14.0,100,0.09,,,0.03,19,MyOwnSoftware,2013-11-02 12:26:00,
2013-11-02 12:27:00,43.2,43.2,29.25,North,0,6.0,8.0,100,0.08,,,0.03,19,MyOwnSoftware,2013-11-02 12:27:00,
2013-11-02 12:28:00,43.2,43.2,29.25,NE,45,6.0,8.0,100,0.07,,,0.03,19,MyOwnSoftware,2013-11-02 12:28:00,
2013-11-02 12:29:00,43.2,43.2,29.25,NE,45,5.0,11.0,100,0.06,,,0.03,18,MyOwnSoftware,2013-11-02 12:29:00,
2013-11-02 12:30:00,43.2,43.2,29.22,NNE,22,7.0,11.0,100,0.06,,,0.00,18,MyOwnSoftware,2013-11-02 12:30:00,
2013-11-02 12:31:00,43.2,43.2,29.22,NE,45,4.0,7.0,100,0.05,,,0.00,18,MyOwnSoftware,2013-11-02 12:31:00,
2013-11-02 12:32:00,43.2,43.2,29.22,North,0,6.0,8.0,100,0.05,,,0.00,18,MyOwnSoftware,2013-11-02 12:32:00,
2013-11-02 12:33:00,43.3,43.3,29.22,North,0,5.0,14.0,100,0.04,,,0.00,16,MyOwnSoftware,2013-11-02 12:33:00,
2013-11-02 12:34:00,43.3,43.3,29.22,North,0,5.0,10.0,100,0.04,,,0.00,16,MyOwnSoftware,2013-11-02 12:34:00,
2013-11-02 12:35:00,43.3,43.3,29.22,NE,45,5.0,10.0,100,0.04,,,0.00,16,MyOwnSoftware,2013-11-02 12:35:00,
2013-11-02 12:36:00,43.3,43.3,29.22,NNE,22,6.0,10.0,100,0.04,,,0.00,16,MyOwnSoftware,2013-11-02 12:36:00,
2013-11-02 12:37:00,43.3,43.0,29.22,North,8,6.0,-999.0,100,-99.99,,,0.07,16,weatherlink.com 1.10,2013-11-02 12:37:00,
2013-11-02 12:38:00,43.3,43.3,29.22,North,0,5.0,7.0,100,0.04,,,0.01,16,MyOwnSoftware,2013-11-02 12:38:00,
2013-11-02 12:39:00,43.3,43.3,29.22,NE,45,3.0,6.0,100,0.04,,,0.01,16,MyOwnSoftware,2013-11-02 12:39:00,
2013-11-02 12:40:00,43.3,43.3,29.22,North,0,6.0,12.0,100,0.04,,,0.01,16,MyOwnSoftware,2013-11-02 12:40:00,
2013-11-02 12:41:00,43.5,43.5,29.22,NNE,22,6.0,11.0,100,0.04,,,0.01,16,MyOwnSoftware,2013-11-02 12:41:00,
2013-11-02 12:42:00,43.5,43.5,29.22,NNE,22,6.0,10.0,100,0.04,,,0.01,32,MyOwnSoftware,2013-11-02 12:42:00,
2013-11-02 12:43:00,43.5,43.5,29.22,NE,45,6.0,8.0,100,0.04,,,0.01,32,MyOwnSoftware,2013-11-02 12:43:00,
2013-11-02 12:44:00,43.5,43.5,29.22,NE,45,6.0,11.0,100,0.04,,,0.01,32,MyOwnSoftware,2013-11-02 12:44:00,
2013-11-02 12:45:00,43.5,43.5,29.20,NE,45,7.0,10.0,100,0.04,,,0.01,32,MyOwnSoftware,2013-11-02 12:45:00,
2013-11-02 12:46:00,43.6,43.6,29.20,NE,45,5.0,8.0,100,0.04,,,0.01,70,MyOwnSoftware,2013-11-02 12:46:00,
2013-11-02 12:47:00,43.6,43.6,29.20,NE,45,6.0,7.0,100,0.04,,,0.01,107,MyOwnSoftware,2013-11-02 12:47:00,
2013-11-02 12:48:00,43.6,43.6,29.20,NNE,22,5.0,8.0,100,0.04,,,0.01,209,MyOwnSoftware,2013-11-02 12:48:00,
2013-11-02 12:49:00,43.8,43.8,29.20,NNE,22,6.0,12.0,100,0.04,,,0.01,209,MyOwnSoftware,2013-11-02 12:49:00,
2013-11-02 12:50:00,43.8,43.8,29.20,NNE,22,7.0,10.0,100,0.04,,,0.01,229,MyOwnSoftware,2013-11-02 12:50:00,
2013-11-02 12:51:00,43.9,43.9,29.20,North,0,7.0,11.0,100,0.04,,,0.01,239,MyOwnSoftware,2013-11-02 12:51:00,
2013-11-02 12:52:00,44.1,44.0,29.20,ESE,106,7.0,-999.0,100,-99.99,,,0.07,216,weatherlink.com 1.10,2013-11-02 12:52:00,
2013-11-02 12:53:00,44.1,44.1,29.20,North,0,7.0,11.0,100,0.04,,,0.01,195,MyOwnSoftware,2013-11-02 12:53:00,
2013-11-02 12:54:00,44.2,44.2,29.20,NE,45,7.0,11.0,100,0.00,,,0.01,183,MyOwnSoftware,2013-11-02 12:54:00,
2013-11-02 12:55:00,44.2,44.2,29.20,NE,45,7.0,14.0,100,0.00,,,0.01,197,MyOwnSoftware,2013-11-02 12:55:00,
2013-11-02 12:56:00,44.3,44.3,29.20,North,0,9.0,13.0,100,0.00,,,0.01,158,MyOwnSoftware,2013-11-02 12:56:00,
2013-11-02 12:57:00,44.3,44.3,29.20,North,0,9.0,12.0,100,0.00,,,0.01,176,MyOwnSoftware,2013-11-02 12:57:00,
2013-11-02 12:58:00,44.5,44.5,29.20,NNE,22,5.0,8.0,100,0.00,,,0.01,216,MyOwnSoftware,2013-11-02 12:58:00,
2013-11-02 12:59:00,44.6,44.6,29.20,North,0,8.0,13.0,100,0.00,,,0.01,220,MyOwnSoftware,2013-11-02 12:59:00,
2013-11-02 13:00:00,44.6,44.6,29.17,North,0,7.0,12.0,100,0.00,,,0.00,202,MyOwnSoftware,2013-11-02 13:00:00,
2013-11-02 13:01:00,44.8,44.8,29.17,North,0,5.0,8.0,100,0.00,,,0.00,171,MyOwnSoftware,2013-11-02 13:01:00,
2013-11-02 13:02:00,44.8,44.8,29.17,NE,45,6.0,7.0,100,0.00,,,0.00,135,MyOwnSoftware,2013-11-02 13:02:00,
2013-11-02 13:03:00,44.8,44.8,29.17,North,0,4.0,7.0,100,0.00,,,0.00,113,MyOwnSoftware,2013-11-02 13:03:00,
2013-11-02 13:04:00,44.9,44.9,29.17,North,0,2.0,6.0,100,0.00,,,0.00,107,MyOwnSoftware,2013-11-02 13:04:00,
2013-11-02 13:05:00,44.9,44.9,29.17,NNE,22,3.0,10.0,100,0.00,,,0.00,97,MyOwnSoftware,2013-11-02 13:05:00,
2013-11-02 13:06:00,44.9,44.9,29.17,North,0,5.0,11.0,100,0.00,,,0.00,86,MyOwnSoftware,2013-11-02 13:06:00,
2013-11-02 13:07:00,45.1,45.0,29.17,ENE,58,1.0,-999.0,100,-99.99,,,0.07,72,weatherlink.com 1.10,2013-11-02 13:07:00,
2013-11-02 13:08:00,45.1,45.1,29.17,ENE,68,2.0,5.0,100,0.00,,,0.00,70,MyOwnSoftware,2013-11-02 13:08:00,
2013-11-02 13:09:00,45.1,45.1,29.17,WNW,292,2.0,3.0,100,0.00,,,0.00,67,MyOwnSoftware,2013-11-02 13:09:00,
2013-11-02 13:10:00,45.1,45.1,29.17,WSW,248,3.0,7.0,100,0.00,,,0.00,67,MyOwnSoftware,2013-11-02 13:10:00,
2013-11-02 13:11:00,45.1,45.1,29.17,North,0,3.0,6.0,100,0.00,,,0.00,63,MyOwnSoftware,2013-11-02 13:11:00,
2013-11-02 13:12:00,45.2,45.2,29.17,North,0,5.0,11.0,100,0.00,,,0.00,61,MyOwnSoftware,2013-11-02 13:12:00,
2013-11-02 13:13:00,45.2,45.2,29.17,East,90,6.0,11.0,100,0.00,,,0.00,63,MyOwnSoftware,2013-11-02 13:13:00,
2013-11-02 13:14:00,45.2,45.2,29.17,East,90,6.0,10.0,100,0.00,,,0.00,76,MyOwnSoftware,2013-11-02 13:14:00,
2013-11-02 13:15:00,45.2,45.2,29.15,ESE,112,2.0,3.0,100,0.00,,,0.00,99,MyOwnSoftware,2013-11-02 13:15:00,
2013-11-02 13:16:00,45.2,45.2,29.15,ESE,112,4.0,11.0,100,0.00,,,0.00,127,MyOwnSoftware,2013-11-02 13:16:00,
2013-11-02 13:17:00,45.4,45.4,29.15,North,0,4.0,6.0,100,0.00,,,0.00,166,MyOwnSoftware,2013-11-02 13:17:00,
2013-11-02 13:18:00,45.4,45.4,29.15,North,0,4.0,7.0,100,0.00,,,0.00,179,MyOwnSoftware,2013-11-02 13:18:00,
2013-11-02 13:19:00,45.4,45.4,29.15,ESE,112,6.0,10.0,100,0.00,,,0.00,179,MyOwnSoftware,2013-11-02 13:19:00,
2013-11-02 13:20:00,45.5,45.5,29.15,ENE,68,6.0,10.0,100,0.00,,,0.00,144,MyOwnSoftware,2013-11-02 13:20:00,
2013-11-02 13:21:00,45.5,45.5,29.15,East,90,5.0,10.0,100,0.00,,,0.00,113,MyOwnSoftware,2013-11-02 13:21:00,
2013-11-02 13:22:00,45.7,46.0,29.15,East,85,4.0,-999.0,100,-99.99,,,0.07,130,weatherlink.com 1.10,2013-11-02 13:22:00,
2013-11-02 13:23:00,45.7,45.7,29.15,ESE,112,7.0,13.0,100,0.00,,,0.00,130,MyOwnSoftware,2013-11-02 13:23:00,
2013-11-02 13:24:00,45.7,45.7,29.15,North,0,6.0,12.0,100,0.00,,,0.00,100,MyOwnSoftware,2013-11-02 13:24:00,
2013-11-02 13:25:00,45.8,45.8,29.15,SE,135,4.0,10.0,100,0.00,,,0.00,141,MyOwnSoftware,2013-11-02 13:25:00,
2013-11-02 13:26:00,45.8,45.8,29.15,ESE,112,5.0,11.0,100,0.00,,,0.00,158,MyOwnSoftware,2013-11-02 13:26:00,
2013-11-02 13:27:00,45.8,45.8,29.15,ENE,68,4.0,10.0,100,0.00,,,0.00,97,MyOwnSoftware,2013-11-02 13:27:00,
2013-11-02 13:28:00,46.0,46.0,29.15,ESE,112,5.0,13.0,100,0.00,,,0.00,74,MyOwnSoftware,2013-11-02 13:28:00,
2013-11-02 13:29:00,46.0,46.0,29.15,East,90,4.0,9.0,100,0.00,,,0.00,76,MyOwnSoftware,2013-11-02 13:29:00,
2013-11-02 13:30:00,46.0,46.0,29.13,ESE,112,7.0,13.0,100,0.00,,,0.00,74,MyOwnSoftware,2013-11-02 13:30:00,
2013-11-02 13:31:00,46.0,46.0,29.13,NNE,22,3.0,5.0,100,0.00,,,0.00,70,MyOwnSoftware,2013-11-02 13:31:00,
2013-11-02 13:32:00,46.1,46.1,29.13,ESE,112,6.0,12.0,100,0.00,,,0.00,72,MyOwnSoftware,2013-11-02 13:32:00,
2013-11-02 13:33:00,46.1,46.1,29.13,SE,135,3.0,6.0,100,0.00,,,0.00,65,MyOwnSoftware,2013-11-02 13:33:00,
2013-11-02 13:34:00,46.1,46.1,29.13,NNE,22,3.0,6.0,100,0.00,,,0.00,60,MyOwnSoftware,2013-11-02 13:34:00,
2013-11-02 13:35:00,46.1,46.1,29.13,SSE,158,5.0,8.0,100,0.00,,,0.00,58,MyOwnSoftware,2013-11-02 13:35:00,
2013-11-02 13:36:00,46.1,46.1,29.13,North,0,5.0,8.0,100,0.00,,,0.00,63,MyOwnSoftware,2013-11-02 13:36:00,
2013-11-02 13:37:00,46.1,46.1,29.13,NE,45,7.0,9.0,100,0.00,,,0.00,70,MyOwnSoftware,2013-11-02 13:37:00,
2013-11-02 13:38:00,46.1,46.0,29.13,ESE,116,10.0,-999.0,100,-99.99,,,0.07,77,weatherlink.com 1.10,2013-11-02 13:38:00,
2013-11-02 13:39:00,46.1,46.1,29.13,SE,135,6.0,12.0,100,0.00,,,0.00,79,MyOwnSoftware,2013-11-02 13:39:00,
2013-11-02 13:40:00,46.1,46.1,29.13,ESE,112,6.0,8.0,100,0.00,,,0.00,83,MyOwnSoftware,2013-11-02 13:40:00,
2013-11-02 13:41:00,46.1,46.1,29.13,ENE,68,2.0,7.0,100,0.00,,,0.00,86,MyOwnSoftware,2013-11-02 13:41:00,
2013-11-02 13:42:00,46.2,46.2,29.13,ESE,112,6.0,8.0,100,0.00,,,0.00,91,MyOwnSoftware,2013-11-02 13:42:00,
2013-11-02 13:43:00,46.2,46.2,29.13,ESE,112,7.0,11.0,100,0.00,,,0.00,90,MyOwnSoftware,2013-11-02 13:43:00,
2013-11-02 13:44:00,46.2,46.2,29.13,SE,135,6.0,10.0,100,0.00,,,0.00,88,MyOwnSoftware,2013-11-02 13:44:00,
2013-11-02 13:45:00,46.2,46.2,29.12,SE,135,6.0,11.0,100,0.00,,,0.00,83,MyOwnSoftware,2013-11-02 13:45:00,
2013-11-02 13:46:00,46.2,46.2,29.12,North,0,6.0,10.0,100,0.00,,,0.00,76,MyOwnSoftware,2013-11-02 13:46:00,
2013-11-02 13:47:00,46.2,46.2,29.12,ESE,112,6.0,12.0,100,0.00,,,0.00,80,MyOwnSoftware,2013-11-02 13:47:00,
2013-11-02 13:48:00,46.2,46.2,29.12,NE,45,8.0,14.0,100,0.00,,,0.00,88,MyOwnSoftware,2013-11-02 13:48:00,
2013-11-02 13:49:00,46.2,46.2,29.12,East,90,6.0,10.0,100,0.00,,,0.00,102,MyOwnSoftware,2013-11-02 13:49:00,
2013-11-02 13:50:00,46.2,46.2,29.12,ENE,68,5.0,14.0,100,0.00,,,0.00,106,MyOwnSoftware,2013-11-02 13:50:00,
2013-11-02 13:51:00,46.2,46.2,29.12,ESE,112,5.0,10.0,100,0.00,,,0.00,102,MyOwnSoftware,2013-11-02 13:51:00,
2013-11-02 13:52:00,46.4,46.4,29.12,ENE,68,3.0,8.0,100,0.00,,,0.00,91,MyOwnSoftware,2013-11-02 13:52:00,
2013-11-02 13:53:00,46.4,46.0,29.12,North,3,6.0,-999.0,100,-99.99,,,0.07,74,weatherlink.com 1.10,2013-11-02 13:53:00,
2013-11-02 13:54:00,46.4,46.4,29.12,NE,45,4.0,11.0,100,0.00,,,0.00,76,MyOwnSoftware,2013-11-02 13:54:00,
2013-11-02 13:55:00,46.4,46.4,29.12,NE,45,5.0,10.0,100,0.00,,,0.00,81,MyOwnSoftware,2013-11-02 13:55:00,
2013-11-02 13:56:00,46.4,46.4,29.12,North,0,6.0,11.0,100,0.00,,,0.00,88,MyOwnSoftware,2013-11-02 13:56:00,
2013-11-02 13:57:00,46.4,46.4,29.12,SE,135,3.0,7.0,100,0.00,,,0.00,88,MyOwnSoftware,2013-11-02 13:57:00,
2013-11-02 13:58:00,46.4,46.4,29.12,NNE,22,7.0,16.0,100,0.00,,,0.00,99,MyOwnSoftware,2013-11-02 13:58:00,
2013-11-02 13:59:00,46.4,46.4,29.12,North,0,7.0,12.0,100,0.00,,,0.00,107,MyOwnSoftware,2013-11-02 13:59:00,
2013-11-02 14:00:00,46.4,46.4,29.10,ENE,68,6.0,10.0,100,0.00,,,0.00,118,MyOwnSoftware,2013-11-02 14:00:00,
2013-11-02 14:01:00,46.4,46.4,29.10,North,0,5.0,7.0,100,0.00,,,0.00,114,MyOwnSoftware,2013-11-02 14:01:00,
2013-11-02 14:02:00,46.4,46.4,29.10,NNE,22,7.0,12.0,100,0.00,,,0.00,103,MyOwnSoftware,2013-11-02 14:02:00,
2013-11-02 14:03:00,46.5,46.5,29.10,NE,45,5.0,10.0,100,0.00,,,0.00,125,MyOwnSoftware,2013-11-02 14:03:00,
2013-11-02 14:04:00,46.5,46.5,29.10,North,0,4.0,7.0,100,0.00,,,0.00,125,MyOwnSoftware,2013-11-02 14:04:00,
2013-11-02 14:05:00,46.5,46.5,29.10,NE,45,5.0,11.0,100,0.00,,,0.00,121,MyOwnSoftware,2013-11-02 14:05:00,
2013-11-02 14:06:00,46.5,46.5,29.10,North,0,5.0,10.0,100,0.00,,,0.00,109,MyOwnSoftware,2013-11-02 14:06:00,
2013-11-02 14:07:00,46.5,46.5,29.10,South,180,2.0,3.0,100,0.00,,,0.00,95,MyOwnSoftware,2013-11-02 14:07:00,
2013-11-02 14:08:00,46.5,47.0,29.10,ESE,116,6.0,-999.0,100,-99.99,,,0.07,69,weatherlink.com 1.10,2013-11-02 14:08:00,
2013-11-02 14:09:00,46.5,46.5,29.10,NNE,22,6.0,8.0,100,0.00,,,0.00,58,MyOwnSoftware,2013-11-02 14:09:00,
2013-11-02 14:10:00,46.5,46.5,29.10,ENE,68,5.0,8.0,100,0.00,,,0.00,55,MyOwnSoftware,2013-11-02 14:10:00,
2013-11-02 14:11:00,46.5,46.5,29.10,North,0,6.0,7.0,100,0.00,,,0.00,55,MyOwnSoftware,2013-11-02 14:11:00,
2013-11-02 14:12:00,46.5,46.5,29.10,North,0,4.0,6.0,100,0.00,,,0.00,79,MyOwnSoftware,2013-11-02 14:12:00,
2013-11-02 14:13:00,46.5,46.5,29.10,North,0,5.0,11.0,100,0.00,,,0.00,70,MyOwnSoftware,2013-11-02 14:13:00,
2013-11-02 14:14:00,46.5,46.5,29.10,ENE,68,4.0,7.0,100,0.00,,,0.00,67,MyOwnSoftware,2013-11-02 14:14:00,
2013-11-02 14:15:00,46.5,46.5,29.09,NNE,22,5.0,7.0,100,0.00,,,0.00,74,MyOwnSoftware,2013-11-02 14:15:00,
2013-11-02 14:16:00,46.5,46.5,29.09,NNE,22,5.0,8.0,100,0.00,,,0.00,79,MyOwnSoftware,2013-11-02 14:16:00,
2013-11-02 14:17:00,46.5,46.5,29.09,North,0,5.0,10.0,100,0.00,,,0.00,77,MyOwnSoftware,2013-11-02 14:17:00,
2013-11-02 14:18:00,46.4,46.4,29.09,North,0,5.0,8.0,100,0.00,,,0.00,70,MyOwnSoftware,2013-11-02 14:18:00,
2013-11-02 14:19:00,46.4,46.4,29.09,NE,45,5.0,12.0,100,0.00,,,0.00,86,MyOwnSoftware,2013-11-02 14:19:00,
2013-11-02 14:20:00,46.4,46.4,29.09,NE,45,3.0,6.0,100,0.00,,,0.00,100,MyOwnSoftware,2013-11-02 14:20:00,
2013-11-02 14:21:00,46.4,46.4,29.09,NNE,22,4.0,7.0,100,0.00,,,0.00,106,MyOwnSoftware,2013-11-02 14:21:00,
2013-11-02 14:22:00,46.4,46.4,29.09,NE,45,5.0,8.0,100,0.00,,,0.00,120,MyOwnSoftware,2013-11-02 14:22:00,
2013-11-02 14:23:00,46.5,47.0,29.09,NNE,31,4.0,-999.0,100,-99.99,,,0.07,104,weatherlink.com 1.10,2013-11-02 14:23:00,
2013-11-02 14:24:00,46.5,46.5,29.09,NNE,22,3.0,6.0,100,0.00,,,0.00,97,MyOwnSoftware,2013-11-02 14:24:00,
2013-11-02 14:25:00,46.5,46.5,29.09,NNE,22,2.0,4.0,100,0.00,,,0.00,81,MyOwnSoftware,2013-11-02 14:25:00,
2013-11-02 14:26:00,46.5,46.5,29.09,North,0,4.0,6.0,100,0.00,,,0.00,67,MyOwnSoftware,2013-11-02 14:26:00,
2013-11-02 14:27:00,46.5,46.5,29.09,North,0,5.0,7.0,100,0.00,,,0.00,52,MyOwnSoftware,2013-11-02 14:27:00,
2013-11-02 14:28:00,46.5,46.5,29.09,NNE,22,3.0,6.0,100,0.00,,,0.00,44,MyOwnSoftware,2013-11-02 14:28:00,
2013-11-02 14:29:00,46.5,46.5,29.09,NE,45,5.0,6.0,100,0.00,,,0.00,40,MyOwnSoftware,2013-11-02 14:29:00,
2013-11-02 14:30:00,46.7,46.7,29.07,NNE,22,5.0,7.0,100,0.00,,,0.00,42,MyOwnSoftware,2013-11-02 14:30:00,
2013-11-02 14:31:00,46.7,46.7,29.07,NE,45,5.0,11.0,100,0.00,,,0.00,53,MyOwnSoftware,2013-11-02 14:31:00,
2013-11-02 14:32:00,46.7,46.7,29.07,NNE,22,4.0,7.0,100,0.00,,,0.00,56,MyOwnSoftware,2013-11-02 14:32:00,
2013-11-02 14:33:00,46.7,46.7,29.07,ENE,68,4.0,6.0,100,0.00,,,0.00,55,MyOwnSoftware,2013-11-02 14:33:00,
2013-11-02 14:34:00,46.7,46.7,29.07,NNE,22,6.0,8.0,100,0.00,,,0.00,48,MyOwnSoftware,2013-11-02 14:34:00,
2013-11-02 14:35:00,46.7,46.7,29.07,NNE,22,5.0,7.0,100,0.00,,,0.00,37,MyOwnSoftware,2013-11-02 14:35:00,
2013-11-02 14:36:00,46.7,46.7,29.07,NNE,22,7.0,11.0,100,0.00,,,0.00,32,MyOwnSoftware,2013-11-02 14:36:00,
2013-11-02 14:37:00,46.8,46.8,29.07,NNE,22,5.0,7.0,100,0.00,,,0.00,44,MyOwnSoftware,2013-11-02 14:37:00,
2013-11-02 14:38:00,46.8,47.0,29.07,NNE,17,8.0,-999.0,100,-99.99,,,0.07,56,weatherlink.com 1.10,2013-11-02 14:38:00,
2013-11-02 14:39:00,46.8,46.8,29.07,NE,45,5.0,8.0,100,0.00,,,0.00,62,MyOwnSoftware,2013-11-02 14:39:00,
2013-11-02 14:40:00,46.8,46.8,29.07,ENE,68,5.0,7.0,100,0.00,,,0.00,58,MyOwnSoftware,2013-11-02 14:40:00,
2013-11-02 14:41:00,46.8,46.8,29.07,NE,45,5.0,8.0,100,0.00,,,0.00,53,MyOwnSoftware,2013-11-02 14:41:00,
2013-11-02 14:42:00,46.8,46.8,29.07,ENE,68,5.0,7.0,100,0.00,,,0.00,36,MyOwnSoftware,2013-11-02 14:42:00,
2013-11-02 14:43:00,46.8,46.8,29.07,North,0,5.0,7.0,100,0.00,,,0.00,25,MyOwnSoftware,2013-11-02 14:43:00,
2013-11-02 14:44:00,46.8,46.8,29.07,NE,45,6.0,11.0,100,0.00,,,0.00,23,MyOwnSoftware,2013-11-02 14:44:00,
2013-11-02 14:45:00,46.8,46.8,29.06,NE,45,4.0,6.0,100,0.00,,,0.00,21,MyOwnSoftware,2013-11-02 14:45:00,
2013-11-02 14:46:00,46.8,46.8,29.06,ENE,68,4.0,7.0,100,0.00,,,0.00,21,MyOwnSoftware,2013-11-02 14:46:00,
2013-11-02 14:47:00,46.8,46.8,29.06,North,0,6.0,10.0,100,0.00,,,0.00,21,MyOwnSoftware,2013-11-02 14:47:00,
2013-11-02 14:48:00,46.8,46.8,29.06,North,0,4.0,6.0,100,0.00,,,0.00,21,MyOwnSoftware,2013-11-02 14:48:00,
2013-11-02 14:49:00,46.8,46.8,29.06,North,0,4.0,6.0,100,0.00,,,0.00,19,MyOwnSoftware,2013-11-02 14:49:00,
2013-11-02 14:50:00,46.8,46.8,29.06,NE,45,2.0,3.0,100,0.00,,,0.00,16,MyOwnSoftware,2013-11-02 14:50:00,
2013-11-02 14:51:00,46.8,46.8,29.06,North,0,3.0,6.0,100,0.00,,,0.01,14,MyOwnSoftware,2013-11-02 14:51:00,
2013-11-02 14:52:00,46.8,46.8,29.06,North,0,2.0,3.0,100,0.00,,,0.01,17,MyOwnSoftware,2013-11-02 14:52:00,
2013-11-02 14:53:00,46.8,47.0,29.06,North,1,2.0,-999.0,100,-99.99,,,0.08,18,weatherlink.com 1.10,2013-11-02 14:53:00,
2013-11-02 14:54:00,46.8,46.8,29.06,North,0,2.0,2.0,100,0.00,,,0.01,18,MyOwnSoftware,2013-11-02 14:54:00,
2013-11-02 14:55:00,46.8,46.8,29.06,North,0,2.0,4.0,100,0.00,,,0.01,18,MyOwnSoftware,2013-11-02 14:55:00,
2013-11-02 14:56:00,46.8,46.8,29.06,NE,45,1.0,3.0,100,0.00,,,0.01,18,MyOwnSoftware,2013-11-02 14:56:00,
2013-11-02 14:57:00,46.8,46.8,29.06,NE,45,2.0,3.0,100,0.00,,,0.01,18,MyOwnSoftware,2013-11-02 14:57:00,
2013-11-02 14:58:00,46.8,46.8,29.06,NNE,22,4.0,6.0,100,0.00,,,0.01,18,MyOwnSoftware,2013-11-02 14:58:00,
2013-11-02 14:59:00,46.8,46.8,29.06,NNE,22,3.0,4.0,100,0.00,,,0.01,18,MyOwnSoftware,2013-11-02 14:59:00,
2013-11-02 15:00:00,46.8,46.8,29.04,NNE,22,4.0,8.0,100,0.00,,,0.00,18,MyOwnSoftware,2013-11-02 15:00:00,
2013-11-02 15:01:00,46.7,46.7,29.04,NNE,22,1.0,3.0,100,0.00,,,0.00,32,MyOwnSoftware,2013-11-02 15:01:00,
2013-11-02 15:02:00,46.7,46.7,29.04,North,0,0.0,0.0,100,0.00,,,0.00,32,MyOwnSoftware,2013-11-02 15:02:00,
2013-11-02 15:03:00,46.7,46.7,29.04,NE,45,1.0,3.0,100,0.00,,,0.00,32,MyOwnSoftware,2013-11-02 15:03:00,
2013-11-02 15:04:00,46.7,46.7,29.04,NE,45,1.0,2.0,100,0.05,,,0.01,32,MyOwnSoftware,2013-11-02 15:04:00,
2013-11-02 15:05:00,46.7,46.7,29.04,NE,45,1.0,2.0,100,0.05,,,0.01,51,MyOwnSoftware,2013-11-02 15:05:00,
2013-11-02 15:06:00,46.7,46.7,29.04,NNE,22,1.0,2.0,100,0.05,,,0.01,51,MyOwnSoftware,2013-11-02 15:06:00,
2013-11-02 15:07:00,46.7,46.7,29.04,NNE,22,1.0,2.0,100,0.05,,,0.01,51,MyOwnSoftware,2013-11-02 15:07:00,
2013-11-02 15:08:00,46.7,47.0,29.04,NNE,30,0.0,-999.0,100,-99.99,,,0.09,51,weatherlink.com 1.10,2013-11-02 15:08:00,
2013-11-02 15:09:00,46.7,46.7,29.04,North,0,1.0,5.0,100,0.05,,,0.01,28,MyOwnSoftware,2013-11-02 15:09:00,
2013-11-02 15:10:00,46.7,46.7,29.04,NNE,22,2.0,5.0,100,0.05,,,0.01,28,MyOwnSoftware,2013-11-02 15:10:00,
2013-11-02 15:11:00,46.7,46.7,29.04,NNE,22,2.0,3.0,100,0.05,,,0.01,28,MyOwnSoftware,2013-11-02 15:11:00,
2013-11-02 15:12:00,46.7,46.7,29.04,North,0,1.0,2.0,100,0.05,,,0.01,28,MyOwnSoftware,2013-11-02 15:12:00,
2013-11-02 15:13:00,46.7,46.7,29.04,North,0,1.0,2.0,100,0.05,,,0.01,21,MyOwnSoftware,2013-11-02 15:13:00,
2013-11-02 15:14:00,46.7,46.7,29.04,North,0,1.0,2.0,100,0.05,,,0.01,21,MyOwnSoftware,2013-11-02 15:14:00,
2013-11-02 15:15:00,46.7,46.7,29.02,North,0,1.0,3.0,100,0.05,,,0.01,21,MyOwnSoftware,2013-11-02 15:15:00,
2013-11-02 15:16:00,46.7,46.7,29.02,North,0,1.0,3.0,100,0.05,,,0.01,21,MyOwnSoftware,2013-11-02 15:16:00,
2013-11-02 15:17:00,46.7,46.7,29.02,North,0,4.0,6.0,100,0.05,,,0.02,20,MyOwnSoftware,2013-11-02 15:17:00,
2013-11-02 15:18:00,46.7,46.7,29.02,North,0,2.0,2.0,100,0.05,,,0.02,18,MyOwnSoftware,2013-11-02 15:18:00,
2013-11-02 15:19:00,46.7,46.7,29.02,North,0,2.0,4.0,100,0.05,,,0.02,18,MyOwnSoftware,2013-11-02 15:19:00,
2013-11-02 15:20:00,46.7,46.7,29.02,North,0,1.0,3.0,100,0.05,,,0.02,18,MyOwnSoftware,2013-11-02 15:20:00,
2013-11-02 15:21:00,46.7,46.7,29.02,North,0,2.0,5.0,100,0.05,,,0.02,18,MyOwnSoftware,2013-11-02 15:21:00,
2013-11-02 15:22:00,46.7,46.7,29.02,North,0,1.0,2.0,100,0.05,,,0.02,14,MyOwnSoftware,2013-11-02 15:22:00,
2013-11-02 15:23:00,46.7,47.0,29.02,North,4,2.0,-999.0,100,-99.99,,,0.10,14,weatherlink.com 1.10,2013-11-02 15:23:00,
2013-11-02 15:24:00,46.7,46.7,29.02,North,0,2.0,3.0,100,0.05,,,0.02,14,MyOwnSoftware,2013-11-02 15:24:00,
2013-11-02 15:25:00,46.7,46.7,29.02,North,0,1.0,2.0,100,0.05,,,0.02,14,MyOwnSoftware,2013-11-02 15:25:00,
2013-11-02 15:26:00,46.7,46.7,29.02,North,0,1.0,2.0,100,0.05,,,0.02,14,MyOwnSoftware,2013-11-02 15:26:00,
2013-11-02 15:27:00,46.7,46.7,29.02,North,0,1.0,3.0,100,0.05,,,0.02,14,MyOwnSoftware,2013-11-02 15:27:00,
2013-11-02 15:28:00,46.7,46.7,29.02,North,0,0.0,2.0,100,0.05,,,0.02,14,MyOwnSoftware,2013-11-02 15:28:00,
2013-11-02 15:29:00,46.7,46.7,29.02,North,0,2.0,3.0,100,0.05,,,0.02,14,MyOwnSoftware,2013-11-02 15:29:00,
2013-11-02 15:30:00,46.7,46.7,29.00,North,0,1.0,2.0,100,0.04,,,0.00,19,MyOwnSoftware,2013-11-02 15:30:00,
2013-11-02 15:31:00,46.7,46.7,29.00,North,0,1.0,3.0,100,0.04,,,0.00,19,MyOwnSoftware,2013-11-02 15:31:00,
2013-11-02 15:32:00,46.7,46.7,29.00,North,0,1.0,2.0,100,0.04,,,0.00,19,MyOwnSoftware,2013-11-02 15:32:00,
2013-11-02 15:33:00,46.7,46.7,29.00,North,0,3.0,5.0,100,0.04,,,0.00,19,MyOwnSoftware,2013-11-02 15:33:00,
2013-11-02 15:34:00,46.7,46.7,29.00,NNE,22,2.0,4.0,100,0.00,,,0.00,18,MyOwnSoftware,2013-11-02 15:34:00,
2013-11-02 15:35:00,46.7,46.7,29.00,NNE,22,1.0,2.0,100,0.00,,,0.00,18,MyOwnSoftware,2013-11-02 15:35:00,
2013-11-02 15:36:00,46.8,46.8,29.00,NNE,22,1.0,2.0,100,0.00,,,0.00,18,MyOwnSoftware,2013-11-02 15:36:00,
2013-11-02 15:37:00,46.8,46.8,29.00,NNE,22,1.0,3.0,100,0.00,,,0.00,18,MyOwnSoftware,2013-11-02 15:37:00,
2013-11-02 15:38:00,46.8,47.0,29.00,NNE,23,2.0,-999.0,100,-99.99,,,0.10,18,weatherlink.com 1.10,2013-11-02 15:38:00,
2013-11-02 15:39:00,46.8,46.8,29.00,NNE,22,2.0,3.0,100,0.00,,,0.00,18,MyOwnSoftware,2013-11-02 15:39:00,
2013-11-02 15:40:00,46.8,46.8,29.00,NNE,22,0.0,1.0,100,0.00,,,0.00,18,MyOwnSoftware,2013-11-02 15:40:00,
2013-11-02 15:41:00,46.8,46.8,29.00,NNE,22,3.0,5.0,100,0.00,,,0.00,18,MyOwnSoftware,2013-11-02 15:41:00,
2013-11-02 15:42:00,46.8,46.8,29.00,North,0,3.0,5.0,100,0.00,,,0.00,19,MyOwnSoftware,2013-11-02 15:42:00,
2013-11-02 15:43:00,46.8,46.8,29.00,North,0,2.0,3.0,100,0.00,,,0.00,19,MyOwnSoftware,2013-11-02 15:43:00,
2013-11-02 15:44:00,46.8,46.8,29.00,NNE,22,2.0,3.0,100,0.00,,,0.00,19,MyOwnSoftware,2013-11-02 15:44:00,
2013-11-02 15:45:00,46.8,46.8,28.99,NE,45,3.0,3.0,100,0.00,,,0.00,19,MyOwnSoftware,2013-11-02 15:45:00,
2013-11-02 15:46:00,47.0,47.0,28.99,NE,45,3.0,5.0,100,0.00,,,0.00,19,MyOwnSoftware,2013-11-02 15:46:00,
2013-11-02 15:47:00,47.0,47.0,28.99,NNE,22,3.0,4.0,100,0.00,,,0.00,18,MyOwnSoftware,2013-11-02 15:47:00,
2013-11-02 15:48:00,47.0,47.0,28.99,NNE,22,1.0,3.0,100,0.00,,,0.00,18,MyOwnSoftware,2013-11-02 15:48:00,
2013-11-02 15:49:00,47.0,47.0,28.99,NNE,22,2.0,3.0,100,0.00,,,0.00,18,MyOwnSoftware,2013-11-02 15:49:00,
2013-11-02 15:50:00,47.0,47.0,28.99,NNE,22,5.0,7.0,100,0.00,,,0.00,18,MyOwnSoftware,2013-11-02 15:50:00,
2013-11-02 15:51:00,47.1,47.1,28.99,NNE,22,2.0,3.0,100,0.00,,,0.00,11,MyOwnSoftware,2013-11-02 15:51:00,
2013-11-02 15:52:00,47.1,47.1,28.99,NNE,22,2.0,3.0,100,0.00,,,0.00,11,MyOwnSoftware,2013-11-02 15:52:00,
2013-11-02 15:53:00,47.1,47.0,28.99,ENE,64,4.0,-999.0,100,-99.99,,,0.10,11,weatherlink.com 1.10,2013-11-02 15:53:00,
2013-11-02 15:54:00,47.1,47.1,28.99,ENE,68,3.0,5.0,100,0.00,,,0.00,11,MyOwnSoftware,2013-11-02 15:54:00,
2013-11-02 15:55:00,47.1,47.1,28.99,North,0,4.0,7.0,100,0.00,,,0.00,7,MyOwnSoftware,2013-11-02 15:55:00,
2013-11-02 15:56:00,47.1,47.1,28.99,NNE,22,3.0,5.0,100,0.00,,,0.00,7,MyOwnSoftware,2013-11-02 15:56:00,
2013-11-02 15:57:00,47.1,47.1,28.99,NNE,22,2.0,4.0,100,0.00,,,0.00,7,MyOwnSoftware,2013-11-02 15:57:00,
2013-11-02 15:58:00,47.1,47.1,28.99,NNE,22,2.0,3.0,100,0.00,,,0.00,7,MyOwnSoftware,2013-11-02 15:58:00,
2013-11-02 15:59:00,47.3,47.3,28.99,NNE,22,2.0,3.0,100,0.00,,,0.00,9,MyOwnSoftware,2013-11-02 15:59:00,
2013-11-02 16:00:00,47.3,47.3,28.98,North,0,0.0,0.0,100,0.00,,,0.00,9,MyOwnSoftware,2013-11-02 16:00:00,
2013-11-02 16:01:00,47.3,47.3,28.98,NNE,22,3.0,4.0,100,0.00,,,0.00,9,MyOwnSoftware,2013-11-02 16:01:00,
2013-11-02 16:02:00,47.3,47.3,28.98,NNE,22,2.0,3.0,100,0.00,,,0.00,9,MyOwnSoftware,2013-11-02 16:02:00,
2013-11-02 16:03:00,47.3,47.3,28.98,NNE,22,3.0,5.0,100,0.00,,,0.00,12,MyOwnSoftware,2013-11-02 16:03:00,
2013-11-02 16:04:00,47.3,47.3,28.98,NNE,22,2.0,6.0,100,0.00,,,0.00,12,MyOwnSoftware,2013-11-02 16:04:00,
2013-11-02 16:05:00,47.3,47.3,28.98,NNE,22,1.0,3.0,100,0.00,,,0.00,12,MyOwnSoftware,2013-11-02 16:05:00,
2013-11-02 16:06:00,47.3,47.3,28.98,NNE,22,3.0,5.0,100,0.00,,,0.00,12,MyOwnSoftware,2013-11-02 16:06:00,
2013-11-02 16:07:00,47.3,47.3,28.98,North,0,2.0,5.0,100,0.00,,,0.00,13,MyOwnSoftware,2013-11-02 16:07:00,
2013-11-02 16:08:00,47.3,47.0,28.98,NE,48,1.0,-999.0,100,-99.99,,,0.10,14,weatherlink.com 1.10,2013-11-02 16:08:00,
2013-11-02 16:09:00,47.3,47.3,28.98,NE,45,3.0,6.0,100,0.00,,,0.00,14,MyOwnSoftware,2013-11-02 16:09:00,
2013-11-02 16:10:00,47.3,47.3,28.98,NE,45,3.0,8.0,100,0.00,,,0.00,14,MyOwnSoftware,2013-11-02 16:10:00,
2013-11-02 16:11:00,47.3,47.3,28.98,NE,45,2.0,6.0,100,0.00,,,0.00,14,MyOwnSoftware,2013-11-02 16:11:00,
2013-11-02 16:12:00,47.3,47.3,28.98,NE,45,2.0,6.0,100,0.00,,,0.00,18,MyOwnSoftware,2013-11-02 16:12:00,
2013-11-02 16:13:00,47.3,47.3,28.98,NE,45,1.0,3.0,100,0.00,,,0.00,18,MyOwnSoftware,2013-11-02 16:13:00,
2013-11-02 16:14:00,47.3,47.3,28.98,NE,45,0.0,3.0,100,0.00,,,0.00,18,MyOwnSoftware,2013-11-02 16:14:00,
2013-11-02 16:15:00,47.3,47.3,28.97,NE,45,1.0,2.0,100,0.00,,,0.00,18,MyOwnSoftware,2013-11-02 16:15:00,
2013-11-02 16:16:00,47.3,47.3,28.97,NE,45,1.0,4.0,100,0.00,,,0.00,18,MyOwnSoftware,2013-11-02 16:16:00,
2013-11-02 16:17:00,47.3,47.3,28.97,NNE,22,1.0,3.0,100,0.00,,,0.00,11,MyOwnSoftware,2013-11-02 16:17:00,
2013-11-02 16:18:00,47.3,47.3,28.97,NNE,22,2.0,6.0,100,0.00,,,0.00,11,MyOwnSoftware,2013-11-02 16:18:00,
2013-11-02 16:19:00,47.3,47.3,28.97,ESE,112,2.0,3.0,100,0.00,,,0.00,11,MyOwnSoftware,2013-11-02 16:19:00,
2013-11-02 16:20:00,47.3,47.3,28.97,East,90,1.0,2.0,100,0.00,,,0.00,7,MyOwnSoftware,2013-11-02 16:20:00,
2013-11-02 16:21:00,47.3,47.3,28.97,East,90,2.0,3.0,100,0.00,,,0.00,7,MyOwnSoftware,2013-11-02 16:21:00,
2013-11-02 16:22:00,47.3,47.3,28.97,East,90,4.0,6.0,100,0.00,,,0.00,7,MyOwnSoftware,2013-11-02 16:22:00,
2013-11-02 16:23:00,47.1,47.0,28.97,East,88,0.0,-999.0,100,-99.99,,,0.10,5,weatherlink.com 1.10,2013-11-02 16:23:00,
2013-11-02 16:24:00,47.1,47.1,28.97,East,90,2.0,5.0,100,0.00,,,0.00,5,MyOwnSoftware,2013-11-02 16:24:00,
2013-11-02 16:25:00,47.1,47.1,28.97,North,0,3.0,5.0,100,0.00,,,0.00,5,MyOwnSoftware,2013-11-02 16:25:00,
2013-11-02 16:26:00,47.1,47.1,28.97,NE,45,1.0,4.0,100,0.00,,,0.00,5,MyOwnSoftware,2013-11-02 16:26:00,
2013-11-02 16:27:00,47.1,47.1,28.97,NE,45,1.0,3.0,100,0.00,,,0.00,5,MyOwnSoftware,2013-11-02 16:27:00,
2013-11-02 16:28:00,47.1,47.1,28.97,ESE,112,1.0,5.0,100,0.00,,,0.00,0,MyOwnSoftware,2013-11-02 16:28:00,
2013-11-02 16:29:00,47.1,47.1,28.97,North,0,2.0,3.0,100,0.00,,,0.00,0,MyOwnSoftware,2013-11-02 16:29:00,
2013-11-02 16:30:00,47.1,47.1,28.96,NE,45,2.0,5.0,100,0.00,,,0.00,0,MyOwnSoftware,2013-11-02 16:30:00,
2013-11-02 16:31:00,47.1,47.1,28.96,NE,45,1.0,6.0,100,0.00,,,0.00,0,MyOwnSoftware,2013-11-02 16:31:00,
2013-11-02 16:32:00,47.0,47.0,28.96,North,0,3.0,5.0,100,0.00,,,0.00,0,MyOwnSoftware,2013-11-02 16:32:00,
2013-11-02 16:33:00,47.0,47.0,28.96,NE,45,4.0,6.0,100,0.00,,,0.00,0,MyOwnSoftware,2013-11-02 16:33:00,
2013-11-02 16:34:00,47.0,47.0,28.96,NE,45,2.0,6.0,100,0.00,,,0.00,0,MyOwnSoftware,2013-11-02 16:34:00,
2013-11-02 16:35:00,47.0,47.0,28.96,NE,45,4.0,6.0,100,0.00,,,0.00,0,MyOwnSoftware,2013-11-02 16:35:00,
2013-11-02 16:36:00,47.0,47.0,28.96,NNE,22,3.0,6.0,100,0.00,,,0.00,0,MyOwnSoftware,2013-11-02 16:36:00,
2013-11-02 16:37:00,47.0,47.0,28.96,North,0,3.0,6.0,100,0.00,,,0.00,0,MyOwnSoftware,2013-11-02 16:37:00,
2013-11-02 16:38:00,47.0,47.0,28.96,ESE,102,2.0,-999.0,100,-99.99,,,0.10,0,weatherlink.com 1.10,2013-11-02 16:38:00,
2013-11-02 16:39:00,47.0,47.0,28.96,ESE,112,3.0,7.0,100,0.00,,,0.00,0,MyOwnSoftware,2013-11-02 16:39:00,
2013-11-02 16:40:00,47.0,47.0,28.96,NE,45,6.0,8.0,100,0.00,,,0.00,0,MyOwnSoftware,2013-11-02 16:40:00,
2013-11-02 16:41:00,47.0,47.0,28.96,NNE,22,4.0,11.0,100,0.00,,,0.00,0,MyOwnSoftware,2013-11-02 16:41:00,
2013-11-02 16:42:00,47.0,47.0,28.96,SE,135,4.0,10.0,100,0.00,,,0.00,0,MyOwnSoftware,2013-11-02 16:42:00,
2013-11-02 16:43:00,47.0,47.0,28.96,East,90,3.0,5.0,100,0.00,,,0.00,0,MyOwnSoftware,2013-11-02 16:43:00,
2013-11-02 16:44:00,47.0,47.0,28.96,NE,45,2.0,4.0,100,0.00,,,0.00,0,MyOwnSoftware,2013-11-02 16:44:00,
2013-11-02 16:45:00,47.0,47.0,28.95,North,0,1.0,5.0,100,0.00,,,0.00,0,MyOwnSoftware,2013-11-02 16:45:00,
2013-11-02 16:46:00,47.0,47.0,28.95,East,90,2.0,3.0,100,0.00,,,0.00,0,MyOwnSoftware,2013-11-02 16:46:00,
2013-11-02 16:47:00,47.0,47.0,28.95,East,90,2.0,5.0,100,0.00,,,0.00,0,MyOwnSoftware,2013-11-02 16:47:00,
2013-11-02 16:48:00,47.0,47.0,28.95,ENE,68,3.0,7.0,100,0.00,,,0.00,0,MyOwnSoftware,2013-11-02 16:48:00,
2013-11-02 16:49:00,47.1,47.1,28.95,ESE,112,1.0,3.0,100,0.00,,,0.00,0,MyOwnSoftware,2013-11-02 16:49:00,
2013-11-02 16:50:00,47.0,47.0,28.95,ESE,112,1.0,2.0,100,0.00,,,0.00,0,MyOwnSoftware,2013-11-02 16:50:00,
2013-11-02 16:51:00,47.0,47.0,28.95,ESE,112,4.0,7.0,100,0.00,,,0.00,0,MyOwnSoftware,2013-11-02 16:51:00,
2013-11-02 16:52:00,47.0,47.0,28.95,NNE,22,1.0,5.0,100,0.00,,,0.00,0,MyOwnSoftware,2013-11-02 16:52:00,
2013-11-02 16:53:00,47.0,47.0,28.95,East,90,1.0,3.0,100,0.00,,,0.00,0,MyOwnSoftware,2013-11-02 16:53:00,
2013-11-02 16:54:00,47.0,47.0,28.95,East,82,1.0,-999.0,100,-99.99,,,0.10,0,weatherlink.com 1.10,2013-11-02 16:54:00,
2013-11-02 16:55:00,47.0,47.0,28.95,East,90,0.0,2.0,100,0.00,,,0.00,0,MyOwnSoftware,2013-11-02 16:55:00,
2013-11-02 16:56:00,47.0,47.0,28.95,East,90,0.0,1.0,100,0.00,,,0.00,0,MyOwnSoftware,2013-11-02 16:56:00,
2013-11-02 16:57:00,47.0,47.0,28.95,East,90,1.0,2.0,100,0.00,,,0.00,0,MyOwnSoftware,2013-11-02 16:57:00,
2013-11-02 16:58:00,47.0,47.0,28.95,ENE,68,1.0,3.0,100,0.00,,,0.00,0,MyOwnSoftware,2013-11-02 16:58:00,
2013-11-02 16:59:00,47.0,47.0,28.95,ENE,68,1.0,2.0,100,0.00,,,0.00,0,MyOwnSoftware,2013-11-02 16:59:00,
2013-11-02 17:00:00,47.0,47.0,28.94,ENE,68,1.0,3.0,100,0.00,,,0.00,0,MyOwnSoftware,2013-11-02 17:00:00,
2013-11-02 17:01:00,47.0,47.0,28.94,ENE,68,1.0,2.0,100,0.00,,,0.00,0,MyOwnSoftware,2013-11-02 17:01:00,
2013-11-02 17:02:00,47.0,47.0,28.94,North,0,0.0,0.0,100,0.00,,,0.00,0,MyOwnSoftware,2013-11-02 17:02:00,
2013-11-02 17:03:00,47.0,47.0,28.94,ENE,68,1.0,2.0,100,0.00,,,0.00,0,MyOwnSoftware,2013-11-02 17:03:00,
2013-11-02 17:04:00,46.8,46.8,28.94,ENE,68,1.0,3.0,100,0.00,,,0.00,0,MyOwnSoftware,2013-11-02 17:04:00,
2013-11-02 17:05:00,46.8,46.8,28.94,SE,135,2.0,6.0,100,0.00,,,0.00,0,MyOwnSoftware,2013-11-02 17:05:00,
2013-11-02 17:06:00,46.8,46.8,28.94,SE,135,1.0,3.0,100,0.00,,,0.00,0,MyOwnSoftware,2013-11-02 17:06:00,
2013-11-02 17:07:00,46.8,46.8,28.94,SE,135,1.0,3.0,100,0.00,,,0.00,0,MyOwnSoftware,2013-11-02 17:07:00,
2013-11-02 17:08:00,46.8,46.8,28.94,ESE,112,2.0,4.0,100,0.00,,,0.00,0,MyOwnSoftware,2013-11-02 17:08:00,
2013-11-02 17:09:00,46.8,47.0,28.94,ENE,78,1.0,-999.0,100,-99.99,,,0.10,0,weatherlink.com 1.10,2013-11-02 17:09:00,
2013-11-02 17:10:00,46.8,46.8,28.94,ENE,68,2.0,5.0,100,0.00,,,0.00,0,MyOwnSoftware,2013-11-02 17:10:00,
2013-11-02 17:11:00,46.8,46.8,28.94,NNE,22,2.0,6.0,100,0.00,,,0.00,0,MyOwnSoftware,2013-11-02 17:11:00,
2013-11-02 17:12:00,46.8,46.8,28.94,ESE,112,1.0,3.0,100,0.00,,,0.00,0,MyOwnSoftware,2013-11-02 17:12:00,
2013-11-02 17:13:00,46.8,46.8,28.94,ESE,112,1.0,3.0,100,0.00,,,0.00,0,MyOwnSoftware,2013-11-02 17:13:00,
2013-11-02 17:14:00,46.8,46.8,28.94,ESE,112,0.0,1.0,100,0.00,,,0.00,0,MyOwnSoftware,2013-11-02 17:14:00,
2013-11-02 17:15:00,46.8,46.8,28.93,ESE,112,1.0,2.0,100,0.00,,,0.00,0,MyOwnSoftware,2013-11-02 17:15:00,
2013-11-02 17:16:00,46.8,46.8,28.93,ESE,112,1.0,2.0,100,0.00,,,0.00,0,MyOwnSoftware,2013-11-02 17:16:00,
2013-11-02 17:17:00,46.7,46.7,28.93,ENE,68,0.0,2.0,100,0.00,,,0.00,0,MyOwnSoftware,2013-11-02 17:17:00,
2013-11-02 17:18:00,46.7,46.7,28.93,ENE,68,1.0,2.0,100,0.00,,,0.00,0,MyOwnSoftware,2013-11-02 17:18:00,
2013-11-02 17:19:00,46.7,46.7,28.93,North,0,0.0,0.0,100,0.00,,,0.00,0,MyOwnSoftware,2013-11-02 17:19:00,
2013-11-02 17:20:00,46.7,46.7,28.93,ENE,68,0.0,1.0,100,0.00,,,0.00,0,MyOwnSoftware,2013-11-02 17:20:00,
2013-11-02 17:21:00,46.7,46.7,28.93,North,0,0.0,0.0,100,0.00,,,0.00,0,MyOwnSoftware,2013-11-02 17:21:00,
2013-11-02 17:22:00,46.7,46.7,28.93,ENE,68,0.0,1.0,100,0.00,,,0.00,0,MyOwnSoftware,2013-11-02 17:22:00,
2013-11-02 17:23:00,46.7,46.7,28.93,ENE,68,0.0,1.0,100,0.00,,,0.00,0,MyOwnSoftware,2013-11-02 17:23:00,
2013-11-02 17:24:00,46.7,47.0,28.93,ESE,104,2.0,-999.0,100,-99.99,,,0.10,0,weatherlink.com 1.10,2013-11-02 17:24:00,
2013-11-02 17:25:00,46.7,46.7,28.93,ESE,112,1.0,3.0,100,0.00,,,0.00,0,MyOwnSoftware,2013-11-02 17:25:00,
2013-11-02 17:26:00,46.7,46.7,28.93,ESE,112,0.0,1.0,100,0.00,,,0.00,0,MyOwnSoftware,2013-11-02 17:26:00,
2013-11-02 17:27:00,46.7,46.7,28.93,ESE,112,1.0,3.0,100,0.00,,,0.00,0,MyOwnSoftware,2013-11-02 17:27:00,
2013-11-02 17:28:00,46.5,46.5,28.93,ESE,112,1.0,2.0,100,0.00,,,0.00,0,MyOwnSoftware,2013-11-02 17:28:00,
2013-11-02 17:29:00,46.5,46.5,28.93,ESE,112,0.0,1.0,100,0.00,,,0.00,0,MyOwnSoftware,2013-11-02 17:29:00,
2013-11-02 17:30:00,46.5,46.5,28.93,North,0,0.0,0.0,100,0.00,,,0.00,0,MyOwnSoftware,2013-11-02 17:30:00,
2013-11-02 17:31:00,46.5,46.5,28.93,North,0,0.0,0.0,100,0.00,,,0.00,0,MyOwnSoftware,2013-11-02 17:31:00,
2013-11-02 17:32:00,46.5,46.5,28.93,North,0,0.0,0.0,100,0.00,,,0.00,0,MyOwnSoftware,2013-11-02 17:32:00,
2013-11-02 17:33:00,46.5,46.5,28.93,North,0,0.0,0.0,100,0.00,,,0.00,0,MyOwnSoftware,2013-11-02 17:33:00,
2013-11-02 17:34:00,46.5,46.5,28.93,North,0,0.0,0.0,100,0.00,,,0.00,0,MyOwnSoftware,2013-11-02 17:34:00,
2013-11-02 17:35:00,46.5,46.5,28.93,ESE,112,2.0,6.0,100,0.00,,,0.00,0,MyOwnSoftware,2013-11-02 17:35:00,
2013-11-02 17:36:00,46.5,46.5,28.93,ESE,112,1.0,3.0,100,0.00,,,0.00,0,MyOwnSoftware,2013-11-02 17:36:00,
2013-11-02 17:37:00,46.5,46.5,28.93,ESE,112,0.0,2.0,100,0.00,,,0.00,0,MyOwnSoftware,2013-11-02 17:37:00,
2013-11-02 17:38:00,46.5,46.5,28.93,ESE,112,1.0,2.0,100,0.00,,,0.00,0,MyOwnSoftware,2013-11-02 17:38:00,
2013-11-02 17:39:00,46.5,47.0,28.93,SE,131,0.0,-999.0,100,-99.99,,,0.10,0,weatherlink.com 1.10,2013-11-02 17:39:00,
2013-11-02 17:40:00,46.5,46.5,28.93,SE,135,2.0,8.0,100,0.00,,,0.00,0,MyOwnSoftware,2013-11-02 17:40:00,
2013-11-02 17:41:00,46.5,46.5,28.93,ESE,112,2.0,6.0,100,0.00,,,0.00,0,MyOwnSoftware,2013-11-02 17:41:00,
2013-11-02 17:42:00,46.4,46.4,28.93,ESE,112,1.0,5.0,100,0.00,,,0.00,0,MyOwnSoftware,2013-11-02 17:42:00,
2013-11-02 17:43:00,46.4,46.4,28.93,ENE,68,1.0,3.0,100,0.00,,,0.00,0,MyOwnSoftware,2013-11-02 17:43:00,
2013-11-02 17:44:00,46.4,46.4,28.93,ENE,68,1.0,3.0,100,0.00,,,0.00,0,MyOwnSoftware,2013-11-02 17:44:00,
2013-11-02 17:45:00,46.4,46.4,28.92,ENE,68,1.0,3.0,100,0.00,,,0.00,0,MyOwnSoftware,2013-11-02 17:45:00,
2013-11-02 17:46:00,46.4,46.4,28.92,ENE,68,0.0,1.0,100,0.00,,,0.00,0,MyOwnSoftware,2013-11-02 17:46:00,
2013-11-02 17:47:00,46.4,46.4,28.92,ENE,68,2.0,3.0,100,0.00,,,0.00,0,MyOwnSoftware,2013-11-02 17:47:00,
2013-11-02 17:48:00,46.4,46.4,28.92,NE,45,2.0,3.0,100,0.00,,,0.00,0,MyOwnSoftware,2013-11-02 17:48:00,
2013-11-02 17:49:00,46.4,46.4,28.92,ENE,68,1.0,3.0,100,0.00,,,0.00,0,MyOwnSoftware,2013-11-02 17:49:00,
2013-11-02 17:50:00,46.4,46.4,28.92,ENE,68,1.0,3.0,100,0.00,,,0.00,0,MyOwnSoftware,2013-11-02 17:50:00,
2013-11-02 17:51:00,46.4,46.4,28.92,ENE,68,0.0,2.0,100,0.00,,,0.00,0,MyOwnSoftware,2013-11-02 17:51:00,
2013-11-02 17:52:00,46.4,46.4,28.92,ENE,68,2.0,5.0,100,0.00,,,0.00,0,MyOwnSoftware,2013-11-02 17:52:00,
2013-11-02 17:53:00,46.2,46.2,28.92,East,90,2.0,5.0,100,0.00,,,0.00,0,MyOwnSoftware,2013-11-02 17:53:00,
2013-11-02 17:54:00,46.2,46.0,28.92,East,93,0.0,-999.0,100,-99.99,,,0.10,0,weatherlink.com 1.10,2013-11-02 17:54:00,
2013-11-02 17:55:00,46.2,46.2,28.92,East,90,0.0,1.0,100,0.00,,,0.00,0,MyOwnSoftware,2013-11-02 17:55:00,
2013-11-02 17:56:00,46.2,46.2,28.92,NNE,22,2.0,5.0,100,0.00,,,0.00,0,MyOwnSoftware,2013-11-02 17:56:00,
2013-11-02 17:57:00,46.2,46.2,28.92,NE,45,2.0,3.0,100,0.00,,,0.00,0,MyOwnSoftware,2013-11-02 17:57:00,
2013-11-02 17:58:00,46.1,46.1,28.92,SE,135,3.0,6.0,100,0.00,,,0.00,0,MyOwnSoftware,2013-11-02 17:58:00,
2013-11-02 17:59:00,46.1,46.1,28.92,East,90,2.0,5.0,100,0.00,,,0.00,0,MyOwnSoftware,2013-11-02 17:59:00,
2013-11-02 18:00:00,46.1,46.1,28.92,East,90,1.0,3.0,100,0.00,,,0.00,0,MyOwnSoftware,2013-11-02 18:00:00,
2013-11-02 18:01:00,46.1,46.1,28.92,North,0,0.0,0.0,100,0.00,,,0.00,0,MyOwnSoftware,2013-11-02 18:01:00,
2013-11-02 18:02:00,46.1,46.1,28.92,East,90,2.0,5.0,100,0.00,,,0.00,0,MyOwnSoftware,2013-11-02 18:02:00,
2013-11-02 18:03:00,46.1,46.1,28.92,East,90,1.0,2.0,100,0.00,,,0.00,0,MyOwnSoftware,2013-11-02 18:03:00,
2013-11-02 18:04:00,46.0,46.0,28.92,East,90,1.0,2.0,100,0.00,,,0.00,0,MyOwnSoftware,2013-11-02 18:04:00,
2013-11-02 18:05:00,46.0,46.0,28.92,ESE,112,1.0,3.0,100,0.00,,,0.00,0,MyOwnSoftware,2013-11-02 18:05:00,
2013-11-02 18:06:00,46.0,46.0,28.92,SE,135,0.0,1.0,100,0.00,,,0.00,0,MyOwnSoftware,2013-11-02 18:06:00,
2013-11-02 18:07:00,46.0,46.0,28.92,SE,135,0.0,2.0,100,0.00,,,0.00,0,MyOwnSoftware,2013-11-02 18:07:00,
2013-11-02 18:08:00,46.0,46.0,28.92,SSE,158,4.0,9.0,100,0.00,,,0.00,0,MyOwnSoftware,2013-11-02 18:08:00,
2013-11-02 18:09:00,46.0,46.0,28.92,ESE,102,2.0,-999.0,100,-99.99,,,0.10,0,weatherlink.com 1.10,2013-11-02 18:09:00,
2013-11-02 18:10:00,46.0,46.0,28.92,ESE,112,3.0,6.0,100,0.00,,,0.00,0,MyOwnSoftware,2013-11-02 18:10:00,
2013-11-02 18:11:00,46.0,46.0,28.92,East,90,1.0,4.0,100,0.00,,,0.00,0,MyOwnSoftware,2013-11-02 18:11:00,
2013-11-02 18:12:00,45.8,45.8,28.92,South,180,3.0,6.0,100,0.00,,,0.00,0,MyOwnSoftware,2013-11-02 18:12:00,
2013-11-02 18:13:00,45.8,45.8,28.92,SSE,158,1.0,4.0,100,0.00,,,0.00,0,MyOwnSoftware,2013-11-02 18:13:00,
2013-11-02 18:14:00,45.8,45.8,28.92,ESE,112,3.0,7.0,100,0.00,,,0.00,0,MyOwnSoftware,2013-11-02 18:14:00,
2013-11-02 18:15:00,45.8,45.8,28.91,SE,135,4.0,7.0,100,0.00,,,0.01,0,MyOwnSoftware,2013-11-02 18:15:00,
2013-11-02 18:16:00,45.8,45.8,28.91,SSE,158,7.0,9.0,100,0.00,,,0.01,0,MyOwnSoftware,2013-11-02 18:16:00,
2013-11-02 18:17:00,45.8,45.5,28.91,SSE,158,2.0,3.0,99,0.00,,,0.01,0,MyOwnSoftware,2013-11-02 18:17:00,
2013-11-02 18:18:00,45.8,45.5,28.91,SSE,158,2.0,6.0,99,0.00,,,0.01,0,MyOwnSoftware,2013-11-02 18:18:00,
2013-11-02 18:19:00,45.7,45.4,28.91,SSE,158,2.0,6.0,99,0.00,,,0.01,0,MyOwnSoftware,2013-11-02 18:19:00,
2013-11-02 18:20:00,45.7,45.4,28.91,SE,135,2.0,5.0,99,0.00,,,0.01,0,MyOwnSoftware,2013-11-02 18:20:00,
2013-11-02 18:21:00,45.7,45.4,28.91,ESE,112,2.0,5.0,99,0.00,,,0.01,0,MyOwnSoftware,2013-11-02 18:21:00,
2013-11-02 18:22:00,45.7,45.2,28.91,SSE,158,4.0,8.0,98,0.00,,,0.01,0,MyOwnSoftware,2013-11-02 18:22:00,
2013-11-02 18:23:00,45.7,45.2,28.91,ESE,112,4.0,7.0,98,0.00,,,0.01,0,MyOwnSoftware,2013-11-02 18:23:00,
2013-11-02 18:24:00,45.7,45.0,28.91,SSE,155,5.0,-999.0,98,-99.99,,,0.11,0,weatherlink.com 1.10,2013-11-02 18:24:00,
2013-11-02 18:25:00,45.7,45.2,28.91,SSE,158,3.0,6.0,98,0.00,,,0.01,0,MyOwnSoftware,2013-11-02 18:25:00,
2013-11-02 18:26:00,45.7,45.2,28.91,SSE,158,4.0,6.0,98,0.00,,,0.01,0,MyOwnSoftware,2013-11-02 18:26:00,
2013-11-02 18:27:00,45.7,45.2,28.91,ESE,112,0.0,2.0,98,0.00,,,0.01,0,MyOwnSoftware,2013-11-02 18:27:00,
2013-11-02 18:28:00,45.7,45.2,28.91,South,180,2.0,6.0,98,0.00,,,0.01,0,MyOwnSoftware,2013-11-02 18:28:00,
2013-11-02 18:29:00,45.5,45.0,28.91,South,180,0.0,2.0,98,0.00,,,0.01,0,MyOwnSoftware,2013-11-02 18:29:00,
2013-11-02 18:30:00,45.5,45.0,28.90,South,180,2.0,7.0,98,0.00,,,0.00,0,MyOwnSoftware,2013-11-02 18:30:00,
2013-11-02 18:31:00,45.5,45.0,28.90,South,180,2.0,5.0,98,0.00,,,0.00,0,MyOwnSoftware,2013-11-02 18:31:00,
2013-11-02 18:32:00,45.5,45.0,28.90,SE,135,3.0,6.0,98,0.00,,,0.00,0,MyOwnSoftware,2013-11-02 18:32:00,
2013-11-02 18:33:00,45.5,45.0,28.90,SSE,158,5.0,8.0,98,0.00,,,0.00,0,MyOwnSoftware,2013-11-02 18:33:00,
2013-11-02 18:34:00,45.4,44.6,28.90,SSE,158,2.0,3.0,97,0.00,,,0.00,0,MyOwnSoftware,2013-11-02 18:34:00,
2013-11-02 18:35:00,45.4,44.6,28.90,SSE,158,1.0,2.0,97,0.00,,,0.00,0,MyOwnSoftware,2013-11-02 18:35:00,
2013-11-02 18:36:00,45.4,44.6,28.90,SSE,158,1.0,5.0,97,0.00,,,0.00,0,MyOwnSoftware,2013-11-02 18:36:00,
2013-11-02 18:37:00,45.4,44.6,28.90,SSE,158,0.0,2.0,97,0.00,,,0.00,0,MyOwnSoftware,2013-11-02 18:37:00,
2013-11-02 18:38:00,45.4,44.6,28.90,North,0,0.0,0.0,97,0.00,,,0.00,0,MyOwnSoftware,2013-11-02 18:38:00,
2013-11-02 18:39:00,45.2,45.0,28.90,SSE,161,0.0,-999.0,98,-99.99,,,0.11,0,weatherlink.com 1.10,2013-11-02 18:39:00,
2013-11-02 18:40:00,45.2,44.7,28.90,North,0,0.0,0.0,98,0.00,,,0.00,0,MyOwnSoftware,2013-11-02 18:40:00,
2013-11-02 18:41:00,45.2,44.7,28.90,SSE,158,1.0,3.0,98,0.00,,,0.00,0,MyOwnSoftware,2013-11-02 18:41:00,
2013-11-02 18:42:00,45.2,44.7,28.90,SSE,158,3.0,6.0,98,0.00,,,0.00,0,MyOwnSoftware,2013-11-02 18:42:00,
2013-11-02 18:43:00,45.2,44.7,28.90,SSE,158,3.0,6.0,98,0.00,,,0.00,0,MyOwnSoftware,2013-11-02 18:43:00,
2013-11-02 18:44:00,45.2,44.7,28.90,SSE,158,2.0,5.0,98,0.00,,,0.00,0,MyOwnSoftware,2013-11-02 18:44:00,
2013-11-02 18:45:00,45.1,44.3,28.90,ESE,112,3.0,6.0,97,0.00,,,0.00,0,MyOwnSoftware,2013-11-02 18:45:00,
2013-11-02 18:46:00,45.1,44.3,28.90,SE,135,3.0,8.0,97,0.00,,,0.00,0,MyOwnSoftware,2013-11-02 18:46:00,
2013-11-02 18:47:00,45.1,44.3,28.90,SE,135,2.0,3.0,97,0.00,,,0.00,0,MyOwnSoftware,2013-11-02 18:47:00,
2013-11-02 18:48:00,45.1,44.3,28.90,SE,135,1.0,2.0,97,0.00,,,0.00,0,MyOwnSoftware,2013-11-02 18:48:00,
2013-11-02 18:49:00,45.1,44.3,28.90,SE,135,2.0,3.0,97,0.00,,,0.00,0,MyOwnSoftware,2013-11-02 18:49:00,
2013-11-02 18:50:00,44.9,44.1,28.90,SSE,158,3.0,8.0,97,0.00,,,0.00,0,MyOwnSoftware,2013-11-02 18:50:00,
2013-11-02 18:51:00,44.9,44.1,28.90,SSE,158,0.0,2.0,97,0.00,,,0.00,0,MyOwnSoftware,2013-11-02 18:51:00,
2013-11-02 18:52:00,44.9,44.1,28.90,SSE,158,1.0,5.0,97,0.00,,,0.00,0,MyOwnSoftware,2013-11-02 18:52:00,
2013-11-02 18:53:00,44.9,44.1,28.90,SSE,158,2.0,5.0,97,0.00,,,0.00,0,MyOwnSoftware,2013-11-02 18:53:00,
2013-11-02 18:54:00,44.9,44.0,28.90,SSW,196,2.0,-999.0,97,-99.99,,,0.11,0,weatherlink.com 1.10,2013-11-02 18:54:00,
2013-11-02 18:55:00,44.8,44.0,28.90,SSW,202,2.0,6.0,97,0.00,,,0.00,0,MyOwnSoftware,2013-11-02 18:55:00,
2013-11-02 18:56:00,44.8,44.0,28.90,SSW,202,0.0,1.0,97,0.00,,,0.00,0,MyOwnSoftware,2013-11-02 18:56:00,
2013-11-02 18:57:00,44.8,44.0,28.90,North,0,0.0,0.0,97,0.00,,,0.00,0,MyOwnSoftware,2013-11-02 18:57:00,
2013-11-02 18:58:00,44.8,44.3,28.90,North,0,0.0,0.0,98,0.00,,,0.00,0,MyOwnSoftware,2013-11-02 18:58:00,
2013-11-02 18:59:00,44.8,44.3,28.90,SSW,202,0.0,2.0,98,0.00,,,0.00,0,MyOwnSoftware,2013-11-02 18:59:00,
2013-11-02 19:00:00,44.8,44.3,28.90,North,0,0.0,0.0,98,0.00,,,0.00,0,MyOwnSoftware,2013-11-02 19:00:00,
2013-11-02 19:01:00,44.8,44.3,28.90,North,0,0.0,0.0,98,0.00,,,0.00,0,MyOwnSoftware,2013-11-02 19:01:00,
2013-11-02 19:02:00,44.6,44.1,28.90,North,0,0.0,0.0,98,0.00,,,0.00,0,MyOwnSoftware,2013-11-02 19:02:00,
2013-11-02 19:03:00,44.6,44.1,28.90,North,0,0.0,0.0,98,0.00,,,0.00,0,MyOwnSoftware,2013-11-02 19:03:00,
2013-11-02 19:04:00,44.6,44.1,28.90,North,0,0.0,0.0,98,0.00,,,0.00,0,MyOwnSoftware,2013-11-02 19:04:00,
2013-11-02 19:05:00,44.6,44.1,28.90,SSW,202,1.0,2.0,98,0.00,,,0.00,0,MyOwnSoftware,2013-11-02 19:05:00,
2013-11-02 19:06:00,44.6,44.1,28.90,North,0,0.0,0.0,98,0.00,,,0.00,0,MyOwnSoftware,2013-11-02 19:06:00,
2013-11-02 19:07:00,44.6,44.1,28.90,SSW,202,0.0,1.0,98,0.00,,,0.00,0,MyOwnSoftware,2013-11-02 19:07:00,
2013-11-02 19:08:00,44.6,44.1,28.90,North,0,0.0,0.0,98,0.00,,,0.00,0,MyOwnSoftware,2013-11-02 19:08:00,
2013-11-02 19:09:00,44.6,44.0,28.90,SSW,195,0.0,-999.0,98,-99.99,,,0.11,0,weatherlink.com 1.10,2013-11-02 19:09:00,
2013-11-02 19:10:00,44.6,44.1,28.90,North,0,0.0,0.0,98,0.00,,,0.00,0,MyOwnSoftware,2013-11-02 19:10:00,
2013-11-02 19:11:00,44.6,44.3,28.90,North,0,0.0,0.0,99,0.00,,,0.00,0,MyOwnSoftware,2013-11-02 19:11:00,
2013-11-02 19:12:00,44.6,44.3,28.90,North,0,0.0,0.0,99,0.00,,,0.00,0,MyOwnSoftware,2013-11-02 19:12:00,
2013-11-02 19:13:00,44.5,44.2,28.90,North,0,0.0,0.0,99,0.00,,,0.00,0,MyOwnSoftware,2013-11-02 19:13:00,
2013-11-02 19:14:00,44.5,44.2,28.90,North,0,0.0,0.0,99,0.00,,,0.00,0,MyOwnSoftware,2013-11-02 19:14:00,
2013-11-02 19:15:00,44.5,44.2,28.89,North,0,0.0,0.0,99,0.00,,,0.00,0,MyOwnSoftware,2013-11-02 19:15:00,
2013-11-02 19:16:00,44.5,44.2,28.89,North,0,0.0,0.0,99,0.00,,,0.00,0,MyOwnSoftware,2013-11-02 19:16:00,
2013-11-02 19:17:00,44.5,44.2,28.89,SSW,202,0.0,1.0,99,0.00,,,0.00,0,MyOwnSoftware,2013-11-02 19:17:00,
2013-11-02 19:18:00,44.5,44.2,28.89,SSW,202,1.0,3.0,99,0.00,,,0.00,0,MyOwnSoftware,2013-11-02 19:18:00,
2013-11-02 19:19:00,44.5,44.2,28.89,North,0,0.0,0.0,99,0.00,,,0.00,0,MyOwnSoftware,2013-11-02 19:19:00,
2013-11-02 19:20:00,44.5,44.2,28.89,North,0,0.0,0.0,99,0.00,,,0.00,0,MyOwnSoftware,2013-11-02 19:20:00,
2013-11-02 19:21:00,44.5,44.2,28.89,SSW,202,0.0,1.0,99,0.00,,,0.00,0,MyOwnSoftware,2013-11-02 19:21:00,
2013-11-02 19:22:00,44.5,44.2,28.89,SSW,202,0.0,1.0,99,0.00,,,0.00,0,MyOwnSoftware,2013-11-02 19:22:00,
2013-11-02 19:23:00,44.3,44.0,28.89,North,0,0.0,0.0,99,0.00,,,0.00,0,MyOwnSoftware,2013-11-02 19:23:00,
2013-11-02 19:24:00,44.3,44.0,28.89,SSW,195,0.0,-999.0,99,-99.99,,,0.11,0,weatherlink.com 1.10,2013-11-02 19:24:00,
2013-11-02 19:25:00,44.3,44.0,28.89,North,0,0.0,0.0,99,0.00,,,0.00,0,MyOwnSoftware,2013-11-02 19:25:00,
2013-11-02 19:26:00,44.3,44.0,28.89,North,0,0.0,0.0,99,0.00,,,0.00,0,MyOwnSoftware,2013-11-02 19:26:00,
2013-11-02 19:27:00,44.3,44.0,28.89,North,0,0.0,0.0,99,0.00,,,0.00,0,MyOwnSoftware,2013-11-02 19:27:00,
2013-11-02 19:28:00,44.3,44.3,28.89,SSW,202,1.0,2.0,100,0.00,,,0.00,0,MyOwnSoftware,2013-11-02 19:28:00,
2013-11-02 19:29:00,44.3,44.3,28.89,North,0,0.0,0.0,100,0.00,,,0.00,0,MyOwnSoftware,2013-11-02 19:29:00,
2013-11-02 19:30:00,44.3,44.3,28.89,North,0,0.0,0.0,100,0.00,,,0.00,0,MyOwnSoftware,2013-11-02 19:30:00,
2013-11-02 19:31:00,44.2,44.2,28.89,North,0,0.0,0.0,100,0.00,,,0.00,0,MyOwnSoftware,2013-11-02 19:31:00,
2013-11-02 19:32:00,44.2,44.2,28.89,SSW,202,2.0,2.0,100,0.00,,,0.00,0,MyOwnSoftware,2013-11-02 19:32:00,
2013-11-02 19:33:00,44.2,44.2,28.89,SSW,202,1.0,3.0,100,0.00,,,0.00,0,MyOwnSoftware,2013-11-02 19:33:00,
2013-11-02 19:34:00,44.2,44.2,28.89,SSW,202,0.0,1.0,100,0.00,,,0.00,0,MyOwnSoftware,2013-11-02 19:34:00,
2013-11-02 19:35:00,44.2,44.2,28.89,North,0,0.0,0.0,100,0.00,,,0.00,0,MyOwnSoftware,2013-11-02 19:35:00,
2013-11-02 19:36:00,44.2,44.2,28.89,SSW,202,1.0,3.0,100,0.00,,,0.00,0,MyOwnSoftware,2013-11-02 19:36:00,
2013-11-02 19:37:00,44.2,44.2,28.89,SSW,202,2.0,3.0,100,0.00,,,0.00,0,MyOwnSoftware,2013-11-02 19:37:00,
2013-11-02 19:38:00,44.2,44.2,28.89,SSW,202,1.0,2.0,100,0.00,,,0.00,0,MyOwnSoftware,2013-11-02 19:38:00,
2013-11-02 19:39:00,44.2,44.0,28.89,SSW,195,0.0,-999.0,100,-99.99,,,0.11,0,weatherlink.com 1.10,2013-11-02 19:39:00,
2013-11-02 19:40:00,44.2,44.2,28.89,North,0,0.0,0.0,100,0.00,,,0.00,0,MyOwnSoftware,2013-11-02 19:40:00,
2013-11-02 19:41:00,44.2,44.2,28.89,North,0,0.0,0.0,100,0.00,,,0.00,0,MyOwnSoftware,2013-11-02 19:41:00,
2013-11-02 19:42:00,44.2,44.2,28.89,SSW,202,0.0,1.0,100,0.00,,,0.00,0,MyOwnSoftware,2013-11-02 19:42:00,
2013-11-02 19:43:00,44.2,44.2,28.89,North,0,0.0,0.0,100,0.00,,,0.00,0,MyOwnSoftware,2013-11-02 19:43:00,
2013-11-02 19:44:00,44.2,44.2,28.89,North,0,0.0,0.0,100,0.00,,,0.00,0,MyOwnSoftware,2013-11-02 19:44:00,
2013-11-02 19:45:00,44.2,44.2,28.89,North,0,0.0,0.0,100,0.00,,,0.00,0,MyOwnSoftware,2013-11-02 19:45:00,
2013-11-02 19:46:00,44.2,44.2,28.89,SSW,202,0.0,2.0,100,0.00,,,0.00,0,MyOwnSoftware,2013-11-02 19:46:00,
2013-11-02 19:47:00,44.2,44.2,28.89,SSW,202,0.0,2.0,100,0.00,,,0.00,0,MyOwnSoftware,2013-11-02 19:47:00,
2013-11-02 19:48:00,44.2,44.2,28.89,SSW,202,0.0,1.0,100,0.00,,,0.00,0,MyOwnSoftware,2013-11-02 19:48:00,
2013-11-02 19:49:00,44.2,44.2,28.89,North,0,0.0,0.0,100,0.00,,,0.00,0,MyOwnSoftware,2013-11-02 19:49:00,
2013-11-02 19:50:00,44.2,44.2,28.89,SSW,202,0.0,1.0,100,0.00,,,0.00,0,MyOwnSoftware,2013-11-02 19:50:00,
2013-11-02 19:51:00,44.2,44.2,28.89,North,0,0.0,0.0,100,0.00,,,0.00,0,MyOwnSoftware,2013-11-02 19:51:00,
2013-11-02 19:52:00,44.2,44.2,28.89,SSW,202,0.0,1.0,100,0.00,,,0.00,0,MyOwnSoftware,2013-11-02 19:52:00,
2013-11-02 19:53:00,44.2,44.2,28.89,SW,225,1.0,3.0,100,0.00,,,0.00,0,MyOwnSoftware,2013-11-02 19:53:00,
2013-11-02 19:54:00,44.2,44.2,28.89,SW,225,0.0,1.0,100,0.00,,,0.00,0,MyOwnSoftware,2013-11-02 19:54:00,
2013-11-02 19:55:00,44.2,44.0,28.89,SW,229,0.0,-999.0,100,-99.99,,,0.11,0,weatherlink.com 1.10,2013-11-02 19:55:00,
2013-11-02 19:56:00,44.2,44.2,28.89,SW,225,0.0,1.0,100,0.00,,,0.00,0,MyOwnSoftware,2013-11-02 19:56:00,
2013-11-02 19:57:00,44.2,44.2,28.89,NW,315,2.0,9.0,100,0.00,,,0.00,0,MyOwnSoftware,2013-11-02 19:57:00,
2013-11-02 19:58:00,44.2,44.2,28.89,ESE,112,2.0,6.0,100,0.00,,,0.00,0,MyOwnSoftware,2013-11-02 19:58:00,
2013-11-02 19:59:00,44.2,44.2,28.89,North,0,4.0,6.0,100,0.00,,,0.00,0,MyOwnSoftware,2013-11-02 19:59:00,
2013-11-02 20:00:00,44.2,44.2,28.89,SSE,158,3.0,6.0,100,0.00,,,0.00,0,MyOwnSoftware,2013-11-02 20:00:00,
2013-11-02 20:01:00,44.2,44.2,28.89,NW,315,2.0,2.0,100,0.00,,,0.00,0,MyOwnSoftware,2013-11-02 20:01:00,
2013-11-02 20:02:00,44.2,44.2,28.89,North,0,0.0,0.0,100,0.00,,,0.00,0,MyOwnSoftware,2013-11-02 20:02:00,
2013-11-02 20:03:00,44.2,44.2,28.89,North,0,0.0,0.0,100,0.00,,,0.00,0,MyOwnSoftware,2013-11-02 20:03:00,
2013-11-02 20:04:00,44.2,44.2,28.89,South,180,2.0,5.0,100,0.00,,,0.00,0,MyOwnSoftware,2013-11-02 20:04:00,
2013-11-02 20:05:00,44.2,44.2,28.89,SSE,158,2.0,3.0,100,0.00,,,0.00,0,MyOwnSoftware,2013-11-02 20:05:00,
2013-11-02 20:06:00,44.2,44.2,28.89,WNW,292,3.0,6.0,100,0.00,,,0.00,0,MyOwnSoftware,2013-11-02 20:06:00,
2013-11-02 20:07:00,44.2,44.2,28.89,SW,225,2.0,4.0,100,0.00,,,0.00,0,MyOwnSoftware,2013-11-02 20:07:00,
2013-11-02 20:08:00,44.2,44.2,28.89,WSW,248,2.0,6.0,100,0.00,,,0.00,0,MyOwnSoftware,2013-11-02 20:08:00,
2013-11-02 20:09:00,44.2,44.2,28.89,SSE,158,2.0,3.0,100,0.00,,,0.00,0,MyOwnSoftware,2013-11-02 20:09:00,
2013-11-02 20:10:00,44.2,44.0,28.89,SW,222,2.0,-999.0,100,-99.99,,,0.11,0,weatherlink.com 1.10,2013-11-02 20:10:00,
2013-11-02 20:11:00,44.1,44.1,28.89,West,270,1.0,3.0,100,0.00,,,0.00,0,MyOwnSoftware,2013-11-02 20:11:00,
2013-11-02 20:12:00,44.1,44.1,28.89,SSW,202,2.0,5.0,100,0.00,,,0.00,0,MyOwnSoftware,2013-11-02 20:12:00,
2013-11-02 20:13:00,44.1,44.1,28.89,SW,225,1.0,3.0,100,0.00,,,0.00,0,MyOwnSoftware,2013-11-02 20:13:00,
2013-11-02 20:14:00,44.1,44.1,28.89,North,0,0.0,0.0,100,0.00,,,0.00,0,MyOwnSoftware,2013-11-02 20:14:00,
2013-11-02 20:15:00,44.1,44.1,28.89,WSW,248,0.0,1.0,100,0.00,,,0.00,0,MyOwnSoftware,2013-11-02 20:15:00,
2013-11-02 20:16:00,44.1,44.1,28.89,WSW,248,1.0,2.0,100,0.00,,,0.00,0,MyOwnSoftware,2013-11-02 20:16:00,
2013-11-02 20:17:00,44.1,44.1,28.89,WSW,248,1.0,2.0,100,0.00,,,0.00,0,MyOwnSoftware,2013-11-02 20:17:00,
2013-11-02 20:18:00,44.1,44.1,28.89,WSW,248,1.0,3.0,100,0.00,,,0.00,0,MyOwnSoftware,2013-11-02 20:18:00,
2013-11-02 20:19:00,44.1,44.1,28.89,East,90,1.0,2.0,100,0.00,,,0.00,0,MyOwnSoftware,2013-11-02 20:19:00,
2013-11-02 20:20:00,43.9,43.9,28.89,East,90,1.0,2.0,100,0.00,,,0.00,0,MyOwnSoftware,2013-11-02 20:20:00,
2013-11-02 20:21:00,43.9,43.9,28.89,South,180,3.0,6.0,100,0.00,,,0.00,0,MyOwnSoftware,2013-11-02 20:21:00,
2013-11-02 20:22:00,43.9,43.9,28.89,South,180,2.0,4.0,100,0.00,,,0.00,0,MyOwnSoftware,2013-11-02 20:22:00,
2013-11-02 20:23:00,43.9,43.9,28.89,ENE,68,3.0,7.0,100,0.00,,,0.00,0,MyOwnSoftware,2013-11-02 20:23:00,
2013-11-02 20:24:00,43.9,43.9,28.89,SSE,158,2.0,3.0,100,0.00,,,0.00,0,MyOwnSoftware,2013-11-02 20:24:00,
2013-11-02 20:25:00,43.8,44.0,28.89,SSE,154,2.0,-999.0,100,-99.99,,,0.11,0,weatherlink.com 1.10,2013-11-02 20:25:00,
2013-11-02 20:26:00,43.8,43.8,28.89,SSE,158,1.0,3.0,100,0.00,,,0.00,0,MyOwnSoftware,2013-11-02 20:26:00,
2013-11-02 20:27:00,43.8,43.8,28.89,SSW,202,4.0,6.0,100,0.00,,,0.00,0,MyOwnSoftware,2013-11-02 20:27:00,
2013-11-02 20:28:00,43.8,43.8,28.89,WNW,292,2.0,8.0,100,0.00,,,0.00,0,MyOwnSoftware,2013-11-02 20:28:00,
2013-11-02 20:29:00,43.6,43.6,28.89,SW,225,1.0,3.0,100,0.00,,,0.00,0,MyOwnSoftware,2013-11-02 20:29:00,
2013-11-02 20:30:00,43.6,43.6,28.89,SSW,202,2.0,3.0,100,0.00,,,0.00,0,MyOwnSoftware,2013-11-02 20:30:00,
2013-11-02 20:31:00,43.6,43.6,28.89,SSW,202,1.0,3.0,100,0.00,,,0.00,0,MyOwnSoftware,2013-11-02 20:31:00,
2013-11-02 20:32:00,43.6,43.6,28.89,East,90,1.0,4.0,100,0.00,,,0.00,0,MyOwnSoftware,2013-11-02 20:32:00,
2013-11-02 20:33:00,43.6,43.6,28.89,North,0,2.0,6.0,100,0.00,,,0.00,0,MyOwnSoftware,2013-11-02 20:33:00,
2013-11-02 20:34:00,43.6,43.6,28.89,West,270,1.0,3.0,100,0.00,,,0.00,0,MyOwnSoftware,2013-11-02 20:34:00,
2013-11-02 20:35:00,43.5,43.5,28.89,West,270,1.0,4.0,100,0.00,,,0.00,0,MyOwnSoftware,2013-11-02 20:35:00,
2013-11-02 20:36:00,43.5,43.5,28.89,WNW,292,3.0,6.0,100,0.00,,,0.00,0,MyOwnSoftware,2013-11-02 20:36:00,
2013-11-02 20:37:00,43.5,43.5,28.89,SSW,202,3.0,8.0,100,0.00,,,0.00,0,MyOwnSoftware,2013-11-02 20:37:00,
2013-11-02 20:38:00,43.5,43.5,28.89,SSW,202,3.0,7.0,100,0.00,,,0.00,0,MyOwnSoftware,2013-11-02 20:38:00,
2013-11-02 20:39:00,43.5,43.5,28.89,SSE,158,3.0,7.0,100,0.00,,,0.00,0,MyOwnSoftware,2013-11-02 20:39:00,
2013-11-02 20:40:00,43.5,44.0,28.89,SW,222,2.0,-999.0,100,-99.99,,,0.11,0,weatherlink.com 1.10,2013-11-02 20:40:00,
2013-11-02 20:41:00,43.5,43.5,28.89,SW,225,2.0,4.0,100,0.00,,,0.00,0,MyOwnSoftware,2013-11-02 20:41:00,
2013-11-02 20:42:00,43.5,43.5,28.89,SSW,202,1.0,2.0,100,0.00,,,0.00,0,MyOwnSoftware,2013-11-02 20:42:00,
2013-11-02 20:43:00,43.5,43.5,28.89,SSW,202,2.0,6.0,100,0.00,,,0.00,0,MyOwnSoftware,2013-11-02 20:43:00,
2013-11-02 20:44:00,43.5,43.5,28.89,SSW,202,2.0,6.0,100,0.00,,,0.00,0,MyOwnSoftware,2013-11-02 20:44:00,
2013-11-02 20:45:00,43.5,43.5,28.89,WSW,248,2.0,6.0,100,0.00,,,0.00,0,MyOwnSoftware,2013-11-02 20:45:00,
2013-11-02 20:46:00,43.5,43.5,28.89,SW,225,4.0,10.0,100,0.00,,,0.00,0,MyOwnSoftware,2013-11-02 20:46:00,
2013-11-02 20:47:00,43.5,43.5,28.89,SSW,202,3.0,6.0,100,0.00,,,0.00,0,MyOwnSoftware,2013-11-02 20:47:00,
2013-11-02 20:48:00,43.5,43.5,28.89,SSE,158,3.0,7.0,100,0.00,,,0.00,0,MyOwnSoftware,2013-11-02 20:48:00,
2013-11-02 20:49:00,43.5,43.5,28.89,SSW,202,2.0,6.0,100,0.00,,,0.00,0,MyOwnSoftware,2013-11-02 20:49:00,
2013-11-02 20:50:00,43.5,43.5,28.89,SSW,202,1.0,2.0,100,0.00,,,0.00,0,MyOwnSoftware,2013-11-02 20:50:00,
2013-11-02 20:51:00,43.5,43.5,28.89,SSW,202,2.0,8.0,100,0.00,,,0.00,0,MyOwnSoftware,2013-11-02 20:51:00,
2013-11-02 20:52:00,43.5,43.5,28.89,SSW,202,3.0,6.0,100,0.00,,,0.00,0,MyOwnSoftware,2013-11-02 20:52:00,
2013-11-02 20:53:00,43.5,43.5,28.89,South,180,2.0,3.0,100,0.00,,,0.00,0,MyOwnSoftware,2013-11-02 20:53:00,
2013-11-02 20:54:00,43.5,43.5,28.89,North,0,2.0,4.0,100,0.00,,,0.00,0,MyOwnSoftware,2013-11-02 20:54:00,
2013-11-02 20:55:00,43.5,44.0,28.89,WSW,250,0.0,-999.0,100,-99.99,,,0.11,0,weatherlink.com 1.10,2013-11-02 20:55:00,
2013-11-02 20:56:00,43.5,43.5,28.89,WSW,248,1.0,2.0,100,0.00,,,0.00,0,MyOwnSoftware,2013-11-02 20:56:00,
2013-11-02 20:57:00,43.5,43.5,28.89,WSW,248,1.0,2.0,100,0.00,,,0.00,0,MyOwnSoftware,2013-11-02 20:57:00,
2013-11-02 20:58:00,43.5,43.5,28.89,West,270,1.0,2.0,100,0.00,,,0.00,0,MyOwnSoftware,2013-11-02 20:58:00,
2013-11-02 20:59:00,43.5,43.5,28.89,WNW,292,1.0,3.0,100,0.00,,,0.00,0,MyOwnSoftware,2013-11-02 20:59:00,
2013-11-02 21:00:00,43.5,43.5,28.90,NW,315,1.0,3.0,100,0.00,,,0.00,0,MyOwnSoftware,2013-11-02 21:00:00,
2013-11-02 21:01:00,43.3,43.3,28.90,NW,315,2.0,3.0,100,0.00,,,0.00,0,MyOwnSoftware,2013-11-02 21:01:00,
2013-11-02 21:02:00,43.3,43.3,28.90,SW,225,1.0,5.0,100,0.00,,,0.00,0,MyOwnSoftware,2013-11-02 21:02:00,
2013-11-02 21:03:00,43.3,43.3,28.90,SSW,202,2.0,3.0,100,0.00,,,0.00,0,MyOwnSoftware,2013-11-02 21:03:00,
2013-11-02 21:04:00,43.3,43.3,28.90,North,0,2.0,5.0,100,0.00,,,0.00,0,MyOwnSoftware,2013-11-02 21:04:00,
2013-11-02 21:05:00,43.3,43.3,28.90,SW,225,1.0,2.0,100,0.00,,,0.00,0,MyOwnSoftware,2013-11-02 21:05:00,
2013-11-02 21:06:00,43.3,43.3,28.90,SW,225,1.0,2.0,100,0.00,,,0.00,0,MyOwnSoftware,2013-11-02 21:06:00,
2013-11-02 21:07:00,43.3,43.3,28.90,SSW,202,2.0,6.0,100,0.00,,,0.00,0,MyOwnSoftware,2013-11-02 21:07:00,
2013-11-02 21:08:00,43.3,43.3,28.90,WSW,248,2.0,3.0,100,0.00,,,0.00,0,MyOwnSoftware,2013-11-02 21:08:00,
2013-11-02 21:09:00,43.3,43.3,28.90,SSW,202,1.0,3.0,100,0.00,,,0.00,0,MyOwnSoftware,2013-11-02 21:09:00,
2013-11-02 21:10:00,43.5,44.0,28.90,West,270,1.0,-999.0,100,-99.99,,,0.11,0,weatherlink.com 1.10,2013-11-02 21:10:00,
2013-11-02 21:11:00,43.5,43.5,28.90,NW,315,1.0,3.0,100,0.00,,,0.00,0,MyOwnSoftware,2013-11-02 21:11:00,
2013-11-02 21:12:00,43.5,43.5,28.90,SW,225,3.0,5.0,100,0.00,,,0.00,0,MyOwnSoftware,2013-11-02 21:12:00,
2013-11-02 21:13:00,43.5,43.5,28.90,SW,225,2.0,4.0,100,0.00,,,0.00,0,MyOwnSoftware,2013-11-02 21:13:00,
2013-11-02 21:14:00,43.5,43.5,28.90,West,270,1.0,3.0,100,0.00,,,0.00,0,MyOwnSoftware,2013-11-02 21:14:00,
2013-11-02 21:15:00,43.5,43.5,28.91,SSW,202,2.0,3.0,100,0.00,,,0.00,0,MyOwnSoftware,2013-11-02 21:15:00,
2013-11-02 21:16:00,43.5,43.5,28.91,WSW,248,2.0,5.0,100,0.00,,,0.00,0,MyOwnSoftware,2013-11-02 21:16:00,
2013-11-02 21:17:00,43.5,43.5,28.91,West,270,2.0,6.0,100,0.00,,,0.00,0,MyOwnSoftware,2013-11-02 21:17:00,
2013-11-02 21:18:00,43.5,43.5,28.91,SW,225,3.0,5.0,100,0.00,,,0.00,0,MyOwnSoftware,2013-11-02 21:18:00,
2013-11-02 21:19:00,43.5,43.5,28.91,SSE,158,3.0,6.0,100,0.00,,,0.00,0,MyOwnSoftware,2013-11-02 21:19:00,
2013-11-02 21:20:00,43.5,43.5,28.91,NW,315,2.0,3.0,100,0.00,,,0.00,0,MyOwnSoftware,2013-11-02 21:20:00,
2013-11-02 21:21:00,43.5,43.5,28.91,NNW,338,2.0,3.0,100,0.00,,,0.00,0,MyOwnSoftware,2013-11-02 21:21:00,
2013-11-02 21:22:00,43.5,43.5,28.91,SSW,202,3.0,8.0,100,0.00,,,0.00,0,MyOwnSoftware,2013-11-02 21:22:00,
2013-11-02 21:23:00,43.5,43.5,28.91,SSW,202,2.0,6.0,100,0.00,,,0.00,0,MyOwnSoftware,2013-11-02 21:23:00,
2013-11-02 21:24:00,43.3,43.3,28.91,WSW,248,3.0,8.0,100,0.00,,,0.00,0,MyOwnSoftware,2013-11-02 21:24:00,
2013-11-02 21:25:00,43.3,43.0,28.91,SE,138,1.0,-999.0,100,-99.99,,,0.11,0,weatherlink.com 1.10,2013-11-02 21:25:00,
2013-11-02 21:26:00,43.3,43.3,28.91,SE,135,2.0,6.0,100,0.00,,,0.00,0,MyOwnSoftware,2013-11-02 21:26:00,
2013-11-02 21:27:00,43.3,43.3,28.91,NW,315,3.0,7.0,100,0.00,,,0.00,0,MyOwnSoftware,2013-11-02 21:27:00,
2013-11-02 21:28:00,43.3,43.3,28.91,NW,315,2.0,5.0,100,0.00,,,0.00,0,MyOwnSoftware,2013-11-02 21:28:00,
2013-11-02 21:29:00,43.3,43.3,28.91,SSW,202,4.0,8.0,100,0.00,,,0.00,0,MyOwnSoftware,2013-11-02 21:29:00,
2013-11-02 21:30:00,43.3,43.3,28.91,South,180,2.0,4.0,100,0.00,,,0.00,0,MyOwnSoftware,2013-11-02 21:30:00,
2013-11-02 21:31:00,43.3,43.3,28.91,NW,315,3.0,6.0,100,0.00,,,0.00,0,MyOwnSoftware,2013-11-02 21:31:00,
2013-11-02 21:32:00,43.3,43.3,28.91,North,0,3.0,6.0,100,0.00,,,0.00,0,MyOwnSoftware,2013-11-02 21:32:00,
2013-11-02 21:33:00,43.3,43.3,28.91,SW,225,2.0,4.0,100,0.00,,,0.00,0,MyOwnSoftware,2013-11-02 21:33:00,
2013-11-02 21:34:00,43.3,43.3,28.91,North,0,4.0,6.0,100,0.00,,,0.00,0,MyOwnSoftware,2013-11-02 21:34:00,
2013-11-02 21:35:00,43.3,43.3,28.91,North,0,3.0,5.0,100,0.00,,,0.00,0,MyOwnSoftware,2013-11-02 21:35:00,
2013-11-02 21:36:00,43.3,43.3,28.91,WSW,248,4.0,8.0,100,0.00,,,0.00,0,MyOwnSoftware,2013-11-02 21:36:00,
2013-11-02 21:37:00,43.3,43.3,28.91,SSW,202,3.0,8.0,100,0.00,,,0.00,0,MyOwnSoftware,2013-11-02 21:37:00,
2013-11-02 21:38:00,43.3,43.3,28.91,SW,225,3.0,6.0,100,0.00,,,0.00,0,MyOwnSoftware,2013-11-02 21:38:00,
2013-11-02 21:39:00,43.3,43.3,28.91,SSW,202,4.0,7.0,100,0.00,,,0.00,0,MyOwnSoftware,2013-11-02 21:39:00,
2013-11-02 21:40:00,43.3,43.0,28.91,South,178,3.0,-999.0,100,-99.99,,,0.11,0,weatherlink.com 1.10,2013-11-02 21:40:00,
2013-11-02 21:41:00,43.3,43.3,28.91,SW,225,2.0,4.0,100,0.00,,,0.00,0,MyOwnSoftware,2013-11-02 21:41:00,
2013-11-02 21:42:00,43.3,43.3,28.91,North,0,2.0,4.0,100,0.00,,,0.00,0,MyOwnSoftware,2013-11-02 21:42:00,
2013-11-02 21:43:00,43.3,43.3,28.91,North,0,3.0,7.0,100,0.00,,,0.00,0,MyOwnSoftware,2013-11-02 21:43:00,
2013-11-02 21:44:00,43.3,43.3,28.91,SSW,202,5.0,8.0,100,0.00,,,0.00,0,MyOwnSoftware,2013-11-02 21:44:00,
2013-11-02 21:45:00,43.3,43.3,28.92,WNW,292,3.0,6.0,100,0.00,,,0.00,0,MyOwnSoftware,2013-11-02 21:45:00,
2013-11-02 21:46:00,43.5,43.5,28.92,SW,225,3.0,6.0,100,0.00,,,0.00,0,MyOwnSoftware,2013-11-02 21:46:00,
2013-11-02 21:47:00,43.5,43.5,28.92,SSW,202,4.0,10.0,100,0.00,,,0.00,0,MyOwnSoftware,2013-11-02 21:47:00,
2013-11-02 21:48:00,43.5,43.5,28.92,SW,225,4.0,6.0,100,0.00,,,0.00,0,MyOwnSoftware,2013-11-02 21:48:00,
2013-11-02 21:49:00,43.5,43.5,28.92,SSW,202,2.0,3.0,100,0.00,,,0.00,0,MyOwnSoftware,2013-11-02 21:49:00,
2013-11-02 21:50:00,43.5,43.5,28.92,SW,225,3.0,7.0,100,0.00,,,0.00,0,MyOwnSoftware,2013-11-02 21:50:00,
2013-11-02 21:51:00,43.5,43.5,28.92,WSW,248,3.0,7.0,100,0.00,,,0.00,0,MyOwnSoftware,2013-11-02 21:51:00,
2013-11-02 21:52:00,43.5,43.5,28.92,NNW,338,2.0,7.0,100,0.00,,,0.00,0,MyOwnSoftware,2013-11-02 21:52:00,
2013-11-02 21:53:00,43.5,43.5,28.92,West,270,3.0,7.0,100,0.00,,,0.00,0,MyOwnSoftware,2013-11-02 21:53:00,
2013-11-02 21:54:00,43.5,43.5,28.92,SW,225,3.0,5.0,100,0.00,,,0.00,0,MyOwnSoftware,2013-11-02 21:54:00,
2013-11-02 21:55:00,43.5,44.0,28.92,SW,227,2.0,-999.0,100,-99.99,,,0.11,0,weatherlink.com 1.10,2013-11-02 21:55:00,
2013-11-02 21:56:00,43.5,43.5,28.92,SW,225,2.0,7.0,100,0.00,,,0.00,0,MyOwnSoftware,2013-11-02 21:56:00,
2013-11-02 21:57:00,43.5,43.5,28.92,SW,225,4.0,6.0,100,0.00,,,0.00,0,MyOwnSoftware,2013-11-02 21:57:00,
2013-11-02 21:58:00,43.5,43.5,28.92,SW,225,3.0,6.0,100,0.00,,,0.00,0,MyOwnSoftware,2013-11-02 21:58:00,
2013-11-02 21:59:00,43.6,43.6,28.92,SW,225,3.0,6.0,100,0.00,,,0.00,0,MyOwnSoftware,2013-11-02 21:59:00,
2013-11-02 22:00:00,43.6,43.6,28.93,SSW,202,4.0,10.0,100,0.00,,,0.00,0,MyOwnSoftware,2013-11-02 22:00:00,
2013-11-02 22:01:00,43.6,43.6,28.93,SW,225,3.0,6.0,100,0.00,,,0.00,0,MyOwnSoftware,2013-11-02 22:01:00,
2013-11-02 22:02:00,43.6,43.6,28.93,WSW,248,3.0,5.0,100,0.00,,,0.00,0,MyOwnSoftware,2013-11-02 22:02:00,
2013-11-02 22:03:00,43.6,43.6,28.93,SSW,202,3.0,7.0,100,0.00,,,0.00,0,MyOwnSoftware,2013-11-02 22:03:00,
2013-11-02 22:04:00,43.6,43.6,28.93,SSW,202,4.0,11.0,100,0.00,,,0.00,0,MyOwnSoftware,2013-11-02 22:04:00,
2013-11-02 22:05:00,43.6,43.6,28.93,SSW,202,3.0,7.0,100,0.00,,,0.00,0,MyOwnSoftware,2013-11-02 22:05:00,
2013-11-02 22:06:00,43.6,43.6,28.93,SW,225,4.0,7.0,100,0.00,,,0.00,0,MyOwnSoftware,2013-11-02 22:06:00,
2013-11-02 22:07:00,43.6,43.6,28.93,SW,225,5.0,12.0,100,0.00,,,0.00,0,MyOwnSoftware,2013-11-02 22:07:00,
2013-11-02 22:08:00,43.6,43.6,28.93,South,180,3.0,8.0,100,0.00,,,0.00,0,MyOwnSoftware,2013-11-02 22:08:00,
2013-11-02 22:09:00,43.6,43.6,28.93,WNW,292,3.0,6.0,100,0.00,,,0.00,0,MyOwnSoftware,2013-11-02 22:09:00,
2013-11-02 22:10:00,43.6,44.0,28.93,North,0,6.0,-999.0,100,-99.99,,,0.11,0,weatherlink.com 1.10,2013-11-02 22:10:00,
2013-11-02 22:11:00,43.6,43.6,28.93,SSW,202,6.0,11.0,100,0.00,,,0.00,0,MyOwnSoftware,2013-11-02 22:11:00,
2013-11-02 22:12:00,43.6,43.6,28.93,SW,225,2.0,3.0,100,0.00,,,0.00,0,MyOwnSoftware,2013-11-02 22:12:00,
2013-11-02 22:13:00,43.6,43.6,28.93,SW,225,4.0,7.0,100,0.00,,,0.00,0,MyOwnSoftware,2013-11-02 22:13:00,
2013-11-02 22:14:00,43.6,43.6,28.93,SSW,202,6.0,12.0,100,0.00,,,0.00,0,MyOwnSoftware,2013-11-02 22:14:00,
2013-11-02 22:15:00,43.6,43.6,28.93,South,180,5.0,11.0,100,0.00,,,0.00,0,MyOwnSoftware,2013-11-02 22:15:00,
2013-11-02 22:16:00,43.6,43.6,28.93,WSW,248,3.0,6.0,100,0.00,,,0.00,0,MyOwnSoftware,2013-11-02 22:16:00,
2013-11-02 22:17:00,43.6,43.6,28.93,SSW,202,5.0,8.0,100,0.00,,,0.00,0,MyOwnSoftware,2013-11-02 22:17:00,
2013-11-02 22:18:00,43.6,43.6,28.93,SSW,202,4.0,10.0,100,0.00,,,0.00,0,MyOwnSoftware,2013-11-02 22:18:00,
2013-11-02 22:19:00,43.6,43.6,28.93,SSW,202,7.0,11.0,100,0.00,,,0.00,0,MyOwnSoftware,2013-11-02 22:19:00,
2013-11-02 22:20:00,43.6,43.6,28.93,SW,225,7.0,13.0,100,0.00,,,0.00,0,MyOwnSoftware,2013-11-02 22:20:00,
2013-11-02 22:21:00,43.6,43.6,28.93,WSW,248,6.0,13.0,100,0.00,,,0.00,0,MyOwnSoftware,2013-11-02 22:21:00,
2013-11-02 22:22:00,43.6,43.6,28.93,SW,225,4.0,10.0,100,0.00,,,0.00,0,MyOwnSoftware,2013-11-02 22:22:00,
2013-11-02 22:23:00,43.6,43.6,28.93,SSW,202,5.0,11.0,100,0.00,,,0.00,0,MyOwnSoftware,2013-11-02 22:23:00,
2013-11-02 22:24:00,43.6,43.6,28.93,SW,225,5.0,10.0,100,0.00,,,0.00,0,MyOwnSoftware,2013-11-02 22:24:00,
2013-11-02 22:25:00,43.6,44.0,28.93,SW,226,7.0,-999.0,100,-99.99,,,0.11,0,weatherlink.com 1.10,2013-11-02 22:25:00,
2013-11-02 22:26:00,43.6,43.6,28.93,SW,225,5.0,10.0,100,0.00,,,0.00,0,MyOwnSoftware,2013-11-02 22:26:00,
2013-11-02 22:27:00,43.6,43.6,28.93,North,0,4.0,8.0,100,0.00,,,0.00,0,MyOwnSoftware,2013-11-02 22:27:00,
2013-11-02 22:28:00,43.6,43.6,28.93,West,270,4.0,8.0,100,0.00,,,0.00,0,MyOwnSoftware,2013-11-02 22:28:00,
2013-11-02 22:29:00,43.6,43.6,28.93,NNE,22,6.0,11.0,100,0.00,,,0.00,0,MyOwnSoftware,2013-11-02 22:29:00,
2013-11-02 22:30:00,43.6,43.6,28.93,South,180,6.0,10.0,100,0.00,,,0.00,0,MyOwnSoftware,2013-11-02 22:30:00,
2013-11-02 22:31:00,43.6,43.6,28.93,SW,225,4.0,8.0,100,0.00,,,0.00,0,MyOwnSoftware,2013-11-02 22:31:00,
2013-11-02 22:32:00,43.6,43.6,28.93,WSW,248,5.0,10.0,100,0.00,,,0.00,0,MyOwnSoftware,2013-11-02 22:32:00,
2013-11-02 22:33:00,43.6,43.6,28.93,SW,225,7.0,11.0,100,0.00,,,0.00,0,MyOwnSoftware,2013-11-02 22:33:00,
2013-11-02 22:34:00,43.6,43.6,28.93,SW,225,4.0,12.0,100,0.00,,,0.00,0,MyOwnSoftware,2013-11-02 22:34:00,
2013-11-02 22:35:00,43.6,43.6,28.93,SSW,202,6.0,11.0,100,0.00,,,0.00,0,MyOwnSoftware,2013-11-02 22:35:00,
2013-11-02 22:36:00,43.6,43.6,28.93,SW,225,3.0,7.0,100,0.00,,,0.00,0,MyOwnSoftware,2013-11-02 22:36:00,
2013-11-02 22:37:00,43.6,43.6,28.93,SSW,202,5.0,8.0,100,0.00,,,0.00,0,MyOwnSoftware,2013-11-02 22:37:00,
2013-11-02 22:38:00,43.6,43.6,28.93,SW,225,6.0,12.0,100,0.00,,,0.00,0,MyOwnSoftware,2013-11-02 22:38:00,
2013-11-02 22:39:00,43.6,43.6,28.93,South,180,5.0,11.0,100,0.00,,,0.00,0,MyOwnSoftware,2013-11-02 22:39:00,
2013-11-02 22:40:00,43.6,44.0,28.93,WNW,284,2.0,-999.0,100,-99.99,,,0.11,0,weatherlink.com 1.10,2013-11-02 22:40:00,
2013-11-02 22:41:00,43.6,43.6,28.93,SW,225,4.0,10.0,100,0.00,,,0.00,0,MyOwnSoftware,2013-11-02 22:41:00,
2013-11-02 22:42:00,43.6,43.6,28.93,NE,45,4.0,8.0,100,0.00,,,0.00,0,MyOwnSoftware,2013-11-02 22:42:00,
2013-11-02 22:43:00,43.6,43.6,28.93,SW,225,4.0,7.0,100,0.00,,,0.00,0,MyOwnSoftware,2013-11-02 22:43:00,
2013-11-02 22:44:00,43.6,43.6,28.93,SSW,202,4.0,10.0,100,0.00,,,0.00,0,MyOwnSoftware,2013-11-02 22:44:00,
2013-11-02 22:45:00,43.6,43.6,28.94,SSW,202,6.0,8.0,100,0.00,,,0.00,0,MyOwnSoftware,2013-11-02 22:45:00,
2013-11-02 22:46:00,43.6,43.6,28.94,WSW,248,5.0,10.0,100,0.00,,,0.00,0,MyOwnSoftware,2013-11-02 22:46:00,
2013-11-02 22:47:00,43.6,43.6,28.94,WSW,248,6.0,10.0,100,0.00,,,0.00,0,MyOwnSoftware,2013-11-02 22:47:00,
2013-11-02 22:48:00,43.6,43.6,28.94,South,180,4.0,10.0,100,0.00,,,0.00,0,MyOwnSoftware,2013-11-02 22:48:00,
2013-11-02 22:49:00,43.6,43.6,28.94,SW,225,3.0,8.0,100,0.00,,,0.00,0,MyOwnSoftware,2013-11-02 22:49:00,
2013-11-02 22:50:00,43.6,43.6,28.94,SW,225,7.0,13.0,100,0.00,,,0.00,0,MyOwnSoftware,2013-11-02 22:50:00,
2013-11-02 22:51:00,43.6,43.6,28.94,SW,225,2.0,6.0,100,0.00,,,0.00,0,MyOwnSoftware,2013-11-02 22:51:00,
2013-11-02 22:52:00,43.6,43.6,28.94,SSW,202,2.0,6.0,100,0.00,,,0.00,0,MyOwnSoftware,2013-11-02 22:52:00,
2013-11-02 22:53:00,43.6,43.6,28.94,South,180,5.0,8.0,100,0.00,,,0.00,0,MyOwnSoftware,2013-11-02 22:53:00,
2013-11-02 22:54:00,43.6,43.6,28.94,SSW,202,6.0,12.0,100,0.00,,,0.00,0,MyOwnSoftware,2013-11-02 22:54:00,
2013-11-02 22:55:00,43.6,43.6,28.94,WSW,248,5.0,8.0,100,0.00,,,0.00,0,MyOwnSoftware,2013-11-02 22:55:00,
2013-11-02 22:56:00,43.6,44.0,28.94,NNE,20,6.0,-999.0,100,-99.99,,,0.11,0,weatherlink.com 1.10,2013-11-02 22:56:00,
2013-11-02 22:57:00,43.6,43.6,28.94,SSW,202,5.0,13.0,100,0.00,,,0.00,0,MyOwnSoftware,2013-11-02 22:57:00,
2013-11-02 22:58:00,43.5,43.5,28.94,SW,225,4.0,13.0,100,0.00,,,0.00,0,MyOwnSoftware,2013-11-02 22:58:00,
2013-11-02 22:59:00,43.5,43.5,28.94,SSW,202,4.0,8.0,100,0.00,,,0.00,0,MyOwnSoftware,2013-11-02 22:59:00,
2013-11-02 23:00:00,43.5,43.5,28.94,WSW,248,4.0,8.0,100,0.00,,,0.00,0,MyOwnSoftware,2013-11-02 23:00:00,
2013-11-02 23:01:00,43.5,43.5,28.94,SSW,202,5.0,8.0,100,0.00,,,0.00,0,MyOwnSoftware,2013-11-02 23:01:00,
2013-11-02 23:02:00,43.5,43.5,28.94,SW,225,4.0,8.0,100,0.00,,,0.00,0,MyOwnSoftware,2013-11-02 23:02:00,
2013-11-02 23:03:00,43.5,43.5,28.94,SSW,202,4.0,7.0,100,0.00,,,0.00,0,MyOwnSoftware,2013-11-02 23:03:00,
2013-11-02 23:04:00,43.5,43.5,28.94,SSW,202,6.0,12.0,100,0.00,,,0.00,0,MyOwnSoftware,2013-11-02 23:04:00,
2013-11-02 23:05:00,43.5,43.5,28.94,SW,225,5.0,11.0,100,0.00,,,0.00,0,MyOwnSoftware,2013-11-02 23:05:00,
2013-11-02 23:06:00,43.5,43.5,28.94,SSW,202,7.0,12.0,100,0.00,,,0.00,0,MyOwnSoftware,2013-11-02 23:06:00,
2013-11-02 23:07:00,43.5,43.5,28.94,SSW,202,6.0,8.0,100,0.00,,,0.00,0,MyOwnSoftware,2013-11-02 23:07:00,
2013-11-02 23:08:00,43.5,43.5,28.94,West,270,5.0,10.0,100,0.00,,,0.00,0,MyOwnSoftware,2013-11-02 23:08:00,
2013-11-02 23:09:00,43.5,43.5,28.94,SSW,202,4.0,6.0,100,0.00,,,0.00,0,MyOwnSoftware,2013-11-02 23:09:00,
2013-11-02 23:10:00,43.3,43.3,28.94,South,180,3.0,7.0,100,0.00,,,0.00,0,MyOwnSoftware,2013-11-02 23:10:00,
2013-11-02 23:11:00,43.3,43.0,28.94,West,264,6.0,-999.0,100,-99.99,,,0.11,0,weatherlink.com 1.10,2013-11-02 23:11:00,
2013-11-02 23:12:00,43.3,43.3,28.94,West,270,4.0,8.0,100,0.00,,,0.00,0,MyOwnSoftware,2013-11-02 23:12:00,
2013-11-02 23:13:00,43.3,43.3,28.94,SW,225,5.0,8.0,100,0.00,,,0.00,0,MyOwnSoftware,2013-11-02 23:13:00,
2013-11-02 23:14:00,43.3,43.3,28.94,SSW,202,6.0,11.0,100,0.00,,,0.00,0,MyOwnSoftware,2013-11-02 23:14:00,
2013-11-02 23:15:00,43.5,43.5,28.95,WSW,248,3.0,7.0,100,0.00,,,0.00,0,MyOwnSoftware,2013-11-02 23:15:00,
2013-11-02 23:16:00,43.5,43.5,28.95,SSW,202,6.0,12.0,100,0.00,,,0.00,0,MyOwnSoftware,2013-11-02 23:16:00,
2013-11-02 23:17:00,43.5,43.5,28.95,SSW,202,6.0,11.0,100,0.00,,,0.00,0,MyOwnSoftware,2013-11-02 23:17:00,
2013-11-02 23:18:00,43.5,43.5,28.95,SW,225,6.0,10.0,100,0.00,,,0.00,0,MyOwnSoftware,2013-11-02 23:18:00,
2013-11-02 23:19:00,43.5,43.5,28.95,SW,225,7.0,12.0,100,0.00,,,0.00,0,MyOwnSoftware,2013-11-02 23:19:00,
2013-11-02 23:20:00,43.5,43.5,28.95,SW,225,6.0,12.0,100,0.00,,,0.00,0,MyOwnSoftware,2013-11-02 23:20:00,
2013-11-02 23:21:00,43.5,43.5,28.95,South,180,6.0,13.0,100,0.00,,,0.00,0,MyOwnSoftware,2013-11-02 23:21:00,
2013-11-02 23:22:00,43.5,43.5,28.95,SW,225,5.0,12.0,100,0.00,,,0.00,0,MyOwnSoftware,2013-11-02 23:22:00,
2013-11-02 23:23:00,43.5,43.5,28.95,WNW,292,3.0,6.0,100,0.00,,,0.00,0,MyOwnSoftware,2013-11-02 23:23:00,
2013-11-02 23:24:00,43.5,43.5,28.95,West,270,4.0,8.0,100,0.00,,,0.00,0,MyOwnSoftware,2013-11-02 23:24:00,
2013-11-02 23:25:00,43.5,43.5,28.95,SW,225,5.0,8.0,100,0.00,,,0.00,0,MyOwnSoftware,2013-11-02 23:25:00,
2013-11-02 23:26:00,43.5,44.0,28.95,SSW,213,4.0,-999.0,100,-99.99,,,0.11,0,weatherlink.com 1.10,2013-11-02 23:26:00,
2013-11-02 23:27:00,43.5,43.5,28.95,SSW,202,3.0,6.0,100,0.00,,,0.00,0,MyOwnSoftware,2013-11-02 23:27:00,
2013-11-02 23:28:00,43.5,43.5,28.95,SSW,202,7.0,13.0,100,0.00,,,0.00,0,MyOwnSoftware,2013-11-02 23:28:00,
2013-11-02 23:29:00,43.5,43.5,28.95,West,270,5.0,10.0,100,0.00,,,0.00,0,MyOwnSoftware,2013-11-02 23:29:00,
2013-11-02 23:30:00,43.5,43.5,28.95,WSW,248,2.0,3.0,100,0.00,,,0.00,0,MyOwnSoftware,2013-11-02 23:30:00,
2013-11-02 23:31:00,43.5,43.5,28.95,SSW,202,4.0,10.0,100,0.00,,,0.00,0,MyOwnSoftware,2013-11-02 23:31:00,
2013-11-02 23:32:00,43.5,43.5,28.95,South,180,5.0,9.0,100,0.00,,,0.00,0,MyOwnSoftware,2013-11-02 23:32:00,
2013-11-02 23:33:00,43.5,43.5,28.95,SW,225,7.0,13.0,100,0.00,,,0.00,0,MyOwnSoftware,2013-11-02 23:33:00,
2013-11-02 23:34:00,43.5,43.5,28.95,SW,225,5.0,10.0,100,0.00,,,0.00,0,MyOwnSoftware,2013-11-02 23:34:00,
2013-11-02 23:35:00,43.5,43.5,28.95,SW,225,5.0,11.0,100,0.00,,,0.00,0,MyOwnSoftware,2013-11-02 23:35:00,
2013-11-02 23:36:00,43.5,43.5,28.95,SW,225,5.0,8.0,100,0.00,,,0.00,0,MyOwnSoftware,2013-11-02 23:36:00,
2013-11-02 23:37:00,43.5,43.5,28.95,WSW,248,5.0,10.0,100,0.00,,,0.00,0,MyOwnSoftware,2013-11-02 23:37:00,
2013-11-02 23:38:00,43.5,43.5,28.95,SSW,202,6.0,8.0,100,0.00,,,0.00,0,MyOwnSoftware,2013-11-02 23:38:00,
2013-11-02 23:39:00,43.5,43.5,28.95,South,180,4.0,8.0,100,0.00,,,0.00,0,MyOwnSoftware,2013-11-02 23:39:00,
2013-11-02 23:40:00,43.5,43.5,28.95,SSW,202,5.0,10.0,100,0.00,,,0.00,0,MyOwnSoftware,2013-11-02 23:40:00,
2013-11-02 23:41:00,43.5,44.0,28.95,West,268,3.0,-999.0,100,-99.99,,,0.11,0,weatherlink.com 1.10,2013-11-02 23:41:00,
2013-11-02 23:42:00,43.5,43.5,28.95,SW,225,3.0,7.0,100,0.00,,,0.00,0,MyOwnSoftware,2013-11-02 23:42:00,
2013-11-02 23:43:00,43.5,43.5,28.95,SW,225,4.0,7.0,100,0.00,,,0.00,0,MyOwnSoftware,2013-11-02 23:43:00,
2013-11-02 23:44:00,43.5,43.5,28.95,WNW,292,4.0,8.0,100,0.00,,,0.00,0,MyOwnSoftware,2013-11-02 23:44:00,
2013-11-02 23:45:00,43.5,43.5,28.95,South,180,8.0,13.0,100,0.00,,,0.00,0,MyOwnSoftware,2013-11-02 23:45:00,
2013-11-02 23:46:00,43.3,43.3,28.95,SSW,202,6.0,12.0,100,0.00,,,0.00,0,MyOwnSoftware,2013-11-02 23:46:00,
2013-11-02 23:47:00,43.3,43.3,28.95,SW,225,4.0,7.0,100,0.00,,,0.00,0,MyOwnSoftware,2013-11-02 23:47:00,
2013-11-02 23:48:00,43.3,43.3,28.95,SSW,202,3.0,5.0,100,0.00,,,0.00,0,MyOwnSoftware,2013-11-02 23:48:00,
2013-11-02 23:49:00,43.3,43.3,28.95,South,180,3.0,11.0,100,0.00,,,0.00,0,MyOwnSoftware,2013-11-02 23:49:00,
2013-11-02 23:50:00,43.3,43.3,28.95,SW,225,6.0,11.0,100,0.00,,,0.00,0,MyOwnSoftware,2013-11-02 23:50:00,
2013-11-02 23:51:00,43.3,43.3,28.95,ESE,112,5.0,11.0,100,0.00,,,0.00,0,MyOwnSoftware,2013-11-02 23:51:00,
2013-11-02 23:52:00,43.3,43.3,28.95,SW,225,7.0,13.0,100,0.00,,,0.00,0,MyOwnSoftware,2013-11-02 23:52:00,
2013-11-02 23:53:00,43.3,43.3,28.95,WSW,248,6.0,11.0,100,0.00,,,0.00,0,MyOwnSoftware,2013-11-02 23:53:00,
2013-11-02 23:54:00,43.3,43.3,28.95,NNW,338,6.0,12.0,100,0.00,,,0.00,0,MyOwnSoftware,2013-11-02 23:54:00,
2013-11-02 23:55:00,43.3,43.3,28.95,South,180,5.0,13.0,100,0.00,,,0.00,0,MyOwnSoftware,2013-11-02 23:55:00,
2013-11-02 23:56:00,43.3,43.0,28.95,SSW,208,2.0,-999.0,100,-99.99,,,0.11,0,weatherlink.com 1.10,2013-11-02 23:56:00,
2013-11-02 23:57:00,43.3,43.3,28.95,SSW,202,5.0,10.0,100,0.00,,,0.00,0,MyOwnSoftware,2013-11-02 23:57:00,
2013-11-02 23:58:00,43.3,43.3,28.95,SW,225,4.0,6.0,100,0.00,,,0.00,0,MyOwnSoftware,2013-11-02 23:58:00,
2013-11-02 23:59:00,43.3,43.3,28.95,SSW,202,4.0,8.0,100,0.00,,,0.00,0,MyOwnSoftware,2013-11-02 23:59:00,